<?xml version="1.0" encoding="UTF-8" standalone="no" ?>
<gpx xmlns="http://www.topografix.com/GPX/1/1" xmlns:xsi="http://www.w3.org/2001/XMLSchema-instance" xsi:schemaLocation="http://www.topografix.com/GPX/1/1 http://www.topografix.com/GPX/1/1/gpx.xsd" version="1.1" creator="VisuGPX - https://www.visugpx.com">
  <metadata>
    <name>Aumelas la Boissière 13 déc. 2020</name>
    <desc><![CDATA[Sortie VTT du 13 décembre 2020 Aumelas - La Boissière.avec option Sergio]]></desc>
  </metadata>
  <trk>
    <name><![CDATA[Aumelas la Boissière 13 déc. 2020]]></name>
    <trkseg>
      <trkpt lat="43.60052" lon="3.59802">
        <ele>190</ele>
        <time>2020-12-13T08:12:58Z</time>
      </trkpt>
      <trkpt lat="43.60053" lon="3.59802">
        <ele>190</ele>
        <time>2020-12-13T08:12:59Z</time>
      </trkpt>
      <trkpt lat="43.60052" lon="3.59798">
        <ele>189</ele>
        <time>2020-12-13T08:13:14Z</time>
      </trkpt>
      <trkpt lat="43.60052" lon="3.59799">
        <ele>187</ele>
        <time>2020-12-13T08:14:37Z</time>
      </trkpt>
      <trkpt lat="43.60056" lon="3.59802">
        <ele>189</ele>
        <time>2020-12-13T08:14:42Z</time>
      </trkpt>
      <trkpt lat="43.60058" lon="3.598">
        <ele>189</ele>
        <time>2020-12-13T08:14:47Z</time>
      </trkpt>
      <trkpt lat="43.60059" lon="3.59803">
        <ele>189</ele>
        <time>2020-12-13T08:22:18Z</time>
      </trkpt>
      <trkpt lat="43.60062" lon="3.59806">
        <ele>191</ele>
        <time>2020-12-13T08:22:30Z</time>
      </trkpt>
      <trkpt lat="43.60064" lon="3.59809">
        <ele>192</ele>
        <time>2020-12-13T08:22:32Z</time>
      </trkpt>
      <trkpt lat="43.60076" lon="3.59839">
        <ele>185</ele>
        <time>2020-12-13T08:22:46Z</time>
      </trkpt>
      <trkpt lat="43.60107" lon="3.59873">
        <ele>181</ele>
        <time>2020-12-13T08:22:58Z</time>
      </trkpt>
      <trkpt lat="43.6022" lon="3.59984">
        <ele>169</ele>
        <time>2020-12-13T08:23:21Z</time>
      </trkpt>
      <trkpt lat="43.60224" lon="3.59986">
        <ele>169</ele>
        <time>2020-12-13T08:23:22Z</time>
      </trkpt>
      <trkpt lat="43.60228" lon="3.59987">
        <ele>169</ele>
        <time>2020-12-13T08:23:23Z</time>
      </trkpt>
      <trkpt lat="43.60232" lon="3.59985">
        <ele>170</ele>
        <time>2020-12-13T08:23:24Z</time>
      </trkpt>
      <trkpt lat="43.60235" lon="3.59981">
        <ele>170</ele>
        <time>2020-12-13T08:23:25Z</time>
      </trkpt>
      <trkpt lat="43.60237" lon="3.59978">
        <ele>170</ele>
        <time>2020-12-13T08:23:26Z</time>
      </trkpt>
      <trkpt lat="43.60238" lon="3.59974">
        <ele>170</ele>
        <time>2020-12-13T08:23:27Z</time>
      </trkpt>
      <trkpt lat="43.60242" lon="3.59965">
        <ele>169</ele>
        <time>2020-12-13T08:23:29Z</time>
      </trkpt>
      <trkpt lat="43.60245" lon="3.59961">
        <ele>169</ele>
        <time>2020-12-13T08:23:30Z</time>
      </trkpt>
      <trkpt lat="43.60248" lon="3.59959">
        <ele>170</ele>
        <time>2020-12-13T08:23:31Z</time>
      </trkpt>
      <trkpt lat="43.60255" lon="3.59959">
        <ele>170</ele>
        <time>2020-12-13T08:23:33Z</time>
      </trkpt>
      <trkpt lat="43.60272" lon="3.59968">
        <ele>169</ele>
        <time>2020-12-13T08:23:40Z</time>
      </trkpt>
      <trkpt lat="43.60302" lon="3.59996">
        <ele>167</ele>
        <time>2020-12-13T08:23:50Z</time>
      </trkpt>
      <trkpt lat="43.60306" lon="3.59997">
        <ele>168</ele>
        <time>2020-12-13T08:23:51Z</time>
      </trkpt>
      <trkpt lat="43.60309" lon="3.59996">
        <ele>168</ele>
        <time>2020-12-13T08:23:52Z</time>
      </trkpt>
      <trkpt lat="43.60311" lon="3.59992">
        <ele>169</ele>
        <time>2020-12-13T08:23:53Z</time>
      </trkpt>
      <trkpt lat="43.60312" lon="3.59988">
        <ele>169</ele>
        <time>2020-12-13T08:23:54Z</time>
      </trkpt>
      <trkpt lat="43.60311" lon="3.59983">
        <ele>168</ele>
        <time>2020-12-13T08:23:55Z</time>
      </trkpt>
      <trkpt lat="43.60309" lon="3.59979">
        <ele>168</ele>
        <time>2020-12-13T08:23:56Z</time>
      </trkpt>
      <trkpt lat="43.60259" lon="3.59908">
        <ele>176</ele>
        <time>2020-12-13T08:24:14Z</time>
      </trkpt>
      <trkpt lat="43.60257" lon="3.59899">
        <ele>176</ele>
        <time>2020-12-13T08:24:16Z</time>
      </trkpt>
      <trkpt lat="43.60256" lon="3.59891">
        <ele>177</ele>
        <time>2020-12-13T08:24:18Z</time>
      </trkpt>
      <trkpt lat="43.60256" lon="3.59887">
        <ele>177</ele>
        <time>2020-12-13T08:24:19Z</time>
      </trkpt>
      <trkpt lat="43.60257" lon="3.59881">
        <ele>177</ele>
        <time>2020-12-13T08:24:21Z</time>
      </trkpt>
      <trkpt lat="43.6026" lon="3.59876">
        <ele>177</ele>
        <time>2020-12-13T08:24:23Z</time>
      </trkpt>
      <trkpt lat="43.60289" lon="3.59863">
        <ele>175</ele>
        <time>2020-12-13T08:24:40Z</time>
      </trkpt>
      <trkpt lat="43.60299" lon="3.59856">
        <ele>177</ele>
        <time>2020-12-13T08:24:47Z</time>
      </trkpt>
      <trkpt lat="43.60304" lon="3.59853">
        <ele>178</ele>
        <time>2020-12-13T08:24:50Z</time>
      </trkpt>
      <trkpt lat="43.60307" lon="3.59851">
        <ele>178</ele>
        <time>2020-12-13T08:24:52Z</time>
      </trkpt>
      <trkpt lat="43.60309" lon="3.59851">
        <ele>179</ele>
        <time>2020-12-13T08:24:54Z</time>
      </trkpt>
      <trkpt lat="43.60312" lon="3.59853">
        <ele>180</ele>
        <time>2020-12-13T08:24:56Z</time>
      </trkpt>
      <trkpt lat="43.60319" lon="3.59868">
        <ele>181</ele>
        <time>2020-12-13T08:25:03Z</time>
      </trkpt>
      <trkpt lat="43.60322" lon="3.59872">
        <ele>180</ele>
        <time>2020-12-13T08:25:05Z</time>
      </trkpt>
      <trkpt lat="43.60351" lon="3.59854">
        <ele>178</ele>
        <time>2020-12-13T08:25:21Z</time>
      </trkpt>
      <trkpt lat="43.60354" lon="3.59852">
        <ele>178</ele>
        <time>2020-12-13T08:25:23Z</time>
      </trkpt>
      <trkpt lat="43.60357" lon="3.59852">
        <ele>178</ele>
        <time>2020-12-13T08:25:25Z</time>
      </trkpt>
      <trkpt lat="43.6036" lon="3.59854">
        <ele>178</ele>
        <time>2020-12-13T08:25:27Z</time>
      </trkpt>
      <trkpt lat="43.60392" lon="3.59923">
        <ele>182</ele>
        <time>2020-12-13T08:25:57Z</time>
      </trkpt>
      <trkpt lat="43.60397" lon="3.59932">
        <ele>181</ele>
        <time>2020-12-13T08:26:00Z</time>
      </trkpt>
      <trkpt lat="43.60407" lon="3.5994">
        <ele>180</ele>
        <time>2020-12-13T08:26:04Z</time>
      </trkpt>
      <trkpt lat="43.60508" lon="3.60002">
        <ele>184</ele>
        <time>2020-12-13T08:26:34Z</time>
      </trkpt>
      <trkpt lat="43.60511" lon="3.60004">
        <ele>184</ele>
        <time>2020-12-13T08:26:35Z</time>
      </trkpt>
      <trkpt lat="43.60518" lon="3.60009">
        <ele>183</ele>
        <time>2020-12-13T08:26:38Z</time>
      </trkpt>
      <trkpt lat="43.60521" lon="3.6001">
        <ele>183</ele>
        <time>2020-12-13T08:26:39Z</time>
      </trkpt>
      <trkpt lat="43.60525" lon="3.60009">
        <ele>183</ele>
        <time>2020-12-13T08:26:41Z</time>
      </trkpt>
      <trkpt lat="43.60528" lon="3.60005">
        <ele>183</ele>
        <time>2020-12-13T08:26:43Z</time>
      </trkpt>
      <trkpt lat="43.6053" lon="3.6">
        <ele>184</ele>
        <time>2020-12-13T08:26:45Z</time>
      </trkpt>
      <trkpt lat="43.60524" lon="3.5995">
        <ele>188</ele>
        <time>2020-12-13T08:27:01Z</time>
      </trkpt>
      <trkpt lat="43.60497" lon="3.59851">
        <ele>191</ele>
        <time>2020-12-13T08:27:32Z</time>
      </trkpt>
      <trkpt lat="43.60493" lon="3.59833">
        <ele>191</ele>
        <time>2020-12-13T08:27:38Z</time>
      </trkpt>
      <trkpt lat="43.60491" lon="3.59821">
        <ele>191</ele>
        <time>2020-12-13T08:27:42Z</time>
      </trkpt>
      <trkpt lat="43.60493" lon="3.59784">
        <ele>193</ele>
        <time>2020-12-13T08:27:56Z</time>
      </trkpt>
      <trkpt lat="43.60492" lon="3.59772">
        <ele>192</ele>
        <time>2020-12-13T08:28:00Z</time>
      </trkpt>
      <trkpt lat="43.60484" lon="3.5974">
        <ele>192</ele>
        <time>2020-12-13T08:28:10Z</time>
      </trkpt>
      <trkpt lat="43.60478" lon="3.59665">
        <ele>195</ele>
        <time>2020-12-13T08:28:34Z</time>
      </trkpt>
      <trkpt lat="43.6046" lon="3.59617">
        <ele>201</ele>
        <time>2020-12-13T08:28:52Z</time>
      </trkpt>
      <trkpt lat="43.60459" lon="3.59611">
        <ele>202</ele>
        <time>2020-12-13T08:28:54Z</time>
      </trkpt>
      <trkpt lat="43.6046" lon="3.59578">
        <ele>203</ele>
        <time>2020-12-13T08:29:06Z</time>
      </trkpt>
      <trkpt lat="43.6046" lon="3.59561">
        <ele>203</ele>
        <time>2020-12-13T08:29:12Z</time>
      </trkpt>
      <trkpt lat="43.60456" lon="3.59551">
        <ele>203</ele>
        <time>2020-12-13T08:29:16Z</time>
      </trkpt>
      <trkpt lat="43.60415" lon="3.5949">
        <ele>212</ele>
        <time>2020-12-13T08:29:44Z</time>
      </trkpt>
      <trkpt lat="43.60411" lon="3.5948">
        <ele>213</ele>
        <time>2020-12-13T08:29:48Z</time>
      </trkpt>
      <trkpt lat="43.60406" lon="3.59471">
        <ele>214</ele>
        <time>2020-12-13T08:29:52Z</time>
      </trkpt>
      <trkpt lat="43.6038" lon="3.59392">
        <ele>214</ele>
        <time>2020-12-13T08:30:22Z</time>
      </trkpt>
      <trkpt lat="43.60373" lon="3.59375">
        <ele>216</ele>
        <time>2020-12-13T08:30:28Z</time>
      </trkpt>
      <trkpt lat="43.60368" lon="3.59347">
        <ele>218</ele>
        <time>2020-12-13T08:30:38Z</time>
      </trkpt>
      <trkpt lat="43.60368" lon="3.59266">
        <ele>225</ele>
        <time>2020-12-13T08:31:08Z</time>
      </trkpt>
      <trkpt lat="43.60377" lon="3.59187">
        <ele>235</ele>
        <time>2020-12-13T08:31:38Z</time>
      </trkpt>
      <trkpt lat="43.60384" lon="3.59108">
        <ele>241</ele>
        <time>2020-12-13T08:32:08Z</time>
      </trkpt>
      <trkpt lat="43.60387" lon="3.5908">
        <ele>245</ele>
        <time>2020-12-13T08:32:18Z</time>
      </trkpt>
      <trkpt lat="43.60406" lon="3.58998">
        <ele>241</ele>
        <time>2020-12-13T08:32:48Z</time>
      </trkpt>
      <trkpt lat="43.60407" lon="3.58987">
        <ele>240</ele>
        <time>2020-12-13T08:32:51Z</time>
      </trkpt>
      <trkpt lat="43.60409" lon="3.5898">
        <ele>240</ele>
        <time>2020-12-13T08:32:53Z</time>
      </trkpt>
      <trkpt lat="43.6041" lon="3.58977">
        <ele>241</ele>
        <time>2020-12-13T08:32:54Z</time>
      </trkpt>
      <trkpt lat="43.60412" lon="3.58974">
        <ele>241</ele>
        <time>2020-12-13T08:32:55Z</time>
      </trkpt>
      <trkpt lat="43.60417" lon="3.58971">
        <ele>241</ele>
        <time>2020-12-13T08:32:57Z</time>
      </trkpt>
      <trkpt lat="43.60421" lon="3.5897">
        <ele>242</ele>
        <time>2020-12-13T08:32:59Z</time>
      </trkpt>
      <trkpt lat="43.60428" lon="3.58976">
        <ele>243</ele>
        <time>2020-12-13T08:33:02Z</time>
      </trkpt>
      <trkpt lat="43.6043" lon="3.5898">
        <ele>243</ele>
        <time>2020-12-13T08:33:03Z</time>
      </trkpt>
      <trkpt lat="43.60448" lon="3.5903">
        <ele>250</ele>
        <time>2020-12-13T08:33:22Z</time>
      </trkpt>
      <trkpt lat="43.60453" lon="3.59039">
        <ele>250</ele>
        <time>2020-12-13T08:33:26Z</time>
      </trkpt>
      <trkpt lat="43.6046" lon="3.59046">
        <ele>251</ele>
        <time>2020-12-13T08:33:30Z</time>
      </trkpt>
      <trkpt lat="43.60478" lon="3.59058">
        <ele>254</ele>
        <time>2020-12-13T08:33:40Z</time>
      </trkpt>
      <trkpt lat="43.6049" lon="3.59067">
        <ele>255</ele>
        <time>2020-12-13T08:33:46Z</time>
      </trkpt>
      <trkpt lat="43.60493" lon="3.59071">
        <ele>255</ele>
        <time>2020-12-13T08:33:48Z</time>
      </trkpt>
      <trkpt lat="43.60501" lon="3.59088">
        <ele>255</ele>
        <time>2020-12-13T08:33:54Z</time>
      </trkpt>
      <trkpt lat="43.60513" lon="3.59173">
        <ele>255</ele>
        <time>2020-12-13T08:34:24Z</time>
      </trkpt>
      <trkpt lat="43.6053" lon="3.59238">
        <ele>260</ele>
        <time>2020-12-13T08:34:46Z</time>
      </trkpt>
      <trkpt lat="43.60565" lon="3.59311">
        <ele>264</ele>
        <time>2020-12-13T08:35:16Z</time>
      </trkpt>
      <trkpt lat="43.60572" lon="3.59331">
        <ele>265</ele>
        <time>2020-12-13T08:35:24Z</time>
      </trkpt>
      <trkpt lat="43.60612" lon="3.59402">
        <ele>269</ele>
        <time>2020-12-13T08:35:54Z</time>
      </trkpt>
      <trkpt lat="43.60646" lon="3.5945">
        <ele>270</ele>
        <time>2020-12-13T08:36:16Z</time>
      </trkpt>
      <trkpt lat="43.60705" lon="3.59519">
        <ele>274</ele>
        <time>2020-12-13T08:36:46Z</time>
      </trkpt>
      <trkpt lat="43.60757" lon="3.59592">
        <ele>277</ele>
        <time>2020-12-13T08:37:16Z</time>
      </trkpt>
      <trkpt lat="43.60776" lon="3.59649">
        <ele>278</ele>
        <time>2020-12-13T08:37:34Z</time>
      </trkpt>
      <trkpt lat="43.60783" lon="3.59666">
        <ele>278</ele>
        <time>2020-12-13T08:37:40Z</time>
      </trkpt>
      <trkpt lat="43.60785" lon="3.59671">
        <ele>278</ele>
        <time>2020-12-13T08:37:42Z</time>
      </trkpt>
      <trkpt lat="43.60791" lon="3.59686">
        <ele>280</ele>
        <time>2020-12-13T08:37:48Z</time>
      </trkpt>
      <trkpt lat="43.60823" lon="3.59767">
        <ele>281</ele>
        <time>2020-12-13T08:38:16Z</time>
      </trkpt>
      <trkpt lat="43.6083" lon="3.59791">
        <ele>283</ele>
        <time>2020-12-13T08:38:23Z</time>
      </trkpt>
      <trkpt lat="43.60873" lon="3.59889">
        <ele>282</ele>
        <time>2020-12-13T08:38:53Z</time>
      </trkpt>
      <trkpt lat="43.60891" lon="3.59928">
        <ele>280</ele>
        <time>2020-12-13T08:39:02Z</time>
      </trkpt>
      <trkpt lat="43.60897" lon="3.59936">
        <ele>281</ele>
        <time>2020-12-13T08:39:04Z</time>
      </trkpt>
      <trkpt lat="43.60953" lon="3.59997">
        <ele>283</ele>
        <time>2020-12-13T08:39:21Z</time>
      </trkpt>
      <trkpt lat="43.60969" lon="3.60017">
        <ele>283</ele>
        <time>2020-12-13T08:39:26Z</time>
      </trkpt>
      <trkpt lat="43.61025" lon="3.60125">
        <ele>285</ele>
        <time>2020-12-13T08:39:52Z</time>
      </trkpt>
      <trkpt lat="43.61036" lon="3.60166">
        <ele>283</ele>
        <time>2020-12-13T08:40:00Z</time>
      </trkpt>
      <trkpt lat="43.61092" lon="3.60257">
        <ele>282</ele>
        <time>2020-12-13T08:40:22Z</time>
      </trkpt>
      <trkpt lat="43.61162" lon="3.60488">
        <ele>269</ele>
        <time>2020-12-13T08:40:52Z</time>
      </trkpt>
      <trkpt lat="43.61164" lon="3.60509">
        <ele>269</ele>
        <time>2020-12-13T08:40:55Z</time>
      </trkpt>
      <trkpt lat="43.61165" lon="3.60526">
        <ele>271</ele>
        <time>2020-12-13T08:40:58Z</time>
      </trkpt>
      <trkpt lat="43.6116" lon="3.60568">
        <ele>273</ele>
        <time>2020-12-13T08:41:07Z</time>
      </trkpt>
      <trkpt lat="43.61162" lon="3.60582">
        <ele>273</ele>
        <time>2020-12-13T08:41:10Z</time>
      </trkpt>
      <trkpt lat="43.6117" lon="3.60608">
        <ele>275</ele>
        <time>2020-12-13T08:41:16Z</time>
      </trkpt>
      <trkpt lat="43.61184" lon="3.6064">
        <ele>275</ele>
        <time>2020-12-13T08:41:25Z</time>
      </trkpt>
      <trkpt lat="43.61188" lon="3.60647">
        <ele>275</ele>
        <time>2020-12-13T08:41:27Z</time>
      </trkpt>
      <trkpt lat="43.61207" lon="3.60664">
        <ele>279</ele>
        <time>2020-12-13T08:41:36Z</time>
      </trkpt>
      <trkpt lat="43.61249" lon="3.60714">
        <ele>282</ele>
        <time>2020-12-13T08:41:57Z</time>
      </trkpt>
      <trkpt lat="43.6132" lon="3.60795">
        <ele>282</ele>
        <time>2020-12-13T08:42:27Z</time>
      </trkpt>
      <trkpt lat="43.61332" lon="3.60811">
        <ele>282</ele>
        <time>2020-12-13T08:42:32Z</time>
      </trkpt>
      <trkpt lat="43.61346" lon="3.60832">
        <ele>282</ele>
        <time>2020-12-13T08:42:38Z</time>
      </trkpt>
      <trkpt lat="43.61429" lon="3.6091">
        <ele>284</ele>
        <time>2020-12-13T08:43:08Z</time>
      </trkpt>
      <trkpt lat="43.61472" lon="3.60997">
        <ele>279</ele>
        <time>2020-12-13T08:43:25Z</time>
      </trkpt>
      <trkpt lat="43.6155" lon="3.6106">
        <ele>277</ele>
        <time>2020-12-13T08:43:43Z</time>
      </trkpt>
      <trkpt lat="43.61563" lon="3.61068">
        <ele>277</ele>
        <time>2020-12-13T08:43:46Z</time>
      </trkpt>
      <trkpt lat="43.61572" lon="3.6107">
        <ele>278</ele>
        <time>2020-12-13T08:43:48Z</time>
      </trkpt>
      <trkpt lat="43.61576" lon="3.61071">
        <ele>277</ele>
        <time>2020-12-13T08:43:49Z</time>
      </trkpt>
      <trkpt lat="43.6158" lon="3.61069">
        <ele>278</ele>
        <time>2020-12-13T08:43:50Z</time>
      </trkpt>
      <trkpt lat="43.61585" lon="3.61063">
        <ele>279</ele>
        <time>2020-12-13T08:43:52Z</time>
      </trkpt>
      <trkpt lat="43.61591" lon="3.61053">
        <ele>278</ele>
        <time>2020-12-13T08:43:55Z</time>
      </trkpt>
      <trkpt lat="43.61635" lon="3.60947">
        <ele>267</ele>
        <time>2020-12-13T08:44:21Z</time>
      </trkpt>
      <trkpt lat="43.61652" lon="3.60923">
        <ele>261</ele>
        <time>2020-12-13T08:44:27Z</time>
      </trkpt>
      <trkpt lat="43.61667" lon="3.60906">
        <ele>257</ele>
        <time>2020-12-13T08:44:32Z</time>
      </trkpt>
      <trkpt lat="43.6168" lon="3.60902">
        <ele>256</ele>
        <time>2020-12-13T08:44:35Z</time>
      </trkpt>
      <trkpt lat="43.61689" lon="3.60897">
        <ele>260</ele>
        <time>2020-12-13T08:44:37Z</time>
      </trkpt>
      <trkpt lat="43.61692" lon="3.60894">
        <ele>259</ele>
        <time>2020-12-13T08:44:38Z</time>
      </trkpt>
      <trkpt lat="43.61694" lon="3.60892">
        <ele>258</ele>
        <time>2020-12-13T08:44:39Z</time>
      </trkpt>
      <trkpt lat="43.61695" lon="3.60886">
        <ele>256</ele>
        <time>2020-12-13T08:44:41Z</time>
      </trkpt>
      <trkpt lat="43.61695" lon="3.60873">
        <ele>253</ele>
        <time>2020-12-13T08:44:44Z</time>
      </trkpt>
      <trkpt lat="43.61698" lon="3.60859">
        <ele>249</ele>
        <time>2020-12-13T08:44:47Z</time>
      </trkpt>
      <trkpt lat="43.61705" lon="3.60829">
        <ele>245</ele>
        <time>2020-12-13T08:44:52Z</time>
      </trkpt>
      <trkpt lat="43.61709" lon="3.60792">
        <ele>242</ele>
        <time>2020-12-13T08:44:58Z</time>
      </trkpt>
      <trkpt lat="43.6171" lon="3.60779">
        <ele>241</ele>
        <time>2020-12-13T08:45:00Z</time>
      </trkpt>
      <trkpt lat="43.61719" lon="3.60677">
        <ele>224</ele>
        <time>2020-12-13T08:45:14Z</time>
      </trkpt>
      <trkpt lat="43.617" lon="3.60552">
        <ele>213</ele>
        <time>2020-12-13T08:45:28Z</time>
      </trkpt>
      <trkpt lat="43.617" lon="3.6054">
        <ele>212</ele>
        <time>2020-12-13T08:45:30Z</time>
      </trkpt>
      <trkpt lat="43.61701" lon="3.60536">
        <ele>211</ele>
        <time>2020-12-13T08:45:32Z</time>
      </trkpt>
      <trkpt lat="43.61705" lon="3.60532">
        <ele>210</ele>
        <time>2020-12-13T08:45:34Z</time>
      </trkpt>
      <trkpt lat="43.61743" lon="3.60587">
        <ele>217</ele>
        <time>2020-12-13T08:45:52Z</time>
      </trkpt>
      <trkpt lat="43.61795" lon="3.6063">
        <ele>224</ele>
        <time>2020-12-13T08:46:22Z</time>
      </trkpt>
      <trkpt lat="43.61807" lon="3.60642">
        <ele>228</ele>
        <time>2020-12-13T08:46:30Z</time>
      </trkpt>
      <trkpt lat="43.6182" lon="3.60648">
        <ele>231</ele>
        <time>2020-12-13T08:46:38Z</time>
      </trkpt>
      <trkpt lat="43.61836" lon="3.60663">
        <ele>233</ele>
        <time>2020-12-13T08:46:50Z</time>
      </trkpt>
      <trkpt lat="43.6184" lon="3.60665">
        <ele>233</ele>
        <time>2020-12-13T08:46:52Z</time>
      </trkpt>
      <trkpt lat="43.61843" lon="3.60666">
        <ele>234</ele>
        <time>2020-12-13T08:46:54Z</time>
      </trkpt>
      <trkpt lat="43.61857" lon="3.60658">
        <ele>236</ele>
        <time>2020-12-13T08:47:02Z</time>
      </trkpt>
      <trkpt lat="43.61863" lon="3.60653">
        <ele>237</ele>
        <time>2020-12-13T08:47:06Z</time>
      </trkpt>
      <trkpt lat="43.6187" lon="3.60645">
        <ele>237</ele>
        <time>2020-12-13T08:47:10Z</time>
      </trkpt>
      <trkpt lat="43.61874" lon="3.60625">
        <ele>237</ele>
        <time>2020-12-13T08:47:16Z</time>
      </trkpt>
      <trkpt lat="43.61875" lon="3.60612">
        <ele>238</ele>
        <time>2020-12-13T08:47:20Z</time>
      </trkpt>
      <trkpt lat="43.61873" lon="3.60585">
        <ele>237</ele>
        <time>2020-12-13T08:47:30Z</time>
      </trkpt>
      <trkpt lat="43.61868" lon="3.60564">
        <ele>239</ele>
        <time>2020-12-13T08:47:38Z</time>
      </trkpt>
      <trkpt lat="43.61868" lon="3.60549">
        <ele>240</ele>
        <time>2020-12-13T08:47:44Z</time>
      </trkpt>
      <trkpt lat="43.61873" lon="3.60524">
        <ele>243</ele>
        <time>2020-12-13T08:47:52Z</time>
      </trkpt>
      <trkpt lat="43.61874" lon="3.60514">
        <ele>244</ele>
        <time>2020-12-13T08:47:56Z</time>
      </trkpt>
      <trkpt lat="43.61868" lon="3.60499">
        <ele>246</ele>
        <time>2020-12-13T08:48:02Z</time>
      </trkpt>
      <trkpt lat="43.61856" lon="3.60442">
        <ele>248</ele>
        <time>2020-12-13T08:48:24Z</time>
      </trkpt>
      <trkpt lat="43.61853" lon="3.60396">
        <ele>249</ele>
        <time>2020-12-13T08:48:40Z</time>
      </trkpt>
      <trkpt lat="43.61855" lon="3.6038">
        <ele>250</ele>
        <time>2020-12-13T08:48:46Z</time>
      </trkpt>
      <trkpt lat="43.61857" lon="3.60375">
        <ele>250</ele>
        <time>2020-12-13T08:48:48Z</time>
      </trkpt>
      <trkpt lat="43.61858" lon="3.60364">
        <ele>251</ele>
        <time>2020-12-13T08:48:52Z</time>
      </trkpt>
      <trkpt lat="43.61863" lon="3.60348">
        <ele>252</ele>
        <time>2020-12-13T08:48:58Z</time>
      </trkpt>
      <trkpt lat="43.6187" lon="3.60333">
        <ele>255</ele>
        <time>2020-12-13T08:49:04Z</time>
      </trkpt>
      <trkpt lat="43.61875" lon="3.60318">
        <ele>255</ele>
        <time>2020-12-13T08:49:10Z</time>
      </trkpt>
      <trkpt lat="43.61875" lon="3.60298">
        <ele>256</ele>
        <time>2020-12-13T08:49:16Z</time>
      </trkpt>
      <trkpt lat="43.61877" lon="3.60278">
        <ele>258</ele>
        <time>2020-12-13T08:49:22Z</time>
      </trkpt>
      <trkpt lat="43.61882" lon="3.6026">
        <ele>259</ele>
        <time>2020-12-13T08:49:28Z</time>
      </trkpt>
      <trkpt lat="43.61888" lon="3.6022">
        <ele>262</ele>
        <time>2020-12-13T08:49:40Z</time>
      </trkpt>
      <trkpt lat="43.61888" lon="3.6021">
        <ele>262</ele>
        <time>2020-12-13T08:49:43Z</time>
      </trkpt>
      <trkpt lat="43.61895" lon="3.6016">
        <ele>262</ele>
        <time>2020-12-13T08:49:58Z</time>
      </trkpt>
      <trkpt lat="43.61895" lon="3.60136">
        <ele>262</ele>
        <time>2020-12-13T08:50:05Z</time>
      </trkpt>
      <trkpt lat="43.61901" lon="3.60111">
        <ele>265</ele>
        <time>2020-12-13T08:50:13Z</time>
      </trkpt>
      <trkpt lat="43.61902" lon="3.60104">
        <ele>265</ele>
        <time>2020-12-13T08:50:15Z</time>
      </trkpt>
      <trkpt lat="43.61905" lon="3.60085">
        <ele>266</ele>
        <time>2020-12-13T08:50:21Z</time>
      </trkpt>
      <trkpt lat="43.61942" lon="3.6001">
        <ele>266</ele>
        <time>2020-12-13T08:50:44Z</time>
      </trkpt>
      <trkpt lat="43.61946" lon="3.59983">
        <ele>266</ele>
        <time>2020-12-13T08:50:51Z</time>
      </trkpt>
      <trkpt lat="43.6196" lon="3.59961">
        <ele>266</ele>
        <time>2020-12-13T08:50:58Z</time>
      </trkpt>
      <trkpt lat="43.61961" lon="3.59956">
        <ele>265</ele>
        <time>2020-12-13T08:50:59Z</time>
      </trkpt>
      <trkpt lat="43.61961" lon="3.5994">
        <ele>264</ele>
        <time>2020-12-13T08:51:02Z</time>
      </trkpt>
      <trkpt lat="43.61973" lon="3.599">
        <ele>259</ele>
        <time>2020-12-13T08:51:09Z</time>
      </trkpt>
      <trkpt lat="43.61975" lon="3.59887">
        <ele>258</ele>
        <time>2020-12-13T08:51:11Z</time>
      </trkpt>
      <trkpt lat="43.61977" lon="3.59874">
        <ele>258</ele>
        <time>2020-12-13T08:51:13Z</time>
      </trkpt>
      <trkpt lat="43.61982" lon="3.59855">
        <ele>256</ele>
        <time>2020-12-13T08:51:16Z</time>
      </trkpt>
      <trkpt lat="43.61986" lon="3.59846">
        <ele>255</ele>
        <time>2020-12-13T08:51:18Z</time>
      </trkpt>
      <trkpt lat="43.61988" lon="3.59841">
        <ele>254</ele>
        <time>2020-12-13T08:51:19Z</time>
      </trkpt>
      <trkpt lat="43.61984" lon="3.59822">
        <ele>252</ele>
        <time>2020-12-13T08:51:23Z</time>
      </trkpt>
      <trkpt lat="43.61984" lon="3.59813">
        <ele>250</ele>
        <time>2020-12-13T08:51:25Z</time>
      </trkpt>
      <trkpt lat="43.61998" lon="3.59765">
        <ele>247</ele>
        <time>2020-12-13T08:51:33Z</time>
      </trkpt>
      <trkpt lat="43.61999" lon="3.59758">
        <ele>247</ele>
        <time>2020-12-13T08:51:34Z</time>
      </trkpt>
      <trkpt lat="43.61998" lon="3.59745">
        <ele>245</ele>
        <time>2020-12-13T08:51:36Z</time>
      </trkpt>
      <trkpt lat="43.61991" lon="3.59721">
        <ele>245</ele>
        <time>2020-12-13T08:51:40Z</time>
      </trkpt>
      <trkpt lat="43.61984" lon="3.5966">
        <ele>238</ele>
        <time>2020-12-13T08:51:50Z</time>
      </trkpt>
      <trkpt lat="43.61974" lon="3.59632">
        <ele>235</ele>
        <time>2020-12-13T08:51:56Z</time>
      </trkpt>
      <trkpt lat="43.6197" lon="3.59608">
        <ele>232</ele>
        <time>2020-12-13T08:52:00Z</time>
      </trkpt>
      <trkpt lat="43.61957" lon="3.59572">
        <ele>228</ele>
        <time>2020-12-13T08:52:06Z</time>
      </trkpt>
      <trkpt lat="43.61951" lon="3.59545">
        <ele>225</ele>
        <time>2020-12-13T08:52:10Z</time>
      </trkpt>
      <trkpt lat="43.6194" lon="3.5946">
        <ele>220</ele>
        <time>2020-12-13T08:52:23Z</time>
      </trkpt>
      <trkpt lat="43.61937" lon="3.59447">
        <ele>218</ele>
        <time>2020-12-13T08:52:25Z</time>
      </trkpt>
      <trkpt lat="43.61932" lon="3.59362">
        <ele>208</ele>
        <time>2020-12-13T08:52:38Z</time>
      </trkpt>
      <trkpt lat="43.61929" lon="3.5935">
        <ele>207</ele>
        <time>2020-12-13T08:52:40Z</time>
      </trkpt>
      <trkpt lat="43.61929" lon="3.59311">
        <ele>204</ele>
        <time>2020-12-13T08:52:46Z</time>
      </trkpt>
      <trkpt lat="43.61929" lon="3.59301">
        <ele>205</ele>
        <time>2020-12-13T08:54:05Z</time>
      </trkpt>
      <trkpt lat="43.61931" lon="3.59219">
        <ele>203</ele>
        <time>2020-12-13T08:54:35Z</time>
      </trkpt>
      <trkpt lat="43.61929" lon="3.59185">
        <ele>202</ele>
        <time>2020-12-13T08:54:42Z</time>
      </trkpt>
      <trkpt lat="43.61934" lon="3.59161">
        <ele>202</ele>
        <time>2020-12-13T08:54:47Z</time>
      </trkpt>
      <trkpt lat="43.61939" lon="3.59135">
        <ele>205</ele>
        <time>2020-12-13T08:54:52Z</time>
      </trkpt>
      <trkpt lat="43.61939" lon="3.59125">
        <ele>205</ele>
        <time>2020-12-13T08:54:54Z</time>
      </trkpt>
      <trkpt lat="43.61928" lon="3.59078">
        <ele>202</ele>
        <time>2020-12-13T08:55:03Z</time>
      </trkpt>
      <trkpt lat="43.61932" lon="3.59065">
        <ele>203</ele>
        <time>2020-12-13T08:55:06Z</time>
      </trkpt>
      <trkpt lat="43.61935" lon="3.59057">
        <ele>204</ele>
        <time>2020-12-13T08:55:08Z</time>
      </trkpt>
      <trkpt lat="43.61938" lon="3.59053">
        <ele>204</ele>
        <time>2020-12-13T08:55:09Z</time>
      </trkpt>
      <trkpt lat="43.61941" lon="3.59051">
        <ele>204</ele>
        <time>2020-12-13T08:55:10Z</time>
      </trkpt>
      <trkpt lat="43.62061" lon="3.59021">
        <ele>201</ele>
        <time>2020-12-13T08:55:38Z</time>
      </trkpt>
      <trkpt lat="43.62073" lon="3.59009">
        <ele>198</ele>
        <time>2020-12-13T08:55:42Z</time>
      </trkpt>
      <trkpt lat="43.62078" lon="3.59002">
        <ele>196</ele>
        <time>2020-12-13T08:55:44Z</time>
      </trkpt>
      <trkpt lat="43.62087" lon="3.58959">
        <ele>190</ele>
        <time>2020-12-13T08:55:51Z</time>
      </trkpt>
      <trkpt lat="43.62093" lon="3.58944">
        <ele>189</ele>
        <time>2020-12-13T08:55:53Z</time>
      </trkpt>
      <trkpt lat="43.62105" lon="3.58926">
        <ele>188</ele>
        <time>2020-12-13T08:55:57Z</time>
      </trkpt>
      <trkpt lat="43.62191" lon="3.58857">
        <ele>173</ele>
        <time>2020-12-13T08:56:22Z</time>
      </trkpt>
      <trkpt lat="43.622" lon="3.58841">
        <ele>170</ele>
        <time>2020-12-13T08:56:26Z</time>
      </trkpt>
      <trkpt lat="43.62206" lon="3.58829">
        <ele>166</ele>
        <time>2020-12-13T08:56:29Z</time>
      </trkpt>
      <trkpt lat="43.62211" lon="3.58822">
        <ele>165</ele>
        <time>2020-12-13T08:56:32Z</time>
      </trkpt>
      <trkpt lat="43.62215" lon="3.58821">
        <ele>165</ele>
        <time>2020-12-13T08:56:34Z</time>
      </trkpt>
      <trkpt lat="43.62218" lon="3.58823">
        <ele>165</ele>
        <time>2020-12-13T08:56:35Z</time>
      </trkpt>
      <trkpt lat="43.62219" lon="3.58827">
        <ele>165</ele>
        <time>2020-12-13T08:56:36Z</time>
      </trkpt>
      <trkpt lat="43.6222" lon="3.58831">
        <ele>164</ele>
        <time>2020-12-13T08:56:37Z</time>
      </trkpt>
      <trkpt lat="43.62216" lon="3.5884">
        <ele>164</ele>
        <time>2020-12-13T08:56:39Z</time>
      </trkpt>
      <trkpt lat="43.62213" lon="3.58853">
        <ele>164</ele>
        <time>2020-12-13T08:56:41Z</time>
      </trkpt>
      <trkpt lat="43.62216" lon="3.58867">
        <ele>164</ele>
        <time>2020-12-13T08:56:43Z</time>
      </trkpt>
      <trkpt lat="43.62243" lon="3.58967">
        <ele>174</ele>
        <time>2020-12-13T08:57:13Z</time>
      </trkpt>
      <trkpt lat="43.62245" lon="3.5898">
        <ele>174</ele>
        <time>2020-12-13T08:57:17Z</time>
      </trkpt>
      <trkpt lat="43.62246" lon="3.58987">
        <ele>175</ele>
        <time>2020-12-13T08:57:19Z</time>
      </trkpt>
      <trkpt lat="43.62243" lon="3.59003">
        <ele>175</ele>
        <time>2020-12-13T08:57:24Z</time>
      </trkpt>
      <trkpt lat="43.622" lon="3.59057">
        <ele>174</ele>
        <time>2020-12-13T08:57:35Z</time>
      </trkpt>
      <trkpt lat="43.62143" lon="3.59117">
        <ele>173</ele>
        <time>2020-12-13T08:57:53Z</time>
      </trkpt>
      <trkpt lat="43.62123" lon="3.59152">
        <ele>171</ele>
        <time>2020-12-13T08:58:00Z</time>
      </trkpt>
      <trkpt lat="43.62118" lon="3.59169">
        <ele>171</ele>
        <time>2020-12-13T08:58:03Z</time>
      </trkpt>
      <trkpt lat="43.62117" lon="3.5918">
        <ele>172</ele>
        <time>2020-12-13T08:58:05Z</time>
      </trkpt>
      <trkpt lat="43.62115" lon="3.59191">
        <ele>172</ele>
        <time>2020-12-13T08:58:07Z</time>
      </trkpt>
      <trkpt lat="43.62115" lon="3.59199">
        <ele>171</ele>
        <time>2020-12-13T08:58:10Z</time>
      </trkpt>
      <trkpt lat="43.62116" lon="3.59204">
        <ele>171</ele>
        <time>2020-12-13T08:58:19Z</time>
      </trkpt>
      <trkpt lat="43.62119" lon="3.59202">
        <ele>171</ele>
        <time>2020-12-13T08:59:01Z</time>
      </trkpt>
      <trkpt lat="43.62151" lon="3.592">
        <ele>170</ele>
        <time>2020-12-13T08:59:12Z</time>
      </trkpt>
      <trkpt lat="43.62166" lon="3.59204">
        <ele>170</ele>
        <time>2020-12-13T08:59:16Z</time>
      </trkpt>
      <trkpt lat="43.62188" lon="3.59218">
        <ele>170</ele>
        <time>2020-12-13T08:59:23Z</time>
      </trkpt>
      <trkpt lat="43.62194" lon="3.59224">
        <ele>170</ele>
        <time>2020-12-13T08:59:25Z</time>
      </trkpt>
      <trkpt lat="43.62201" lon="3.59235">
        <ele>171</ele>
        <time>2020-12-13T08:59:27Z</time>
      </trkpt>
      <trkpt lat="43.62205" lon="3.59247">
        <ele>171</ele>
        <time>2020-12-13T08:59:29Z</time>
      </trkpt>
      <trkpt lat="43.62209" lon="3.59268">
        <ele>171</ele>
        <time>2020-12-13T08:59:32Z</time>
      </trkpt>
      <trkpt lat="43.62245" lon="3.59359">
        <ele>170</ele>
        <time>2020-12-13T08:59:47Z</time>
      </trkpt>
      <trkpt lat="43.62259" lon="3.59543">
        <ele>166</ele>
        <time>2020-12-13T09:00:10Z</time>
      </trkpt>
      <trkpt lat="43.62256" lon="3.59616">
        <ele>167</ele>
        <time>2020-12-13T09:00:19Z</time>
      </trkpt>
      <trkpt lat="43.62245" lon="3.59692">
        <ele>165</ele>
        <time>2020-12-13T09:00:29Z</time>
      </trkpt>
      <trkpt lat="43.62246" lon="3.59722">
        <ele>165</ele>
        <time>2020-12-13T09:00:33Z</time>
      </trkpt>
      <trkpt lat="43.62239" lon="3.59762">
        <ele>166</ele>
        <time>2020-12-13T09:00:38Z</time>
      </trkpt>
      <trkpt lat="43.62234" lon="3.59775">
        <ele>166</ele>
        <time>2020-12-13T09:00:40Z</time>
      </trkpt>
      <trkpt lat="43.62229" lon="3.59784">
        <ele>165</ele>
        <time>2020-12-13T09:00:42Z</time>
      </trkpt>
      <trkpt lat="43.62227" lon="3.59789">
        <ele>165</ele>
        <time>2020-12-13T09:00:43Z</time>
      </trkpt>
      <trkpt lat="43.62224" lon="3.59799">
        <ele>166</ele>
        <time>2020-12-13T09:00:45Z</time>
      </trkpt>
      <trkpt lat="43.62227" lon="3.59809">
        <ele>165</ele>
        <time>2020-12-13T09:00:47Z</time>
      </trkpt>
      <trkpt lat="43.62229" lon="3.59812">
        <ele>164</ele>
        <time>2020-12-13T09:00:48Z</time>
      </trkpt>
      <trkpt lat="43.62232" lon="3.59815">
        <ele>164</ele>
        <time>2020-12-13T09:00:49Z</time>
      </trkpt>
      <trkpt lat="43.62235" lon="3.59813">
        <ele>163</ele>
        <time>2020-12-13T09:00:50Z</time>
      </trkpt>
      <trkpt lat="43.62236" lon="3.59809">
        <ele>162</ele>
        <time>2020-12-13T09:00:51Z</time>
      </trkpt>
      <trkpt lat="43.62236" lon="3.59799">
        <ele>161</ele>
        <time>2020-12-13T09:00:53Z</time>
      </trkpt>
      <trkpt lat="43.62237" lon="3.59792">
        <ele>161</ele>
        <time>2020-12-13T09:00:54Z</time>
      </trkpt>
      <trkpt lat="43.62239" lon="3.59786">
        <ele>161</ele>
        <time>2020-12-13T09:00:55Z</time>
      </trkpt>
      <trkpt lat="43.62247" lon="3.59772">
        <ele>162</ele>
        <time>2020-12-13T09:00:57Z</time>
      </trkpt>
      <trkpt lat="43.62254" lon="3.59761">
        <ele>161</ele>
        <time>2020-12-13T09:00:59Z</time>
      </trkpt>
      <trkpt lat="43.62261" lon="3.59744">
        <ele>158</ele>
        <time>2020-12-13T09:01:02Z</time>
      </trkpt>
      <trkpt lat="43.62303" lon="3.59534">
        <ele>155</ele>
        <time>2020-12-13T09:01:31Z</time>
      </trkpt>
      <trkpt lat="43.62311" lon="3.59327">
        <ele>144</ele>
        <time>2020-12-13T09:01:54Z</time>
      </trkpt>
      <trkpt lat="43.62309" lon="3.59308">
        <ele>143</ele>
        <time>2020-12-13T09:01:56Z</time>
      </trkpt>
      <trkpt lat="43.62302" lon="3.59283">
        <ele>142</ele>
        <time>2020-12-13T09:01:59Z</time>
      </trkpt>
      <trkpt lat="43.62302" lon="3.59252">
        <ele>140</ele>
        <time>2020-12-13T09:02:02Z</time>
      </trkpt>
      <trkpt lat="43.62308" lon="3.5919">
        <ele>140</ele>
        <time>2020-12-13T09:02:10Z</time>
      </trkpt>
      <trkpt lat="43.62309" lon="3.59185">
        <ele>140</ele>
        <time>2020-12-13T09:02:11Z</time>
      </trkpt>
      <trkpt lat="43.62311" lon="3.59182">
        <ele>140</ele>
        <time>2020-12-13T09:02:12Z</time>
      </trkpt>
      <trkpt lat="43.62314" lon="3.59178">
        <ele>140</ele>
        <time>2020-12-13T09:02:14Z</time>
      </trkpt>
      <trkpt lat="43.62317" lon="3.59178">
        <ele>140</ele>
        <time>2020-12-13T09:02:15Z</time>
      </trkpt>
      <trkpt lat="43.6232" lon="3.59179">
        <ele>140</ele>
        <time>2020-12-13T09:02:16Z</time>
      </trkpt>
      <trkpt lat="43.62322" lon="3.59187">
        <ele>140</ele>
        <time>2020-12-13T09:02:18Z</time>
      </trkpt>
      <trkpt lat="43.62328" lon="3.59209">
        <ele>140</ele>
        <time>2020-12-13T09:02:22Z</time>
      </trkpt>
      <trkpt lat="43.62333" lon="3.59221">
        <ele>140</ele>
        <time>2020-12-13T09:02:24Z</time>
      </trkpt>
      <trkpt lat="43.6234" lon="3.59231">
        <ele>139</ele>
        <time>2020-12-13T09:02:26Z</time>
      </trkpt>
      <trkpt lat="43.62351" lon="3.5924">
        <ele>138</ele>
        <time>2020-12-13T09:02:28Z</time>
      </trkpt>
      <trkpt lat="43.6246" lon="3.5928">
        <ele>130</ele>
        <time>2020-12-13T09:02:44Z</time>
      </trkpt>
      <trkpt lat="43.62662" lon="3.59292">
        <ele>122</ele>
        <time>2020-12-13T09:03:11Z</time>
      </trkpt>
      <trkpt lat="43.62668" lon="3.59288">
        <ele>121</ele>
        <time>2020-12-13T09:03:12Z</time>
      </trkpt>
      <trkpt lat="43.62739" lon="3.59222">
        <ele>118</ele>
        <time>2020-12-13T09:03:26Z</time>
      </trkpt>
      <trkpt lat="43.62744" lon="3.5922">
        <ele>118</ele>
        <time>2020-12-13T09:03:27Z</time>
      </trkpt>
      <trkpt lat="43.62748" lon="3.5922">
        <ele>118</ele>
        <time>2020-12-13T09:03:28Z</time>
      </trkpt>
      <trkpt lat="43.62756" lon="3.59225">
        <ele>117</ele>
        <time>2020-12-13T09:03:30Z</time>
      </trkpt>
      <trkpt lat="43.62764" lon="3.59227">
        <ele>117</ele>
        <time>2020-12-13T09:03:32Z</time>
      </trkpt>
      <trkpt lat="43.62768" lon="3.59225">
        <ele>117</ele>
        <time>2020-12-13T09:03:33Z</time>
      </trkpt>
      <trkpt lat="43.62775" lon="3.59219">
        <ele>117</ele>
        <time>2020-12-13T09:03:35Z</time>
      </trkpt>
      <trkpt lat="43.62847" lon="3.59122">
        <ele>116</ele>
        <time>2020-12-13T09:04:05Z</time>
      </trkpt>
      <trkpt lat="43.62923" lon="3.59">
        <ele>118</ele>
        <time>2020-12-13T09:04:35Z</time>
      </trkpt>
      <trkpt lat="43.62941" lon="3.58971">
        <ele>120</ele>
        <time>2020-12-13T09:04:42Z</time>
      </trkpt>
      <trkpt lat="43.62943" lon="3.58966">
        <ele>119</ele>
        <time>2020-12-13T09:04:43Z</time>
      </trkpt>
      <trkpt lat="43.62974" lon="3.58819">
        <ele>114</ele>
        <time>2020-12-13T09:05:06Z</time>
      </trkpt>
      <trkpt lat="43.62978" lon="3.5881">
        <ele>114</ele>
        <time>2020-12-13T09:05:08Z</time>
      </trkpt>
      <trkpt lat="43.62986" lon="3.58803">
        <ele>113</ele>
        <time>2020-12-13T09:05:11Z</time>
      </trkpt>
      <trkpt lat="43.63006" lon="3.58792">
        <ele>112</ele>
        <time>2020-12-13T09:05:17Z</time>
      </trkpt>
      <trkpt lat="43.63025" lon="3.58769">
        <ele>113</ele>
        <time>2020-12-13T09:05:26Z</time>
      </trkpt>
      <trkpt lat="43.63059" lon="3.58745">
        <ele>114</ele>
        <time>2020-12-13T09:05:38Z</time>
      </trkpt>
      <trkpt lat="43.6307" lon="3.58734">
        <ele>114</ele>
        <time>2020-12-13T09:05:43Z</time>
      </trkpt>
      <trkpt lat="43.6308" lon="3.58729">
        <ele>115</ele>
        <time>2020-12-13T09:05:46Z</time>
      </trkpt>
      <trkpt lat="43.63178" lon="3.58694">
        <ele>119</ele>
        <time>2020-12-13T09:06:16Z</time>
      </trkpt>
      <trkpt lat="43.63187" lon="3.58686">
        <ele>118</ele>
        <time>2020-12-13T09:06:19Z</time>
      </trkpt>
      <trkpt lat="43.63231" lon="3.58645">
        <ele>120</ele>
        <time>2020-12-13T09:06:33Z</time>
      </trkpt>
      <trkpt lat="43.63236" lon="3.58642">
        <ele>120</ele>
        <time>2020-12-13T09:06:35Z</time>
      </trkpt>
      <trkpt lat="43.6324" lon="3.58645">
        <ele>120</ele>
        <time>2020-12-13T09:06:37Z</time>
      </trkpt>
      <trkpt lat="43.63241" lon="3.58651">
        <ele>120</ele>
        <time>2020-12-13T09:06:39Z</time>
      </trkpt>
      <trkpt lat="43.6324" lon="3.58655">
        <ele>120</ele>
        <time>2020-12-13T09:06:40Z</time>
      </trkpt>
      <trkpt lat="43.63229" lon="3.58675">
        <ele>120</ele>
        <time>2020-12-13T09:06:46Z</time>
      </trkpt>
      <trkpt lat="43.63228" lon="3.58683">
        <ele>120</ele>
        <time>2020-12-13T09:06:48Z</time>
      </trkpt>
      <trkpt lat="43.63231" lon="3.58701">
        <ele>121</ele>
        <time>2020-12-13T09:06:53Z</time>
      </trkpt>
      <trkpt lat="43.63236" lon="3.58713">
        <ele>121</ele>
        <time>2020-12-13T09:06:56Z</time>
      </trkpt>
      <trkpt lat="43.6324" lon="3.5872">
        <ele>122</ele>
        <time>2020-12-13T09:06:58Z</time>
      </trkpt>
      <trkpt lat="43.6327" lon="3.5875">
        <ele>125</ele>
        <time>2020-12-13T09:07:09Z</time>
      </trkpt>
      <trkpt lat="43.63281" lon="3.58762">
        <ele>107</ele>
        <time>2020-12-13T09:07:13Z</time>
      </trkpt>
      <trkpt lat="43.63295" lon="3.58784">
        <ele>127</ele>
        <time>2020-12-13T09:07:20Z</time>
      </trkpt>
      <trkpt lat="43.63304" lon="3.58791">
        <ele>129</ele>
        <time>2020-12-13T09:07:24Z</time>
      </trkpt>
      <trkpt lat="43.63315" lon="3.58792">
        <ele>130</ele>
        <time>2020-12-13T09:07:28Z</time>
      </trkpt>
      <trkpt lat="43.63321" lon="3.58791">
        <ele>130</ele>
        <time>2020-12-13T09:07:30Z</time>
      </trkpt>
      <trkpt lat="43.6333" lon="3.58786">
        <ele>130</ele>
        <time>2020-12-13T09:07:33Z</time>
      </trkpt>
      <trkpt lat="43.63345" lon="3.58769">
        <ele>128</ele>
        <time>2020-12-13T09:07:39Z</time>
      </trkpt>
      <trkpt lat="43.6335" lon="3.58768">
        <ele>128</ele>
        <time>2020-12-13T09:07:41Z</time>
      </trkpt>
      <trkpt lat="43.63354" lon="3.58772">
        <ele>127</ele>
        <time>2020-12-13T09:07:43Z</time>
      </trkpt>
      <trkpt lat="43.63358" lon="3.58779">
        <ele>128</ele>
        <time>2020-12-13T09:07:45Z</time>
      </trkpt>
      <trkpt lat="43.63384" lon="3.58918">
        <ele>127</ele>
        <time>2020-12-13T09:08:15Z</time>
      </trkpt>
      <trkpt lat="43.63406" lon="3.58981">
        <ele>127</ele>
        <time>2020-12-13T09:08:29Z</time>
      </trkpt>
      <trkpt lat="43.63409" lon="3.59008">
        <ele>127</ele>
        <time>2020-12-13T09:08:34Z</time>
      </trkpt>
      <trkpt lat="43.63411" lon="3.5905">
        <ele>128</ele>
        <time>2020-12-13T09:08:42Z</time>
      </trkpt>
      <trkpt lat="43.63419" lon="3.59093">
        <ele>129</ele>
        <time>2020-12-13T09:08:52Z</time>
      </trkpt>
      <trkpt lat="43.63415" lon="3.59145">
        <ele>133</ele>
        <time>2020-12-13T09:09:08Z</time>
      </trkpt>
      <trkpt lat="43.634" lon="3.59173">
        <ele>137</ele>
        <time>2020-12-13T09:09:20Z</time>
      </trkpt>
      <trkpt lat="43.63379" lon="3.59249">
        <ele>146</ele>
        <time>2020-12-13T09:09:50Z</time>
      </trkpt>
      <trkpt lat="43.6337" lon="3.59279">
        <ele>151</ele>
        <time>2020-12-13T09:10:02Z</time>
      </trkpt>
      <trkpt lat="43.63363" lon="3.59334">
        <ele>154</ele>
        <time>2020-12-13T09:10:24Z</time>
      </trkpt>
      <trkpt lat="43.63354" lon="3.59376">
        <ele>157</ele>
        <time>2020-12-13T09:10:38Z</time>
      </trkpt>
      <trkpt lat="43.63354" lon="3.59389">
        <ele>157</ele>
        <time>2020-12-13T09:10:42Z</time>
      </trkpt>
      <trkpt lat="43.63353" lon="3.59395">
        <ele>157</ele>
        <time>2020-12-13T09:10:44Z</time>
      </trkpt>
      <trkpt lat="43.63348" lon="3.59439">
        <ele>159</ele>
        <time>2020-12-13T09:10:58Z</time>
      </trkpt>
      <trkpt lat="43.63345" lon="3.59451">
        <ele>160</ele>
        <time>2020-12-13T09:11:02Z</time>
      </trkpt>
      <trkpt lat="43.63331" lon="3.59467">
        <ele>161</ele>
        <time>2020-12-13T09:11:10Z</time>
      </trkpt>
      <trkpt lat="43.63325" lon="3.59477">
        <ele>161</ele>
        <time>2020-12-13T09:11:14Z</time>
      </trkpt>
      <trkpt lat="43.63317" lon="3.595">
        <ele>163</ele>
        <time>2020-12-13T09:11:22Z</time>
      </trkpt>
      <trkpt lat="43.63305" lon="3.59563">
        <ele>165</ele>
        <time>2020-12-13T09:11:42Z</time>
      </trkpt>
      <trkpt lat="43.633" lon="3.59621">
        <ele>170</ele>
        <time>2020-12-13T09:12:02Z</time>
      </trkpt>
      <trkpt lat="43.63296" lon="3.59636">
        <ele>171</ele>
        <time>2020-12-13T09:12:08Z</time>
      </trkpt>
      <trkpt lat="43.63295" lon="3.59641">
        <ele>172</ele>
        <time>2020-12-13T09:12:10Z</time>
      </trkpt>
      <trkpt lat="43.63291" lon="3.59651">
        <ele>174</ele>
        <time>2020-12-13T09:12:14Z</time>
      </trkpt>
      <trkpt lat="43.6327" lon="3.59695">
        <ele>178</ele>
        <time>2020-12-13T09:12:32Z</time>
      </trkpt>
      <trkpt lat="43.63261" lon="3.59726">
        <ele>180</ele>
        <time>2020-12-13T09:12:44Z</time>
      </trkpt>
      <trkpt lat="43.63259" lon="3.59731">
        <ele>180</ele>
        <time>2020-12-13T09:12:46Z</time>
      </trkpt>
      <trkpt lat="43.63212" lon="3.59774">
        <ele>187</ele>
        <time>2020-12-13T09:13:16Z</time>
      </trkpt>
      <trkpt lat="43.6321" lon="3.59777">
        <ele>188</ele>
        <time>2020-12-13T09:13:18Z</time>
      </trkpt>
      <trkpt lat="43.6319" lon="3.598">
        <ele>193</ele>
        <time>2020-12-13T09:13:30Z</time>
      </trkpt>
      <trkpt lat="43.63187" lon="3.59803">
        <ele>193</ele>
        <time>2020-12-13T09:13:32Z</time>
      </trkpt>
      <trkpt lat="43.63141" lon="3.59851">
        <ele>203</ele>
        <time>2020-12-13T09:14:02Z</time>
      </trkpt>
      <trkpt lat="43.63134" lon="3.59865">
        <ele>204</ele>
        <time>2020-12-13T09:14:08Z</time>
      </trkpt>
      <trkpt lat="43.63128" lon="3.59885">
        <ele>205</ele>
        <time>2020-12-13T09:14:16Z</time>
      </trkpt>
      <trkpt lat="43.63111" lon="3.59916">
        <ele>209</ele>
        <time>2020-12-13T09:14:30Z</time>
      </trkpt>
      <trkpt lat="43.63107" lon="3.59935">
        <ele>211</ele>
        <time>2020-12-13T09:14:38Z</time>
      </trkpt>
      <trkpt lat="43.63106" lon="3.59946">
        <ele>211</ele>
        <time>2020-12-13T09:14:42Z</time>
      </trkpt>
      <trkpt lat="43.63108" lon="3.5997">
        <ele>215</ele>
        <time>2020-12-13T09:14:50Z</time>
      </trkpt>
      <trkpt lat="43.63102" lon="3.60034">
        <ele>218</ele>
        <time>2020-12-13T09:15:12Z</time>
      </trkpt>
      <trkpt lat="43.631" lon="3.60057">
        <ele>218</ele>
        <time>2020-12-13T09:15:20Z</time>
      </trkpt>
      <trkpt lat="43.63097" lon="3.60095">
        <ele>219</ele>
        <time>2020-12-13T09:15:34Z</time>
      </trkpt>
      <trkpt lat="43.63106" lon="3.60174">
        <ele>222</ele>
        <time>2020-12-13T09:16:00Z</time>
      </trkpt>
      <trkpt lat="43.63103" lon="3.60197">
        <ele>224</ele>
        <time>2020-12-13T09:16:08Z</time>
      </trkpt>
      <trkpt lat="43.63099" lon="3.60207">
        <ele>225</ele>
        <time>2020-12-13T09:16:12Z</time>
      </trkpt>
      <trkpt lat="43.63084" lon="3.60293">
        <ele>227</ele>
        <time>2020-12-13T09:16:42Z</time>
      </trkpt>
      <trkpt lat="43.63074" lon="3.60356">
        <ele>232</ele>
        <time>2020-12-13T09:17:02Z</time>
      </trkpt>
      <trkpt lat="43.63068" lon="3.60414">
        <ele>233</ele>
        <time>2020-12-13T09:17:20Z</time>
      </trkpt>
      <trkpt lat="43.63062" lon="3.60465">
        <ele>236</ele>
        <time>2020-12-13T09:17:36Z</time>
      </trkpt>
      <trkpt lat="43.63059" lon="3.60523">
        <ele>238</ele>
        <time>2020-12-13T09:17:54Z</time>
      </trkpt>
      <trkpt lat="43.63057" lon="3.60534">
        <ele>240</ele>
        <time>2020-12-13T09:17:58Z</time>
      </trkpt>
      <trkpt lat="43.63057" lon="3.60538">
        <ele>241</ele>
        <time>2020-12-13T09:21:22Z</time>
      </trkpt>
      <trkpt lat="43.63052" lon="3.60582">
        <ele>242</ele>
        <time>2020-12-13T09:21:36Z</time>
      </trkpt>
      <trkpt lat="43.63051" lon="3.60589">
        <ele>243</ele>
        <time>2020-12-13T09:21:38Z</time>
      </trkpt>
      <trkpt lat="43.63046" lon="3.60628">
        <ele>241</ele>
        <time>2020-12-13T09:21:48Z</time>
      </trkpt>
      <trkpt lat="43.63041" lon="3.60641">
        <ele>240</ele>
        <time>2020-12-13T09:21:51Z</time>
      </trkpt>
      <trkpt lat="43.63031" lon="3.60655">
        <ele>238</ele>
        <time>2020-12-13T09:21:55Z</time>
      </trkpt>
      <trkpt lat="43.63" lon="3.60689">
        <ele>239</ele>
        <time>2020-12-13T09:22:09Z</time>
      </trkpt>
      <trkpt lat="43.62993" lon="3.60701">
        <ele>239</ele>
        <time>2020-12-13T09:22:13Z</time>
      </trkpt>
      <trkpt lat="43.6299" lon="3.60707">
        <ele>239</ele>
        <time>2020-12-13T09:22:15Z</time>
      </trkpt>
      <trkpt lat="43.62974" lon="3.60719">
        <ele>239</ele>
        <time>2020-12-13T09:22:21Z</time>
      </trkpt>
      <trkpt lat="43.62966" lon="3.60728">
        <ele>240</ele>
        <time>2020-12-13T09:22:25Z</time>
      </trkpt>
      <trkpt lat="43.62956" lon="3.60756">
        <ele>239</ele>
        <time>2020-12-13T09:22:32Z</time>
      </trkpt>
      <trkpt lat="43.62935" lon="3.60896">
        <ele>235</ele>
        <time>2020-12-13T09:22:53Z</time>
      </trkpt>
      <trkpt lat="43.62937" lon="3.60968">
        <ele>233</ele>
        <time>2020-12-13T09:23:04Z</time>
      </trkpt>
      <trkpt lat="43.62939" lon="3.60975">
        <ele>232</ele>
        <time>2020-12-13T09:23:05Z</time>
      </trkpt>
      <trkpt lat="43.62946" lon="3.60991">
        <ele>230</ele>
        <time>2020-12-13T09:23:08Z</time>
      </trkpt>
      <trkpt lat="43.62989" lon="3.61019">
        <ele>230</ele>
        <time>2020-12-13T09:23:24Z</time>
      </trkpt>
      <trkpt lat="43.63017" lon="3.61026">
        <ele>238</ele>
        <time>2020-12-13T09:23:38Z</time>
      </trkpt>
      <trkpt lat="43.6302" lon="3.61027">
        <ele>239</ele>
        <time>2020-12-13T09:23:40Z</time>
      </trkpt>
      <trkpt lat="43.63023" lon="3.61028">
        <ele>240</ele>
        <time>2020-12-13T09:23:42Z</time>
      </trkpt>
      <trkpt lat="43.63032" lon="3.61033">
        <ele>242</ele>
        <time>2020-12-13T09:23:48Z</time>
      </trkpt>
      <trkpt lat="43.63044" lon="3.6104">
        <ele>247</ele>
        <time>2020-12-13T09:24:08Z</time>
      </trkpt>
      <trkpt lat="43.63051" lon="3.61044">
        <ele>249</ele>
        <time>2020-12-13T09:24:12Z</time>
      </trkpt>
      <trkpt lat="43.63054" lon="3.61046">
        <ele>250</ele>
        <time>2020-12-13T09:24:14Z</time>
      </trkpt>
      <trkpt lat="43.63068" lon="3.61053">
        <ele>254</ele>
        <time>2020-12-13T09:24:22Z</time>
      </trkpt>
      <trkpt lat="43.63072" lon="3.61055">
        <ele>255</ele>
        <time>2020-12-13T09:24:24Z</time>
      </trkpt>
      <trkpt lat="43.63075" lon="3.61057">
        <ele>256</ele>
        <time>2020-12-13T09:24:27Z</time>
      </trkpt>
      <trkpt lat="43.63081" lon="3.61061">
        <ele>257</ele>
        <time>2020-12-13T09:24:32Z</time>
      </trkpt>
      <trkpt lat="43.63086" lon="3.61074">
        <ele>259</ele>
        <time>2020-12-13T09:24:40Z</time>
      </trkpt>
      <trkpt lat="43.63091" lon="3.61147">
        <ele>266</ele>
        <time>2020-12-13T09:25:10Z</time>
      </trkpt>
      <trkpt lat="43.63096" lon="3.61232">
        <ele>264</ele>
        <time>2020-12-13T09:25:40Z</time>
      </trkpt>
      <trkpt lat="43.63097" lon="3.61248">
        <ele>265</ele>
        <time>2020-12-13T09:25:46Z</time>
      </trkpt>
      <trkpt lat="43.63098" lon="3.61253">
        <ele>265</ele>
        <time>2020-12-13T09:25:48Z</time>
      </trkpt>
      <trkpt lat="43.63103" lon="3.61333">
        <ele>272</ele>
        <time>2020-12-13T09:26:18Z</time>
      </trkpt>
      <trkpt lat="43.63111" lon="3.61418">
        <ele>277</ele>
        <time>2020-12-13T09:26:48Z</time>
      </trkpt>
      <trkpt lat="43.63116" lon="3.61462">
        <ele>278</ele>
        <time>2020-12-13T09:27:01Z</time>
      </trkpt>
      <trkpt lat="43.63117" lon="3.61492">
        <ele>279</ele>
        <time>2020-12-13T09:27:09Z</time>
      </trkpt>
      <trkpt lat="43.63117" lon="3.61496">
        <ele>279</ele>
        <time>2020-12-13T09:27:10Z</time>
      </trkpt>
      <trkpt lat="43.63076" lon="3.61577">
        <ele>278</ele>
        <time>2020-12-13T09:27:38Z</time>
      </trkpt>
      <trkpt lat="43.63027" lon="3.61628">
        <ele>278</ele>
        <time>2020-12-13T09:28:01Z</time>
      </trkpt>
      <trkpt lat="43.63016" lon="3.61638">
        <ele>277</ele>
        <time>2020-12-13T09:28:06Z</time>
      </trkpt>
      <trkpt lat="43.63012" lon="3.61642">
        <ele>276</ele>
        <time>2020-12-13T09:28:08Z</time>
      </trkpt>
      <trkpt lat="43.63011" lon="3.61646">
        <ele>276</ele>
        <time>2020-12-13T09:28:19Z</time>
      </trkpt>
      <trkpt lat="43.63011" lon="3.61649">
        <ele>276</ele>
        <time>2020-12-13T09:28:53Z</time>
      </trkpt>
      <trkpt lat="43.6301" lon="3.61653">
        <ele>278</ele>
        <time>2020-12-13T09:30:54Z</time>
      </trkpt>
      <trkpt lat="43.63013" lon="3.61663">
        <ele>277</ele>
        <time>2020-12-13T09:30:58Z</time>
      </trkpt>
      <trkpt lat="43.63018" lon="3.61684">
        <ele>278</ele>
        <time>2020-12-13T09:31:04Z</time>
      </trkpt>
      <trkpt lat="43.63017" lon="3.61725">
        <ele>278</ele>
        <time>2020-12-13T09:31:12Z</time>
      </trkpt>
      <trkpt lat="43.63018" lon="3.61729">
        <ele>277</ele>
        <time>2020-12-13T09:31:13Z</time>
      </trkpt>
      <trkpt lat="43.6302" lon="3.61732">
        <ele>277</ele>
        <time>2020-12-13T09:31:14Z</time>
      </trkpt>
      <trkpt lat="43.63023" lon="3.61733">
        <ele>278</ele>
        <time>2020-12-13T09:31:15Z</time>
      </trkpt>
      <trkpt lat="43.63042" lon="3.61731">
        <ele>278</ele>
        <time>2020-12-13T09:31:20Z</time>
      </trkpt>
      <trkpt lat="43.63081" lon="3.61726">
        <ele>277</ele>
        <time>2020-12-13T09:31:29Z</time>
      </trkpt>
      <trkpt lat="43.631" lon="3.61731">
        <ele>273</ele>
        <time>2020-12-13T09:31:33Z</time>
      </trkpt>
      <trkpt lat="43.63116" lon="3.61743">
        <ele>273</ele>
        <time>2020-12-13T09:31:36Z</time>
      </trkpt>
      <trkpt lat="43.63201" lon="3.61846">
        <ele>264</ele>
        <time>2020-12-13T09:31:55Z</time>
      </trkpt>
      <trkpt lat="43.63211" lon="3.61869">
        <ele>263</ele>
        <time>2020-12-13T09:31:59Z</time>
      </trkpt>
      <trkpt lat="43.63223" lon="3.61912">
        <ele>262</ele>
        <time>2020-12-13T09:32:05Z</time>
      </trkpt>
      <trkpt lat="43.63224" lon="3.61917">
        <ele>262</ele>
        <time>2020-12-13T09:32:06Z</time>
      </trkpt>
      <trkpt lat="43.63227" lon="3.6192">
        <ele>261</ele>
        <time>2020-12-13T09:32:07Z</time>
      </trkpt>
      <trkpt lat="43.6323" lon="3.61919">
        <ele>260</ele>
        <time>2020-12-13T09:32:08Z</time>
      </trkpt>
      <trkpt lat="43.63235" lon="3.61917">
        <ele>259</ele>
        <time>2020-12-13T09:32:09Z</time>
      </trkpt>
      <trkpt lat="43.63238" lon="3.61914">
        <ele>259</ele>
        <time>2020-12-13T09:32:10Z</time>
      </trkpt>
      <trkpt lat="43.63248" lon="3.61897">
        <ele>257</ele>
        <time>2020-12-13T09:32:13Z</time>
      </trkpt>
      <trkpt lat="43.63262" lon="3.61882">
        <ele>256</ele>
        <time>2020-12-13T09:32:16Z</time>
      </trkpt>
      <trkpt lat="43.63281" lon="3.61874">
        <ele>254</ele>
        <time>2020-12-13T09:32:20Z</time>
      </trkpt>
      <trkpt lat="43.63285" lon="3.61873">
        <ele>254</ele>
        <time>2020-12-13T09:32:21Z</time>
      </trkpt>
      <trkpt lat="43.63299" lon="3.61877">
        <ele>251</ele>
        <time>2020-12-13T09:32:26Z</time>
      </trkpt>
      <trkpt lat="43.63302" lon="3.61874">
        <ele>252</ele>
        <time>2020-12-13T09:33:39Z</time>
      </trkpt>
      <trkpt lat="43.63313" lon="3.61844">
        <ele>251</ele>
        <time>2020-12-13T09:33:48Z</time>
      </trkpt>
      <trkpt lat="43.63321" lon="3.61807">
        <ele>250</ele>
        <time>2020-12-13T09:33:57Z</time>
      </trkpt>
      <trkpt lat="43.63321" lon="3.61803">
        <ele>250</ele>
        <time>2020-12-13T09:33:58Z</time>
      </trkpt>
      <trkpt lat="43.63311" lon="3.61781">
        <ele>248</ele>
        <time>2020-12-13T09:34:04Z</time>
      </trkpt>
      <trkpt lat="43.63303" lon="3.61774">
        <ele>247</ele>
        <time>2020-12-13T09:34:07Z</time>
      </trkpt>
      <trkpt lat="43.633" lon="3.61769">
        <ele>247</ele>
        <time>2020-12-13T09:34:09Z</time>
      </trkpt>
      <trkpt lat="43.63302" lon="3.61763">
        <ele>245</ele>
        <time>2020-12-13T09:34:11Z</time>
      </trkpt>
      <trkpt lat="43.63306" lon="3.61759">
        <ele>244</ele>
        <time>2020-12-13T09:34:13Z</time>
      </trkpt>
      <trkpt lat="43.63319" lon="3.61755">
        <ele>243</ele>
        <time>2020-12-13T09:34:18Z</time>
      </trkpt>
      <trkpt lat="43.63329" lon="3.61754">
        <ele>242</ele>
        <time>2020-12-13T09:34:21Z</time>
      </trkpt>
      <trkpt lat="43.63333" lon="3.61754">
        <ele>239</ele>
        <time>2020-12-13T09:34:23Z</time>
      </trkpt>
      <trkpt lat="43.63334" lon="3.61748">
        <ele>239</ele>
        <time>2020-12-13T09:34:25Z</time>
      </trkpt>
      <trkpt lat="43.63325" lon="3.61703">
        <ele>233</ele>
        <time>2020-12-13T09:34:37Z</time>
      </trkpt>
      <trkpt lat="43.63325" lon="3.61696">
        <ele>232</ele>
        <time>2020-12-13T09:34:39Z</time>
      </trkpt>
      <trkpt lat="43.63327" lon="3.61692">
        <ele>232</ele>
        <time>2020-12-13T09:34:40Z</time>
      </trkpt>
      <trkpt lat="43.63332" lon="3.61683">
        <ele>230</ele>
        <time>2020-12-13T09:34:43Z</time>
      </trkpt>
      <trkpt lat="43.63341" lon="3.61662">
        <ele>227</ele>
        <time>2020-12-13T09:34:48Z</time>
      </trkpt>
      <trkpt lat="43.63355" lon="3.61642">
        <ele>224</ele>
        <time>2020-12-13T09:34:53Z</time>
      </trkpt>
      <trkpt lat="43.63375" lon="3.61571">
        <ele>219</ele>
        <time>2020-12-13T09:35:07Z</time>
      </trkpt>
      <trkpt lat="43.63378" lon="3.61562">
        <ele>220</ele>
        <time>2020-12-13T09:35:10Z</time>
      </trkpt>
      <trkpt lat="43.63377" lon="3.61558">
        <ele>222</ele>
        <time>2020-12-13T09:35:11Z</time>
      </trkpt>
      <trkpt lat="43.63383" lon="3.61535">
        <ele>222</ele>
        <time>2020-12-13T09:35:16Z</time>
      </trkpt>
      <trkpt lat="43.63389" lon="3.61509">
        <ele>221</ele>
        <time>2020-12-13T09:35:21Z</time>
      </trkpt>
      <trkpt lat="43.63389" lon="3.61498">
        <ele>218</ele>
        <time>2020-12-13T09:35:23Z</time>
      </trkpt>
      <trkpt lat="43.63386" lon="3.6147">
        <ele>216</ele>
        <time>2020-12-13T09:35:29Z</time>
      </trkpt>
      <trkpt lat="43.63371" lon="3.61435">
        <ele>215</ele>
        <time>2020-12-13T09:35:37Z</time>
      </trkpt>
      <trkpt lat="43.63369" lon="3.61427">
        <ele>215</ele>
        <time>2020-12-13T09:35:39Z</time>
      </trkpt>
      <trkpt lat="43.63369" lon="3.61413">
        <ele>214</ele>
        <time>2020-12-13T09:35:45Z</time>
      </trkpt>
      <trkpt lat="43.63365" lon="3.61402">
        <ele>212</ele>
        <time>2020-12-13T09:35:49Z</time>
      </trkpt>
      <trkpt lat="43.63364" lon="3.61396">
        <ele>213</ele>
        <time>2020-12-13T09:35:51Z</time>
      </trkpt>
      <trkpt lat="43.63363" lon="3.61391">
        <ele>213</ele>
        <time>2020-12-13T09:35:53Z</time>
      </trkpt>
      <trkpt lat="43.63362" lon="3.61373">
        <ele>208</ele>
        <time>2020-12-13T09:35:59Z</time>
      </trkpt>
      <trkpt lat="43.63363" lon="3.61368">
        <ele>208</ele>
        <time>2020-12-13T09:36:00Z</time>
      </trkpt>
      <trkpt lat="43.63364" lon="3.61353">
        <ele>205</ele>
        <time>2020-12-13T09:36:05Z</time>
      </trkpt>
      <trkpt lat="43.63363" lon="3.61349">
        <ele>204</ele>
        <time>2020-12-13T09:36:07Z</time>
      </trkpt>
      <trkpt lat="43.63363" lon="3.61338">
        <ele>202</ele>
        <time>2020-12-13T09:36:12Z</time>
      </trkpt>
      <trkpt lat="43.63359" lon="3.61312">
        <ele>202</ele>
        <time>2020-12-13T09:36:22Z</time>
      </trkpt>
      <trkpt lat="43.6336" lon="3.61286">
        <ele>201</ele>
        <time>2020-12-13T09:36:31Z</time>
      </trkpt>
      <trkpt lat="43.6336" lon="3.61271">
        <ele>201</ele>
        <time>2020-12-13T09:36:35Z</time>
      </trkpt>
      <trkpt lat="43.6336" lon="3.61263">
        <ele>202</ele>
        <time>2020-12-13T09:36:38Z</time>
      </trkpt>
      <trkpt lat="43.63361" lon="3.61259">
        <ele>205</ele>
        <time>2020-12-13T09:36:44Z</time>
      </trkpt>
      <trkpt lat="43.6336" lon="3.61255">
        <ele>204</ele>
        <time>2020-12-13T09:36:48Z</time>
      </trkpt>
      <trkpt lat="43.63359" lon="3.61251">
        <ele>201</ele>
        <time>2020-12-13T09:36:53Z</time>
      </trkpt>
      <trkpt lat="43.6336" lon="3.61239">
        <ele>201</ele>
        <time>2020-12-13T09:37:01Z</time>
      </trkpt>
      <trkpt lat="43.63359" lon="3.61235">
        <ele>199</ele>
        <time>2020-12-13T09:37:04Z</time>
      </trkpt>
      <trkpt lat="43.63359" lon="3.6123">
        <ele>199</ele>
        <time>2020-12-13T09:37:09Z</time>
      </trkpt>
      <trkpt lat="43.63362" lon="3.61215">
        <ele>194</ele>
        <time>2020-12-13T09:37:17Z</time>
      </trkpt>
      <trkpt lat="43.63362" lon="3.61196">
        <ele>190</ele>
        <time>2020-12-13T09:37:26Z</time>
      </trkpt>
      <trkpt lat="43.63369" lon="3.61159">
        <ele>187</ele>
        <time>2020-12-13T09:37:46Z</time>
      </trkpt>
      <trkpt lat="43.63371" lon="3.61152">
        <ele>187</ele>
        <time>2020-12-13T09:37:49Z</time>
      </trkpt>
      <trkpt lat="43.63372" lon="3.61145">
        <ele>187</ele>
        <time>2020-12-13T09:37:52Z</time>
      </trkpt>
      <trkpt lat="43.63377" lon="3.61118">
        <ele>178</ele>
        <time>2020-12-13T09:38:00Z</time>
      </trkpt>
      <trkpt lat="43.63379" lon="3.61112">
        <ele>178</ele>
        <time>2020-12-13T09:38:02Z</time>
      </trkpt>
      <trkpt lat="43.63384" lon="3.61103">
        <ele>176</ele>
        <time>2020-12-13T09:38:06Z</time>
      </trkpt>
      <trkpt lat="43.63402" lon="3.61058">
        <ele>166</ele>
        <time>2020-12-13T09:38:21Z</time>
      </trkpt>
      <trkpt lat="43.63411" lon="3.61041">
        <ele>164</ele>
        <time>2020-12-13T09:38:29Z</time>
      </trkpt>
      <trkpt lat="43.63424" lon="3.61032">
        <ele>165</ele>
        <time>2020-12-13T09:38:37Z</time>
      </trkpt>
      <trkpt lat="43.63434" lon="3.61018">
        <ele>167</ele>
        <time>2020-12-13T09:38:43Z</time>
      </trkpt>
      <trkpt lat="43.63443" lon="3.61009">
        <ele>167</ele>
        <time>2020-12-13T09:38:47Z</time>
      </trkpt>
      <trkpt lat="43.63463" lon="3.60982">
        <ele>164</ele>
        <time>2020-12-13T09:38:57Z</time>
      </trkpt>
      <trkpt lat="43.63467" lon="3.60979">
        <ele>163</ele>
        <time>2020-12-13T09:38:59Z</time>
      </trkpt>
      <trkpt lat="43.63469" lon="3.60976">
        <ele>163</ele>
        <time>2020-12-13T09:39:03Z</time>
      </trkpt>
      <trkpt lat="43.63473" lon="3.60971">
        <ele>164</ele>
        <time>2020-12-13T09:39:34Z</time>
      </trkpt>
      <trkpt lat="43.63477" lon="3.60965">
        <ele>165</ele>
        <time>2020-12-13T09:39:40Z</time>
      </trkpt>
      <trkpt lat="43.63477" lon="3.60956">
        <ele>164</ele>
        <time>2020-12-13T09:39:44Z</time>
      </trkpt>
      <trkpt lat="43.63488" lon="3.60921">
        <ele>159</ele>
        <time>2020-12-13T09:39:54Z</time>
      </trkpt>
      <trkpt lat="43.63492" lon="3.60909">
        <ele>156</ele>
        <time>2020-12-13T09:39:58Z</time>
      </trkpt>
      <trkpt lat="43.63502" lon="3.60889">
        <ele>154</ele>
        <time>2020-12-13T09:40:05Z</time>
      </trkpt>
      <trkpt lat="43.63503" lon="3.60883">
        <ele>153</ele>
        <time>2020-12-13T09:40:07Z</time>
      </trkpt>
      <trkpt lat="43.63506" lon="3.60874">
        <ele>153</ele>
        <time>2020-12-13T09:40:11Z</time>
      </trkpt>
      <trkpt lat="43.63522" lon="3.60845">
        <ele>150</ele>
        <time>2020-12-13T09:40:26Z</time>
      </trkpt>
      <trkpt lat="43.63522" lon="3.60841">
        <ele>150</ele>
        <time>2020-12-13T09:40:30Z</time>
      </trkpt>
      <trkpt lat="43.63523" lon="3.60837">
        <ele>150</ele>
        <time>2020-12-13T09:40:34Z</time>
      </trkpt>
      <trkpt lat="43.63525" lon="3.60833">
        <ele>151</ele>
        <time>2020-12-13T09:40:37Z</time>
      </trkpt>
      <trkpt lat="43.63525" lon="3.60828">
        <ele>152</ele>
        <time>2020-12-13T09:40:44Z</time>
      </trkpt>
      <trkpt lat="43.63528" lon="3.60825">
        <ele>151</ele>
        <time>2020-12-13T09:40:50Z</time>
      </trkpt>
      <trkpt lat="43.63531" lon="3.60821">
        <ele>151</ele>
        <time>2020-12-13T09:40:52Z</time>
      </trkpt>
      <trkpt lat="43.63536" lon="3.60815">
        <ele>151</ele>
        <time>2020-12-13T09:40:56Z</time>
      </trkpt>
      <trkpt lat="43.63539" lon="3.60813">
        <ele>151</ele>
        <time>2020-12-13T09:40:59Z</time>
      </trkpt>
      <trkpt lat="43.63545" lon="3.60807">
        <ele>151</ele>
        <time>2020-12-13T09:41:05Z</time>
      </trkpt>
      <trkpt lat="43.63549" lon="3.60805">
        <ele>150</ele>
        <time>2020-12-13T09:41:08Z</time>
      </trkpt>
      <trkpt lat="43.6357" lon="3.60785">
        <ele>148</ele>
        <time>2020-12-13T09:41:23Z</time>
      </trkpt>
      <trkpt lat="43.63574" lon="3.60784">
        <ele>147</ele>
        <time>2020-12-13T09:41:26Z</time>
      </trkpt>
      <trkpt lat="43.63577" lon="3.60782">
        <ele>147</ele>
        <time>2020-12-13T09:41:28Z</time>
      </trkpt>
      <trkpt lat="43.6358" lon="3.60782">
        <ele>147</ele>
        <time>2020-12-13T09:41:30Z</time>
      </trkpt>
      <trkpt lat="43.63583" lon="3.60781">
        <ele>148</ele>
        <time>2020-12-13T09:41:33Z</time>
      </trkpt>
      <trkpt lat="43.63585" lon="3.60779">
        <ele>149</ele>
        <time>2020-12-13T09:41:37Z</time>
      </trkpt>
      <trkpt lat="43.6359" lon="3.60772">
        <ele>150</ele>
        <time>2020-12-13T09:41:48Z</time>
      </trkpt>
      <trkpt lat="43.63602" lon="3.60767">
        <ele>155</ele>
        <time>2020-12-13T09:42:01Z</time>
      </trkpt>
      <trkpt lat="43.63606" lon="3.60764">
        <ele>156</ele>
        <time>2020-12-13T09:42:05Z</time>
      </trkpt>
      <trkpt lat="43.63608" lon="3.6076">
        <ele>157</ele>
        <time>2020-12-13T09:42:07Z</time>
      </trkpt>
      <trkpt lat="43.6362" lon="3.60743">
        <ele>155</ele>
        <time>2020-12-13T09:42:15Z</time>
      </trkpt>
      <trkpt lat="43.6366" lon="3.60707">
        <ele>144</ele>
        <time>2020-12-13T09:42:34Z</time>
      </trkpt>
      <trkpt lat="43.63665" lon="3.60696">
        <ele>144</ele>
        <time>2020-12-13T09:42:37Z</time>
      </trkpt>
      <trkpt lat="43.63673" lon="3.60674">
        <ele>140</ele>
        <time>2020-12-13T09:42:44Z</time>
      </trkpt>
      <trkpt lat="43.63679" lon="3.60659">
        <ele>139</ele>
        <time>2020-12-13T09:42:52Z</time>
      </trkpt>
      <trkpt lat="43.6368" lon="3.60655">
        <ele>138</ele>
        <time>2020-12-13T09:42:54Z</time>
      </trkpt>
      <trkpt lat="43.6368" lon="3.60651">
        <ele>138</ele>
        <time>2020-12-13T09:42:57Z</time>
      </trkpt>
      <trkpt lat="43.63677" lon="3.60648">
        <ele>139</ele>
        <time>2020-12-13T09:42:59Z</time>
      </trkpt>
      <trkpt lat="43.63676" lon="3.60643">
        <ele>140</ele>
        <time>2020-12-13T09:43:02Z</time>
      </trkpt>
      <trkpt lat="43.63677" lon="3.60639">
        <ele>141</ele>
        <time>2020-12-13T09:43:04Z</time>
      </trkpt>
      <trkpt lat="43.63679" lon="3.60636">
        <ele>142</ele>
        <time>2020-12-13T09:43:07Z</time>
      </trkpt>
      <trkpt lat="43.63681" lon="3.60632">
        <ele>141</ele>
        <time>2020-12-13T09:43:09Z</time>
      </trkpt>
      <trkpt lat="43.63683" lon="3.60621">
        <ele>142</ele>
        <time>2020-12-13T09:43:13Z</time>
      </trkpt>
      <trkpt lat="43.63698" lon="3.60569">
        <ele>141</ele>
        <time>2020-12-13T09:43:25Z</time>
      </trkpt>
      <trkpt lat="43.63702" lon="3.60539">
        <ele>141</ele>
        <time>2020-12-13T09:43:31Z</time>
      </trkpt>
      <trkpt lat="43.6371" lon="3.60511">
        <ele>139</ele>
        <time>2020-12-13T09:43:37Z</time>
      </trkpt>
      <trkpt lat="43.63711" lon="3.60505">
        <ele>138</ele>
        <time>2020-12-13T09:43:39Z</time>
      </trkpt>
      <trkpt lat="43.63714" lon="3.60475">
        <ele>132</ele>
        <time>2020-12-13T09:43:50Z</time>
      </trkpt>
      <trkpt lat="43.63714" lon="3.60472">
        <ele>132</ele>
        <time>2020-12-13T09:43:51Z</time>
      </trkpt>
      <trkpt lat="43.63715" lon="3.60461">
        <ele>128</ele>
        <time>2020-12-13T09:43:55Z</time>
      </trkpt>
      <trkpt lat="43.63717" lon="3.60452">
        <ele>129</ele>
        <time>2020-12-13T09:44:03Z</time>
      </trkpt>
      <trkpt lat="43.63719" lon="3.60448">
        <ele>128</ele>
        <time>2020-12-13T09:44:06Z</time>
      </trkpt>
      <trkpt lat="43.63724" lon="3.60442">
        <ele>127</ele>
        <time>2020-12-13T09:44:13Z</time>
      </trkpt>
      <trkpt lat="43.63725" lon="3.60439">
        <ele>125</ele>
        <time>2020-12-13T09:46:24Z</time>
      </trkpt>
      <trkpt lat="43.6377" lon="3.60365">
        <ele>123</ele>
        <time>2020-12-13T09:46:54Z</time>
      </trkpt>
      <trkpt lat="43.63798" lon="3.60336">
        <ele>123</ele>
        <time>2020-12-13T09:47:03Z</time>
      </trkpt>
      <trkpt lat="43.63811" lon="3.60306">
        <ele>120</ele>
        <time>2020-12-13T09:47:09Z</time>
      </trkpt>
      <trkpt lat="43.63826" lon="3.60247">
        <ele>121</ele>
        <time>2020-12-13T09:47:20Z</time>
      </trkpt>
      <trkpt lat="43.63832" lon="3.60236">
        <ele>121</ele>
        <time>2020-12-13T09:47:23Z</time>
      </trkpt>
      <trkpt lat="43.63836" lon="3.60231">
        <ele>121</ele>
        <time>2020-12-13T09:47:25Z</time>
      </trkpt>
      <trkpt lat="43.63842" lon="3.60228">
        <ele>120</ele>
        <time>2020-12-13T09:47:27Z</time>
      </trkpt>
      <trkpt lat="43.6385" lon="3.60226">
        <ele>121</ele>
        <time>2020-12-13T09:47:30Z</time>
      </trkpt>
      <trkpt lat="43.63859" lon="3.6022">
        <ele>120</ele>
        <time>2020-12-13T09:47:34Z</time>
      </trkpt>
      <trkpt lat="43.63862" lon="3.60216">
        <ele>120</ele>
        <time>2020-12-13T09:47:36Z</time>
      </trkpt>
      <trkpt lat="43.63869" lon="3.60219">
        <ele>121</ele>
        <time>2020-12-13T09:47:57Z</time>
      </trkpt>
      <trkpt lat="43.63886" lon="3.60232">
        <ele>121</ele>
        <time>2020-12-13T09:48:02Z</time>
      </trkpt>
      <trkpt lat="43.63893" lon="3.60234">
        <ele>122</ele>
        <time>2020-12-13T09:48:04Z</time>
      </trkpt>
      <trkpt lat="43.63934" lon="3.60238">
        <ele>124</ele>
        <time>2020-12-13T09:48:22Z</time>
      </trkpt>
      <trkpt lat="43.63942" lon="3.60244">
        <ele>125</ele>
        <time>2020-12-13T09:48:26Z</time>
      </trkpt>
      <trkpt lat="43.63962" lon="3.60274">
        <ele>126</ele>
        <time>2020-12-13T09:48:40Z</time>
      </trkpt>
      <trkpt lat="43.63977" lon="3.60317">
        <ele>125</ele>
        <time>2020-12-13T09:48:56Z</time>
      </trkpt>
      <trkpt lat="43.63983" lon="3.60324">
        <ele>123</ele>
        <time>2020-12-13T09:49:00Z</time>
      </trkpt>
      <trkpt lat="43.63987" lon="3.60327">
        <ele>123</ele>
        <time>2020-12-13T09:49:02Z</time>
      </trkpt>
      <trkpt lat="43.63991" lon="3.60328">
        <ele>123</ele>
        <time>2020-12-13T09:49:04Z</time>
      </trkpt>
      <trkpt lat="43.64015" lon="3.60324">
        <ele>127</ele>
        <time>2020-12-13T09:49:16Z</time>
      </trkpt>
      <trkpt lat="43.64024" lon="3.60325">
        <ele>126</ele>
        <time>2020-12-13T09:49:20Z</time>
      </trkpt>
      <trkpt lat="43.64028" lon="3.60328">
        <ele>126</ele>
        <time>2020-12-13T09:49:22Z</time>
      </trkpt>
      <trkpt lat="43.64033" lon="3.60338">
        <ele>128</ele>
        <time>2020-12-13T09:49:26Z</time>
      </trkpt>
      <trkpt lat="43.64033" lon="3.60344">
        <ele>128</ele>
        <time>2020-12-13T09:49:28Z</time>
      </trkpt>
      <trkpt lat="43.64032" lon="3.60348">
        <ele>128</ele>
        <time>2020-12-13T09:49:30Z</time>
      </trkpt>
      <trkpt lat="43.64017" lon="3.60359">
        <ele>131</ele>
        <time>2020-12-13T09:49:40Z</time>
      </trkpt>
      <trkpt lat="43.64014" lon="3.60362">
        <ele>130</ele>
        <time>2020-12-13T09:49:42Z</time>
      </trkpt>
      <trkpt lat="43.6401" lon="3.60377">
        <ele>131</ele>
        <time>2020-12-13T09:49:48Z</time>
      </trkpt>
      <trkpt lat="43.64013" lon="3.60412">
        <ele>136</ele>
        <time>2020-12-13T09:50:04Z</time>
      </trkpt>
      <trkpt lat="43.64025" lon="3.60475">
        <ele>141</ele>
        <time>2020-12-13T09:50:35Z</time>
      </trkpt>
      <trkpt lat="43.64028" lon="3.60492">
        <ele>145</ele>
        <time>2020-12-13T09:50:43Z</time>
      </trkpt>
      <trkpt lat="43.64029" lon="3.60502">
        <ele>146</ele>
        <time>2020-12-13T09:50:48Z</time>
      </trkpt>
      <trkpt lat="43.6403" lon="3.60511">
        <ele>147</ele>
        <time>2020-12-13T09:50:52Z</time>
      </trkpt>
      <trkpt lat="43.6403" lon="3.60543">
        <ele>151</ele>
        <time>2020-12-13T09:51:07Z</time>
      </trkpt>
      <trkpt lat="43.64029" lon="3.60552">
        <ele>154</ele>
        <time>2020-12-13T09:51:12Z</time>
      </trkpt>
      <trkpt lat="43.64014" lon="3.60589">
        <ele>160</ele>
        <time>2020-12-13T09:51:32Z</time>
      </trkpt>
      <trkpt lat="43.64005" lon="3.60609">
        <ele>163</ele>
        <time>2020-12-13T09:51:43Z</time>
      </trkpt>
      <trkpt lat="43.6398" lon="3.60639">
        <ele>163</ele>
        <time>2020-12-13T09:52:03Z</time>
      </trkpt>
      <trkpt lat="43.63977" lon="3.6064">
        <ele>162</ele>
        <time>2020-12-13T09:52:05Z</time>
      </trkpt>
      <trkpt lat="43.63973" lon="3.60643">
        <ele>161</ele>
        <time>2020-12-13T09:52:07Z</time>
      </trkpt>
      <trkpt lat="43.63969" lon="3.60644">
        <ele>161</ele>
        <time>2020-12-13T09:52:09Z</time>
      </trkpt>
      <trkpt lat="43.63965" lon="3.60643">
        <ele>160</ele>
        <time>2020-12-13T09:52:11Z</time>
      </trkpt>
      <trkpt lat="43.63962" lon="3.6064">
        <ele>159</ele>
        <time>2020-12-13T09:52:13Z</time>
      </trkpt>
      <trkpt lat="43.6396" lon="3.60636">
        <ele>160</ele>
        <time>2020-12-13T09:52:15Z</time>
      </trkpt>
      <trkpt lat="43.63952" lon="3.60602">
        <ele>161</ele>
        <time>2020-12-13T09:52:31Z</time>
      </trkpt>
      <trkpt lat="43.63951" lon="3.60598">
        <ele>161</ele>
        <time>2020-12-13T09:52:33Z</time>
      </trkpt>
      <trkpt lat="43.63949" lon="3.60594">
        <ele>163</ele>
        <time>2020-12-13T09:52:35Z</time>
      </trkpt>
      <trkpt lat="43.63944" lon="3.60587">
        <ele>165</ele>
        <time>2020-12-13T09:52:39Z</time>
      </trkpt>
      <trkpt lat="43.63932" lon="3.60577">
        <ele>165</ele>
        <time>2020-12-13T09:52:47Z</time>
      </trkpt>
      <trkpt lat="43.63923" lon="3.60576">
        <ele>166</ele>
        <time>2020-12-13T09:52:53Z</time>
      </trkpt>
      <trkpt lat="43.63874" lon="3.60586">
        <ele>171</ele>
        <time>2020-12-13T09:53:21Z</time>
      </trkpt>
      <trkpt lat="43.63871" lon="3.60587">
        <ele>172</ele>
        <time>2020-12-13T09:53:23Z</time>
      </trkpt>
      <trkpt lat="43.63868" lon="3.6059">
        <ele>173</ele>
        <time>2020-12-13T09:53:26Z</time>
      </trkpt>
      <trkpt lat="43.63867" lon="3.60595">
        <ele>173</ele>
        <time>2020-12-13T09:53:29Z</time>
      </trkpt>
      <trkpt lat="43.63867" lon="3.606">
        <ele>173</ele>
        <time>2020-12-13T09:53:31Z</time>
      </trkpt>
      <trkpt lat="43.63869" lon="3.60605">
        <ele>173</ele>
        <time>2020-12-13T09:53:33Z</time>
      </trkpt>
      <trkpt lat="43.63885" lon="3.6062">
        <ele>175</ele>
        <time>2020-12-13T09:53:43Z</time>
      </trkpt>
      <trkpt lat="43.63888" lon="3.60623">
        <ele>176</ele>
        <time>2020-12-13T09:53:45Z</time>
      </trkpt>
      <trkpt lat="43.63893" lon="3.60637">
        <ele>177</ele>
        <time>2020-12-13T09:53:51Z</time>
      </trkpt>
      <trkpt lat="43.63895" lon="3.60645">
        <ele>179</ele>
        <time>2020-12-13T09:53:55Z</time>
      </trkpt>
      <trkpt lat="43.63895" lon="3.60664">
        <ele>181</ele>
        <time>2020-12-13T09:54:03Z</time>
      </trkpt>
      <trkpt lat="43.63896" lon="3.60679">
        <ele>182</ele>
        <time>2020-12-13T09:54:09Z</time>
      </trkpt>
      <trkpt lat="43.63895" lon="3.6069">
        <ele>179</ele>
        <time>2020-12-13T09:54:13Z</time>
      </trkpt>
      <trkpt lat="43.63896" lon="3.60711">
        <ele>183</ele>
        <time>2020-12-13T09:54:21Z</time>
      </trkpt>
      <trkpt lat="43.63896" lon="3.60725">
        <ele>183</ele>
        <time>2020-12-13T09:54:27Z</time>
      </trkpt>
      <trkpt lat="43.63897" lon="3.6073">
        <ele>183</ele>
        <time>2020-12-13T09:54:29Z</time>
      </trkpt>
      <trkpt lat="43.63898" lon="3.60743">
        <ele>180</ele>
        <time>2020-12-13T09:54:35Z</time>
      </trkpt>
      <trkpt lat="43.63903" lon="3.60764">
        <ele>179</ele>
        <time>2020-12-13T09:54:43Z</time>
      </trkpt>
      <trkpt lat="43.63909" lon="3.60774">
        <ele>179</ele>
        <time>2020-12-13T09:54:49Z</time>
      </trkpt>
      <trkpt lat="43.63928" lon="3.60792">
        <ele>182</ele>
        <time>2020-12-13T09:55:01Z</time>
      </trkpt>
      <trkpt lat="43.63949" lon="3.60808">
        <ele>187</ele>
        <time>2020-12-13T09:55:15Z</time>
      </trkpt>
      <trkpt lat="43.63957" lon="3.60816">
        <ele>190</ele>
        <time>2020-12-13T09:55:21Z</time>
      </trkpt>
      <trkpt lat="43.63964" lon="3.60827">
        <ele>192</ele>
        <time>2020-12-13T09:55:27Z</time>
      </trkpt>
      <trkpt lat="43.63971" lon="3.60845">
        <ele>192</ele>
        <time>2020-12-13T09:55:37Z</time>
      </trkpt>
      <trkpt lat="43.63973" lon="3.60867">
        <ele>192</ele>
        <time>2020-12-13T09:55:45Z</time>
      </trkpt>
      <trkpt lat="43.63967" lon="3.60908">
        <ele>193</ele>
        <time>2020-12-13T09:56:05Z</time>
      </trkpt>
      <trkpt lat="43.63969" lon="3.60948">
        <ele>196</ele>
        <time>2020-12-13T09:56:23Z</time>
      </trkpt>
      <trkpt lat="43.63971" lon="3.60958">
        <ele>196</ele>
        <time>2020-12-13T09:56:27Z</time>
      </trkpt>
      <trkpt lat="43.63978" lon="3.61015">
        <ele>197</ele>
        <time>2020-12-13T09:56:53Z</time>
      </trkpt>
      <trkpt lat="43.63979" lon="3.61019">
        <ele>198</ele>
        <time>2020-12-13T09:56:55Z</time>
      </trkpt>
      <trkpt lat="43.6398" lon="3.61032">
        <ele>200</ele>
        <time>2020-12-13T09:57:02Z</time>
      </trkpt>
      <trkpt lat="43.63982" lon="3.6104">
        <ele>201</ele>
        <time>2020-12-13T09:57:06Z</time>
      </trkpt>
      <trkpt lat="43.63984" lon="3.61049">
        <ele>201</ele>
        <time>2020-12-13T09:57:10Z</time>
      </trkpt>
      <trkpt lat="43.64004" lon="3.61111">
        <ele>207</ele>
        <time>2020-12-13T09:57:40Z</time>
      </trkpt>
      <trkpt lat="43.64008" lon="3.61124">
        <ele>210</ele>
        <time>2020-12-13T09:57:46Z</time>
      </trkpt>
      <trkpt lat="43.64009" lon="3.61128">
        <ele>210</ele>
        <time>2020-12-13T09:57:48Z</time>
      </trkpt>
      <trkpt lat="43.64011" lon="3.61133">
        <ele>210</ele>
        <time>2020-12-13T09:57:50Z</time>
      </trkpt>
      <trkpt lat="43.64037" lon="3.61183">
        <ele>216</ele>
        <time>2020-12-13T09:58:16Z</time>
      </trkpt>
      <trkpt lat="43.6405" lon="3.61205">
        <ele>219</ele>
        <time>2020-12-13T09:58:28Z</time>
      </trkpt>
      <trkpt lat="43.64067" lon="3.61251">
        <ele>222</ele>
        <time>2020-12-13T09:58:50Z</time>
      </trkpt>
      <trkpt lat="43.6407" lon="3.61259">
        <ele>222</ele>
        <time>2020-12-13T09:58:54Z</time>
      </trkpt>
      <trkpt lat="43.64071" lon="3.6129">
        <ele>224</ele>
        <time>2020-12-13T09:59:06Z</time>
      </trkpt>
      <trkpt lat="43.64065" lon="3.61326">
        <ele>224</ele>
        <time>2020-12-13T09:59:22Z</time>
      </trkpt>
      <trkpt lat="43.64051" lon="3.61388">
        <ele>224</ele>
        <time>2020-12-13T09:59:50Z</time>
      </trkpt>
      <trkpt lat="43.64049" lon="3.61397">
        <ele>225</ele>
        <time>2020-12-13T09:59:54Z</time>
      </trkpt>
      <trkpt lat="43.64045" lon="3.61403">
        <ele>226</ele>
        <time>2020-12-13T09:59:58Z</time>
      </trkpt>
      <trkpt lat="43.64042" lon="3.61404">
        <ele>226</ele>
        <time>2020-12-13T10:00:00Z</time>
      </trkpt>
      <trkpt lat="43.64038" lon="3.61402">
        <ele>226</ele>
        <time>2020-12-13T10:00:02Z</time>
      </trkpt>
      <trkpt lat="43.64036" lon="3.61399">
        <ele>227</ele>
        <time>2020-12-13T10:00:04Z</time>
      </trkpt>
      <trkpt lat="43.64035" lon="3.61395">
        <ele>227</ele>
        <time>2020-12-13T10:00:06Z</time>
      </trkpt>
      <trkpt lat="43.64033" lon="3.61375">
        <ele>229</ele>
        <time>2020-12-13T10:00:14Z</time>
      </trkpt>
      <trkpt lat="43.64024" lon="3.61348">
        <ele>231</ele>
        <time>2020-12-13T10:00:27Z</time>
      </trkpt>
      <trkpt lat="43.6402" lon="3.61339">
        <ele>232</ele>
        <time>2020-12-13T10:00:31Z</time>
      </trkpt>
      <trkpt lat="43.64018" lon="3.61336">
        <ele>233</ele>
        <time>2020-12-13T10:00:33Z</time>
      </trkpt>
      <trkpt lat="43.64012" lon="3.61331">
        <ele>234</ele>
        <time>2020-12-13T10:00:37Z</time>
      </trkpt>
      <trkpt lat="43.64005" lon="3.61331">
        <ele>234</ele>
        <time>2020-12-13T10:00:41Z</time>
      </trkpt>
      <trkpt lat="43.6399" lon="3.61335">
        <ele>235</ele>
        <time>2020-12-13T10:00:49Z</time>
      </trkpt>
      <trkpt lat="43.63987" lon="3.61338">
        <ele>235</ele>
        <time>2020-12-13T10:00:51Z</time>
      </trkpt>
      <trkpt lat="43.63984" lon="3.61341">
        <ele>235</ele>
        <time>2020-12-13T10:00:53Z</time>
      </trkpt>
      <trkpt lat="43.63981" lon="3.61344">
        <ele>236</ele>
        <time>2020-12-13T10:00:55Z</time>
      </trkpt>
      <trkpt lat="43.63968" lon="3.61366">
        <ele>240</ele>
        <time>2020-12-13T10:01:05Z</time>
      </trkpt>
      <trkpt lat="43.63961" lon="3.61392">
        <ele>242</ele>
        <time>2020-12-13T10:01:15Z</time>
      </trkpt>
      <trkpt lat="43.63956" lon="3.61425">
        <ele>244</ele>
        <time>2020-12-13T10:01:27Z</time>
      </trkpt>
      <trkpt lat="43.63958" lon="3.61508">
        <ele>248</ele>
        <time>2020-12-13T10:01:57Z</time>
      </trkpt>
      <trkpt lat="43.63959" lon="3.61514">
        <ele>248</ele>
        <time>2020-12-13T10:01:59Z</time>
      </trkpt>
      <trkpt lat="43.63965" lon="3.61538">
        <ele>248</ele>
        <time>2020-12-13T10:02:09Z</time>
      </trkpt>
      <trkpt lat="43.63979" lon="3.61566">
        <ele>251</ele>
        <time>2020-12-13T10:02:21Z</time>
      </trkpt>
      <trkpt lat="43.63987" lon="3.61586">
        <ele>253</ele>
        <time>2020-12-13T10:02:29Z</time>
      </trkpt>
      <trkpt lat="43.6399" lon="3.6159">
        <ele>253</ele>
        <time>2020-12-13T10:02:31Z</time>
      </trkpt>
      <trkpt lat="43.63999" lon="3.61614">
        <ele>255</ele>
        <time>2020-12-13T10:02:41Z</time>
      </trkpt>
      <trkpt lat="43.64014" lon="3.6164">
        <ele>257</ele>
        <time>2020-12-13T10:02:53Z</time>
      </trkpt>
      <trkpt lat="43.64019" lon="3.61657">
        <ele>259</ele>
        <time>2020-12-13T10:02:59Z</time>
      </trkpt>
      <trkpt lat="43.64031" lon="3.61709">
        <ele>260</ele>
        <time>2020-12-13T10:03:15Z</time>
      </trkpt>
      <trkpt lat="43.64048" lon="3.61757">
        <ele>258</ele>
        <time>2020-12-13T10:03:29Z</time>
      </trkpt>
      <trkpt lat="43.64054" lon="3.618">
        <ele>255</ele>
        <time>2020-12-13T10:03:43Z</time>
      </trkpt>
      <trkpt lat="43.64055" lon="3.61805">
        <ele>255</ele>
        <time>2020-12-13T10:03:45Z</time>
      </trkpt>
      <trkpt lat="43.64058" lon="3.61816">
        <ele>254</ele>
        <time>2020-12-13T10:03:49Z</time>
      </trkpt>
      <trkpt lat="43.64072" lon="3.61858">
        <ele>260</ele>
        <time>2020-12-13T10:04:02Z</time>
      </trkpt>
      <trkpt lat="43.64075" lon="3.61865">
        <ele>260</ele>
        <time>2020-12-13T10:04:04Z</time>
      </trkpt>
      <trkpt lat="43.64096" lon="3.61893">
        <ele>260</ele>
        <time>2020-12-13T10:04:13Z</time>
      </trkpt>
      <trkpt lat="43.641" lon="3.61902">
        <ele>261</ele>
        <time>2020-12-13T10:04:15Z</time>
      </trkpt>
      <trkpt lat="43.64102" lon="3.6192">
        <ele>263</ele>
        <time>2020-12-13T10:04:19Z</time>
      </trkpt>
      <trkpt lat="43.64102" lon="3.61937">
        <ele>264</ele>
        <time>2020-12-13T10:04:23Z</time>
      </trkpt>
      <trkpt lat="43.64102" lon="3.61941">
        <ele>263</ele>
        <time>2020-12-13T10:04:25Z</time>
      </trkpt>
      <trkpt lat="43.64104" lon="3.61945">
        <ele>265</ele>
        <time>2020-12-13T10:08:17Z</time>
      </trkpt>
      <trkpt lat="43.64107" lon="3.61948">
        <ele>265</ele>
        <time>2020-12-13T10:08:19Z</time>
      </trkpt>
      <trkpt lat="43.64175" lon="3.61953">
        <ele>267</ele>
        <time>2020-12-13T10:08:49Z</time>
      </trkpt>
      <trkpt lat="43.64257" lon="3.61959">
        <ele>271</ele>
        <time>2020-12-13T10:09:19Z</time>
      </trkpt>
      <trkpt lat="43.64312" lon="3.61949">
        <ele>271</ele>
        <time>2020-12-13T10:09:36Z</time>
      </trkpt>
      <trkpt lat="43.64416" lon="3.6191">
        <ele>275</ele>
        <time>2020-12-13T10:10:06Z</time>
      </trkpt>
      <trkpt lat="43.64485" lon="3.61891">
        <ele>274</ele>
        <time>2020-12-13T10:10:22Z</time>
      </trkpt>
      <trkpt lat="43.64673" lon="3.61888">
        <ele>266</ele>
        <time>2020-12-13T10:10:49Z</time>
      </trkpt>
      <trkpt lat="43.64693" lon="3.61878">
        <ele>265</ele>
        <time>2020-12-13T10:10:52Z</time>
      </trkpt>
      <trkpt lat="43.64716" lon="3.61857">
        <ele>262</ele>
        <time>2020-12-13T10:10:56Z</time>
      </trkpt>
      <trkpt lat="43.64729" lon="3.61854">
        <ele>262</ele>
        <time>2020-12-13T10:10:58Z</time>
      </trkpt>
      <trkpt lat="43.64742" lon="3.61855">
        <ele>261</ele>
        <time>2020-12-13T10:11:00Z</time>
      </trkpt>
      <trkpt lat="43.64771" lon="3.61865">
        <ele>260</ele>
        <time>2020-12-13T10:11:05Z</time>
      </trkpt>
      <trkpt lat="43.64779" lon="3.61877">
        <ele>261</ele>
        <time>2020-12-13T10:11:08Z</time>
      </trkpt>
      <trkpt lat="43.64841" lon="3.61948">
        <ele>264</ele>
        <time>2020-12-13T10:11:33Z</time>
      </trkpt>
      <trkpt lat="43.64859" lon="3.61979">
        <ele>265</ele>
        <time>2020-12-13T10:11:43Z</time>
      </trkpt>
      <trkpt lat="43.64872" lon="3.62011">
        <ele>265</ele>
        <time>2020-12-13T10:11:52Z</time>
      </trkpt>
      <trkpt lat="43.64922" lon="3.62063">
        <ele>268</ele>
        <time>2020-12-13T10:12:12Z</time>
      </trkpt>
      <trkpt lat="43.64948" lon="3.62077">
        <ele>270</ele>
        <time>2020-12-13T10:12:22Z</time>
      </trkpt>
      <trkpt lat="43.64988" lon="3.62088">
        <ele>273</ele>
        <time>2020-12-13T10:12:38Z</time>
      </trkpt>
      <trkpt lat="43.64996" lon="3.62095">
        <ele>271</ele>
        <time>2020-12-13T10:12:42Z</time>
      </trkpt>
      <trkpt lat="43.6504" lon="3.6216">
        <ele>278</ele>
        <time>2020-12-13T10:13:12Z</time>
      </trkpt>
      <trkpt lat="43.65049" lon="3.62172">
        <ele>278</ele>
        <time>2020-12-13T10:13:18Z</time>
      </trkpt>
      <trkpt lat="43.65068" lon="3.62188">
        <ele>278</ele>
        <time>2020-12-13T10:13:28Z</time>
      </trkpt>
      <trkpt lat="43.65083" lon="3.62195">
        <ele>276</ele>
        <time>2020-12-13T10:13:36Z</time>
      </trkpt>
      <trkpt lat="43.65113" lon="3.62197">
        <ele>278</ele>
        <time>2020-12-13T10:13:50Z</time>
      </trkpt>
      <trkpt lat="43.65121" lon="3.62197">
        <ele>280</ele>
        <time>2020-12-13T10:13:54Z</time>
      </trkpt>
      <trkpt lat="43.65135" lon="3.62197">
        <ele>280</ele>
        <time>2020-12-13T10:14:00Z</time>
      </trkpt>
      <trkpt lat="43.65139" lon="3.62197">
        <ele>282</ele>
        <time>2020-12-13T10:14:02Z</time>
      </trkpt>
      <trkpt lat="43.65147" lon="3.62196">
        <ele>283</ele>
        <time>2020-12-13T10:14:06Z</time>
      </trkpt>
      <trkpt lat="43.65172" lon="3.62195">
        <ele>288</ele>
        <time>2020-12-13T10:14:18Z</time>
      </trkpt>
      <trkpt lat="43.65203" lon="3.62199">
        <ele>292</ele>
        <time>2020-12-13T10:14:35Z</time>
      </trkpt>
      <trkpt lat="43.65211" lon="3.62203">
        <ele>292</ele>
        <time>2020-12-13T10:14:39Z</time>
      </trkpt>
      <trkpt lat="43.65221" lon="3.62212">
        <ele>293</ele>
        <time>2020-12-13T10:14:45Z</time>
      </trkpt>
      <trkpt lat="43.65231" lon="3.62229">
        <ele>295</ele>
        <time>2020-12-13T10:14:53Z</time>
      </trkpt>
      <trkpt lat="43.65256" lon="3.6232">
        <ele>298</ele>
        <time>2020-12-13T10:15:23Z</time>
      </trkpt>
      <trkpt lat="43.65293" lon="3.62447">
        <ele>296</ele>
        <time>2020-12-13T10:15:52Z</time>
      </trkpt>
      <trkpt lat="43.65359" lon="3.62557">
        <ele>292</ele>
        <time>2020-12-13T10:16:07Z</time>
      </trkpt>
      <trkpt lat="43.65376" lon="3.62597">
        <ele>291</ele>
        <time>2020-12-13T10:16:13Z</time>
      </trkpt>
      <trkpt lat="43.65434" lon="3.62679">
        <ele>292</ele>
        <time>2020-12-13T10:16:30Z</time>
      </trkpt>
      <trkpt lat="43.65474" lon="3.62719">
        <ele>293</ele>
        <time>2020-12-13T10:16:41Z</time>
      </trkpt>
      <trkpt lat="43.65481" lon="3.62733">
        <ele>293</ele>
        <time>2020-12-13T10:16:44Z</time>
      </trkpt>
      <trkpt lat="43.65483" lon="3.62744">
        <ele>292</ele>
        <time>2020-12-13T10:16:46Z</time>
      </trkpt>
      <trkpt lat="43.65482" lon="3.62791">
        <ele>294</ele>
        <time>2020-12-13T10:16:58Z</time>
      </trkpt>
      <trkpt lat="43.65484" lon="3.62797">
        <ele>294</ele>
        <time>2020-12-13T10:17:00Z</time>
      </trkpt>
      <trkpt lat="43.65491" lon="3.628">
        <ele>294</ele>
        <time>2020-12-13T10:17:03Z</time>
      </trkpt>
      <trkpt lat="43.65497" lon="3.62799">
        <ele>293</ele>
        <time>2020-12-13T10:17:05Z</time>
      </trkpt>
      <trkpt lat="43.65504" lon="3.62793">
        <ele>292</ele>
        <time>2020-12-13T10:17:07Z</time>
      </trkpt>
      <trkpt lat="43.65536" lon="3.62749">
        <ele>286</ele>
        <time>2020-12-13T10:17:15Z</time>
      </trkpt>
      <trkpt lat="43.65547" lon="3.62741">
        <ele>285</ele>
        <time>2020-12-13T10:17:17Z</time>
      </trkpt>
      <trkpt lat="43.65567" lon="3.62739">
        <ele>283</ele>
        <time>2020-12-13T10:17:20Z</time>
      </trkpt>
      <trkpt lat="43.65597" lon="3.62748">
        <ele>280</ele>
        <time>2020-12-13T10:17:24Z</time>
      </trkpt>
      <trkpt lat="43.65625" lon="3.62769">
        <ele>278</ele>
        <time>2020-12-13T10:17:28Z</time>
      </trkpt>
      <trkpt lat="43.65659" lon="3.6281">
        <ele>276</ele>
        <time>2020-12-13T10:17:34Z</time>
      </trkpt>
      <trkpt lat="43.65663" lon="3.62819">
        <ele>275</ele>
        <time>2020-12-13T10:17:35Z</time>
      </trkpt>
      <trkpt lat="43.6567" lon="3.62844">
        <ele>278</ele>
        <time>2020-12-13T10:17:40Z</time>
      </trkpt>
      <trkpt lat="43.65672" lon="3.62848">
        <ele>278</ele>
        <time>2020-12-13T10:17:41Z</time>
      </trkpt>
      <trkpt lat="43.65675" lon="3.62851">
        <ele>278</ele>
        <time>2020-12-13T10:17:42Z</time>
      </trkpt>
      <trkpt lat="43.65678" lon="3.62853">
        <ele>278</ele>
        <time>2020-12-13T10:17:43Z</time>
      </trkpt>
      <trkpt lat="43.65683" lon="3.62851">
        <ele>279</ele>
        <time>2020-12-13T10:17:45Z</time>
      </trkpt>
      <trkpt lat="43.65685" lon="3.62848">
        <ele>280</ele>
        <time>2020-12-13T10:17:46Z</time>
      </trkpt>
      <trkpt lat="43.65697" lon="3.62819">
        <ele>280</ele>
        <time>2020-12-13T10:17:55Z</time>
      </trkpt>
      <trkpt lat="43.65699" lon="3.62793">
        <ele>281</ele>
        <time>2020-12-13T10:18:03Z</time>
      </trkpt>
      <trkpt lat="43.6568" lon="3.62694">
        <ele>285</ele>
        <time>2020-12-13T10:18:33Z</time>
      </trkpt>
      <trkpt lat="43.65654" lon="3.62588">
        <ele>288</ele>
        <time>2020-12-13T10:19:03Z</time>
      </trkpt>
      <trkpt lat="43.65649" lon="3.62572">
        <ele>290</ele>
        <time>2020-12-13T10:19:09Z</time>
      </trkpt>
      <trkpt lat="43.65649" lon="3.62554">
        <ele>293</ele>
        <time>2020-12-13T10:19:15Z</time>
      </trkpt>
      <trkpt lat="43.65651" lon="3.62541">
        <ele>295</ele>
        <time>2020-12-13T10:19:19Z</time>
      </trkpt>
      <trkpt lat="43.65661" lon="3.6252">
        <ele>298</ele>
        <time>2020-12-13T10:19:27Z</time>
      </trkpt>
      <trkpt lat="43.65673" lon="3.62503">
        <ele>300</ele>
        <time>2020-12-13T10:19:35Z</time>
      </trkpt>
      <trkpt lat="43.65677" lon="3.62499">
        <ele>300</ele>
        <time>2020-12-13T10:19:37Z</time>
      </trkpt>
      <trkpt lat="43.65681" lon="3.62496">
        <ele>301</ele>
        <time>2020-12-13T10:19:39Z</time>
      </trkpt>
      <trkpt lat="43.65685" lon="3.62497">
        <ele>300</ele>
        <time>2020-12-13T10:19:41Z</time>
      </trkpt>
      <trkpt lat="43.65689" lon="3.62502">
        <ele>299</ele>
        <time>2020-12-13T10:19:43Z</time>
      </trkpt>
      <trkpt lat="43.65703" lon="3.62591">
        <ele>302</ele>
        <time>2020-12-13T10:20:13Z</time>
      </trkpt>
      <trkpt lat="43.65724" lon="3.62703">
        <ele>305</ele>
        <time>2020-12-13T10:20:36Z</time>
      </trkpt>
      <trkpt lat="43.65729" lon="3.62713">
        <ele>303</ele>
        <time>2020-12-13T10:20:40Z</time>
      </trkpt>
      <trkpt lat="43.65731" lon="3.62717">
        <ele>303</ele>
        <time>2020-12-13T10:20:42Z</time>
      </trkpt>
      <trkpt lat="43.6574" lon="3.6274">
        <ele>300</ele>
        <time>2020-12-13T10:20:52Z</time>
      </trkpt>
      <trkpt lat="43.65746" lon="3.62761">
        <ele>300</ele>
        <time>2020-12-13T10:21:02Z</time>
      </trkpt>
      <trkpt lat="43.65749" lon="3.62781">
        <ele>303</ele>
        <time>2020-12-13T10:21:12Z</time>
      </trkpt>
      <trkpt lat="43.65754" lon="3.62797">
        <ele>306</ele>
        <time>2020-12-13T10:21:20Z</time>
      </trkpt>
      <trkpt lat="43.65769" lon="3.62833">
        <ele>311</ele>
        <time>2020-12-13T10:21:45Z</time>
      </trkpt>
      <trkpt lat="43.6577" lon="3.62837">
        <ele>311</ele>
        <time>2020-12-13T10:21:47Z</time>
      </trkpt>
      <trkpt lat="43.65773" lon="3.62845">
        <ele>311</ele>
        <time>2020-12-13T10:21:51Z</time>
      </trkpt>
      <trkpt lat="43.65773" lon="3.6285">
        <ele>312</ele>
        <time>2020-12-13T10:21:53Z</time>
      </trkpt>
      <trkpt lat="43.65775" lon="3.6286">
        <ele>313</ele>
        <time>2020-12-13T10:21:57Z</time>
      </trkpt>
      <trkpt lat="43.65776" lon="3.62863">
        <ele>314</ele>
        <time>2020-12-13T10:21:59Z</time>
      </trkpt>
      <trkpt lat="43.65781" lon="3.62871">
        <ele>314</ele>
        <time>2020-12-13T10:22:04Z</time>
      </trkpt>
      <trkpt lat="43.65784" lon="3.62878">
        <ele>316</ele>
        <time>2020-12-13T10:22:09Z</time>
      </trkpt>
      <trkpt lat="43.65784" lon="3.62882">
        <ele>317</ele>
        <time>2020-12-13T10:22:11Z</time>
      </trkpt>
      <trkpt lat="43.65784" lon="3.62893">
        <ele>317</ele>
        <time>2020-12-13T10:22:16Z</time>
      </trkpt>
      <trkpt lat="43.65786" lon="3.62896">
        <ele>318</ele>
        <time>2020-12-13T10:22:18Z</time>
      </trkpt>
      <trkpt lat="43.6579" lon="3.62902">
        <ele>318</ele>
        <time>2020-12-13T10:22:22Z</time>
      </trkpt>
      <trkpt lat="43.65797" lon="3.62918">
        <ele>320</ele>
        <time>2020-12-13T10:22:37Z</time>
      </trkpt>
      <trkpt lat="43.65798" lon="3.62924">
        <ele>320</ele>
        <time>2020-12-13T10:22:39Z</time>
      </trkpt>
      <trkpt lat="43.658" lon="3.6293">
        <ele>320</ele>
        <time>2020-12-13T10:22:41Z</time>
      </trkpt>
      <trkpt lat="43.65802" lon="3.62935">
        <ele>320</ele>
        <time>2020-12-13T10:22:43Z</time>
      </trkpt>
      <trkpt lat="43.65805" lon="3.62937">
        <ele>323</ele>
        <time>2020-12-13T10:22:45Z</time>
      </trkpt>
      <trkpt lat="43.65809" lon="3.62937">
        <ele>324</ele>
        <time>2020-12-13T10:22:47Z</time>
      </trkpt>
      <trkpt lat="43.65811" lon="3.62933">
        <ele>326</ele>
        <time>2020-12-13T10:22:52Z</time>
      </trkpt>
      <trkpt lat="43.65812" lon="3.6293">
        <ele>325</ele>
        <time>2020-12-13T10:22:58Z</time>
      </trkpt>
      <trkpt lat="43.65815" lon="3.62927">
        <ele>324</ele>
        <time>2020-12-13T10:23:02Z</time>
      </trkpt>
      <trkpt lat="43.6582" lon="3.62923">
        <ele>324</ele>
        <time>2020-12-13T10:23:18Z</time>
      </trkpt>
      <trkpt lat="43.65823" lon="3.6292">
        <ele>324</ele>
        <time>2020-12-13T10:23:21Z</time>
      </trkpt>
      <trkpt lat="43.65826" lon="3.62917">
        <ele>327</ele>
        <time>2020-12-13T10:23:23Z</time>
      </trkpt>
      <trkpt lat="43.65844" lon="3.62921">
        <ele>330</ele>
        <time>2020-12-13T10:23:33Z</time>
      </trkpt>
      <trkpt lat="43.65852" lon="3.62924">
        <ele>333</ele>
        <time>2020-12-13T10:23:37Z</time>
      </trkpt>
      <trkpt lat="43.65855" lon="3.62925">
        <ele>333</ele>
        <time>2020-12-13T10:23:39Z</time>
      </trkpt>
      <trkpt lat="43.65859" lon="3.62925">
        <ele>334</ele>
        <time>2020-12-13T10:23:41Z</time>
      </trkpt>
      <trkpt lat="43.65863" lon="3.62927">
        <ele>335</ele>
        <time>2020-12-13T10:23:43Z</time>
      </trkpt>
      <trkpt lat="43.65875" lon="3.62935">
        <ele>336</ele>
        <time>2020-12-13T10:23:51Z</time>
      </trkpt>
      <trkpt lat="43.65894" lon="3.62936">
        <ele>343</ele>
        <time>2020-12-13T10:25:45Z</time>
      </trkpt>
      <trkpt lat="43.65919" lon="3.62938">
        <ele>338</ele>
        <time>2020-12-13T10:25:55Z</time>
      </trkpt>
      <trkpt lat="43.65927" lon="3.62941">
        <ele>337</ele>
        <time>2020-12-13T10:25:59Z</time>
      </trkpt>
      <trkpt lat="43.6593" lon="3.62943">
        <ele>337</ele>
        <time>2020-12-13T10:26:01Z</time>
      </trkpt>
      <trkpt lat="43.65938" lon="3.62945">
        <ele>336</ele>
        <time>2020-12-13T10:26:05Z</time>
      </trkpt>
      <trkpt lat="43.65964" lon="3.62948">
        <ele>341</ele>
        <time>2020-12-13T10:26:17Z</time>
      </trkpt>
      <trkpt lat="43.65975" lon="3.62953">
        <ele>341</ele>
        <time>2020-12-13T10:26:24Z</time>
      </trkpt>
      <trkpt lat="43.65978" lon="3.62956">
        <ele>341</ele>
        <time>2020-12-13T10:26:34Z</time>
      </trkpt>
      <trkpt lat="43.65981" lon="3.62958">
        <ele>342</ele>
        <time>2020-12-13T10:26:36Z</time>
      </trkpt>
      <trkpt lat="43.65994" lon="3.62965">
        <ele>342</ele>
        <time>2020-12-13T10:26:42Z</time>
      </trkpt>
      <trkpt lat="43.66015" lon="3.62972">
        <ele>346</ele>
        <time>2020-12-13T10:26:55Z</time>
      </trkpt>
      <trkpt lat="43.66025" lon="3.6297">
        <ele>348</ele>
        <time>2020-12-13T10:27:01Z</time>
      </trkpt>
      <trkpt lat="43.66027" lon="3.62969">
        <ele>347</ele>
        <time>2020-12-13T10:27:03Z</time>
      </trkpt>
      <trkpt lat="43.66036" lon="3.62956">
        <ele>345</ele>
        <time>2020-12-13T10:27:08Z</time>
      </trkpt>
      <trkpt lat="43.66039" lon="3.62952">
        <ele>345</ele>
        <time>2020-12-13T10:27:09Z</time>
      </trkpt>
      <trkpt lat="43.66041" lon="3.6295">
        <ele>345</ele>
        <time>2020-12-13T10:27:10Z</time>
      </trkpt>
      <trkpt lat="43.66044" lon="3.6295">
        <ele>345</ele>
        <time>2020-12-13T10:27:11Z</time>
      </trkpt>
      <trkpt lat="43.66049" lon="3.62952">
        <ele>346</ele>
        <time>2020-12-13T10:27:13Z</time>
      </trkpt>
      <trkpt lat="43.66056" lon="3.62962">
        <ele>352</ele>
        <time>2020-12-13T10:27:17Z</time>
      </trkpt>
      <trkpt lat="43.66068" lon="3.62974">
        <ele>348</ele>
        <time>2020-12-13T10:27:25Z</time>
      </trkpt>
      <trkpt lat="43.66073" lon="3.62978">
        <ele>348</ele>
        <time>2020-12-13T10:27:30Z</time>
      </trkpt>
      <trkpt lat="43.66076" lon="3.62981">
        <ele>349</ele>
        <time>2020-12-13T10:27:33Z</time>
      </trkpt>
      <trkpt lat="43.66105" lon="3.62994">
        <ele>347</ele>
        <time>2020-12-13T10:28:03Z</time>
      </trkpt>
      <trkpt lat="43.66109" lon="3.62995">
        <ele>346</ele>
        <time>2020-12-13T10:28:05Z</time>
      </trkpt>
      <trkpt lat="43.66134" lon="3.62981">
        <ele>343</ele>
        <time>2020-12-13T10:28:13Z</time>
      </trkpt>
      <trkpt lat="43.66206" lon="3.6297">
        <ele>331</ele>
        <time>2020-12-13T10:28:27Z</time>
      </trkpt>
      <trkpt lat="43.66209" lon="3.62974">
        <ele>332</ele>
        <time>2020-12-13T10:28:29Z</time>
      </trkpt>
      <trkpt lat="43.6621" lon="3.62978">
        <ele>331</ele>
        <time>2020-12-13T10:28:30Z</time>
      </trkpt>
      <trkpt lat="43.66217" lon="3.62992">
        <ele>331</ele>
        <time>2020-12-13T10:28:35Z</time>
      </trkpt>
      <trkpt lat="43.66221" lon="3.62994">
        <ele>334</ele>
        <time>2020-12-13T10:28:37Z</time>
      </trkpt>
      <trkpt lat="43.66236" lon="3.62988">
        <ele>337</ele>
        <time>2020-12-13T10:28:42Z</time>
      </trkpt>
      <trkpt lat="43.66274" lon="3.62965">
        <ele>342</ele>
        <time>2020-12-13T10:29:01Z</time>
      </trkpt>
      <trkpt lat="43.66279" lon="3.62957">
        <ele>342</ele>
        <time>2020-12-13T10:29:05Z</time>
      </trkpt>
      <trkpt lat="43.6629" lon="3.62943">
        <ele>343</ele>
        <time>2020-12-13T10:29:13Z</time>
      </trkpt>
      <trkpt lat="43.66294" lon="3.62936">
        <ele>344</ele>
        <time>2020-12-13T10:29:17Z</time>
      </trkpt>
      <trkpt lat="43.66303" lon="3.62918">
        <ele>344</ele>
        <time>2020-12-13T10:29:25Z</time>
      </trkpt>
      <trkpt lat="43.66306" lon="3.62912">
        <ele>345</ele>
        <time>2020-12-13T10:29:29Z</time>
      </trkpt>
      <trkpt lat="43.66314" lon="3.62906">
        <ele>346</ele>
        <time>2020-12-13T10:29:35Z</time>
      </trkpt>
      <trkpt lat="43.66322" lon="3.62896">
        <ele>347</ele>
        <time>2020-12-13T10:29:41Z</time>
      </trkpt>
      <trkpt lat="43.66335" lon="3.62884">
        <ele>347</ele>
        <time>2020-12-13T10:29:49Z</time>
      </trkpt>
      <trkpt lat="43.66342" lon="3.62872">
        <ele>347</ele>
        <time>2020-12-13T10:29:55Z</time>
      </trkpt>
      <trkpt lat="43.66344" lon="3.62868">
        <ele>347</ele>
        <time>2020-12-13T10:29:57Z</time>
      </trkpt>
      <trkpt lat="43.66345" lon="3.62859">
        <ele>346</ele>
        <time>2020-12-13T10:30:01Z</time>
      </trkpt>
      <trkpt lat="43.66347" lon="3.62855">
        <ele>346</ele>
        <time>2020-12-13T10:30:03Z</time>
      </trkpt>
      <trkpt lat="43.66351" lon="3.62841">
        <ele>342</ele>
        <time>2020-12-13T10:30:09Z</time>
      </trkpt>
      <trkpt lat="43.66357" lon="3.62821">
        <ele>341</ele>
        <time>2020-12-13T10:30:15Z</time>
      </trkpt>
      <trkpt lat="43.66364" lon="3.62806">
        <ele>340</ele>
        <time>2020-12-13T10:30:19Z</time>
      </trkpt>
      <trkpt lat="43.66394" lon="3.62766">
        <ele>339</ele>
        <time>2020-12-13T10:30:32Z</time>
      </trkpt>
      <trkpt lat="43.6641" lon="3.62752">
        <ele>338</ele>
        <time>2020-12-13T10:30:37Z</time>
      </trkpt>
      <trkpt lat="43.66433" lon="3.62702">
        <ele>334</ele>
        <time>2020-12-13T10:30:47Z</time>
      </trkpt>
      <trkpt lat="43.66437" lon="3.6269">
        <ele>333</ele>
        <time>2020-12-13T10:30:49Z</time>
      </trkpt>
      <trkpt lat="43.66441" lon="3.62679">
        <ele>332</ele>
        <time>2020-12-13T10:30:51Z</time>
      </trkpt>
      <trkpt lat="43.66459" lon="3.62653">
        <ele>329</ele>
        <time>2020-12-13T10:30:57Z</time>
      </trkpt>
      <trkpt lat="43.66465" lon="3.62602">
        <ele>327</ele>
        <time>2020-12-13T10:31:07Z</time>
      </trkpt>
      <trkpt lat="43.66467" lon="3.62596">
        <ele>327</ele>
        <time>2020-12-13T10:31:08Z</time>
      </trkpt>
      <trkpt lat="43.66469" lon="3.62585">
        <ele>326</ele>
        <time>2020-12-13T10:31:10Z</time>
      </trkpt>
      <trkpt lat="43.66465" lon="3.62564">
        <ele>324</ele>
        <time>2020-12-13T10:31:14Z</time>
      </trkpt>
      <trkpt lat="43.66464" lon="3.62549">
        <ele>319</ele>
        <time>2020-12-13T10:31:17Z</time>
      </trkpt>
      <trkpt lat="43.66464" lon="3.62545">
        <ele>318</ele>
        <time>2020-12-13T10:31:18Z</time>
      </trkpt>
      <trkpt lat="43.6648" lon="3.62521">
        <ele>318</ele>
        <time>2020-12-13T10:31:25Z</time>
      </trkpt>
      <trkpt lat="43.66483" lon="3.62518">
        <ele>318</ele>
        <time>2020-12-13T10:31:26Z</time>
      </trkpt>
      <trkpt lat="43.66487" lon="3.62515">
        <ele>316</ele>
        <time>2020-12-13T10:31:28Z</time>
      </trkpt>
      <trkpt lat="43.66488" lon="3.62511">
        <ele>317</ele>
        <time>2020-12-13T10:31:55Z</time>
      </trkpt>
      <trkpt lat="43.6649" lon="3.62505">
        <ele>316</ele>
        <time>2020-12-13T10:31:57Z</time>
      </trkpt>
      <trkpt lat="43.66488" lon="3.625">
        <ele>314</ele>
        <time>2020-12-13T10:31:59Z</time>
      </trkpt>
      <trkpt lat="43.66478" lon="3.62495">
        <ele>312</ele>
        <time>2020-12-13T10:32:03Z</time>
      </trkpt>
      <trkpt lat="43.66474" lon="3.62491">
        <ele>312</ele>
        <time>2020-12-13T10:32:05Z</time>
      </trkpt>
      <trkpt lat="43.6647" lon="3.62486">
        <ele>311</ele>
        <time>2020-12-13T10:32:07Z</time>
      </trkpt>
      <trkpt lat="43.66466" lon="3.62484">
        <ele>310</ele>
        <time>2020-12-13T10:32:09Z</time>
      </trkpt>
      <trkpt lat="43.66449" lon="3.62485">
        <ele>310</ele>
        <time>2020-12-13T10:32:15Z</time>
      </trkpt>
      <trkpt lat="43.66447" lon="3.62482">
        <ele>310</ele>
        <time>2020-12-13T10:32:17Z</time>
      </trkpt>
      <trkpt lat="43.66447" lon="3.62476">
        <ele>311</ele>
        <time>2020-12-13T10:32:19Z</time>
      </trkpt>
      <trkpt lat="43.66449" lon="3.6247">
        <ele>311</ele>
        <time>2020-12-13T10:32:21Z</time>
      </trkpt>
      <trkpt lat="43.66453" lon="3.62459">
        <ele>309</ele>
        <time>2020-12-13T10:32:24Z</time>
      </trkpt>
      <trkpt lat="43.66455" lon="3.62444">
        <ele>307</ele>
        <time>2020-12-13T10:32:27Z</time>
      </trkpt>
      <trkpt lat="43.66466" lon="3.62427">
        <ele>306</ele>
        <time>2020-12-13T10:32:32Z</time>
      </trkpt>
      <trkpt lat="43.66468" lon="3.62425">
        <ele>306</ele>
        <time>2020-12-13T10:32:33Z</time>
      </trkpt>
      <trkpt lat="43.66471" lon="3.6242">
        <ele>305</ele>
        <time>2020-12-13T10:32:35Z</time>
      </trkpt>
      <trkpt lat="43.66479" lon="3.62388">
        <ele>301</ele>
        <time>2020-12-13T10:32:45Z</time>
      </trkpt>
      <trkpt lat="43.66482" lon="3.6238">
        <ele>300</ele>
        <time>2020-12-13T10:32:48Z</time>
      </trkpt>
      <trkpt lat="43.66483" lon="3.62375">
        <ele>300</ele>
        <time>2020-12-13T10:32:50Z</time>
      </trkpt>
      <trkpt lat="43.66482" lon="3.6237">
        <ele>299</ele>
        <time>2020-12-13T10:32:52Z</time>
      </trkpt>
      <trkpt lat="43.6648" lon="3.62366">
        <ele>298</ele>
        <time>2020-12-13T10:32:54Z</time>
      </trkpt>
      <trkpt lat="43.66481" lon="3.62361">
        <ele>297</ele>
        <time>2020-12-13T10:32:56Z</time>
      </trkpt>
      <trkpt lat="43.66478" lon="3.62357">
        <ele>298</ele>
        <time>2020-12-13T10:32:58Z</time>
      </trkpt>
      <trkpt lat="43.66476" lon="3.62354">
        <ele>298</ele>
        <time>2020-12-13T10:33:00Z</time>
      </trkpt>
      <trkpt lat="43.66476" lon="3.6235">
        <ele>297</ele>
        <time>2020-12-13T10:33:02Z</time>
      </trkpt>
      <trkpt lat="43.66477" lon="3.62346">
        <ele>296</ele>
        <time>2020-12-13T10:33:04Z</time>
      </trkpt>
      <trkpt lat="43.66475" lon="3.62341">
        <ele>296</ele>
        <time>2020-12-13T10:33:06Z</time>
      </trkpt>
      <trkpt lat="43.66472" lon="3.62337">
        <ele>293</ele>
        <time>2020-12-13T10:33:08Z</time>
      </trkpt>
      <trkpt lat="43.66476" lon="3.62322">
        <ele>291</ele>
        <time>2020-12-13T10:33:14Z</time>
      </trkpt>
      <trkpt lat="43.66485" lon="3.62304">
        <ele>290</ele>
        <time>2020-12-13T10:33:21Z</time>
      </trkpt>
      <trkpt lat="43.66486" lon="3.623">
        <ele>289</ele>
        <time>2020-12-13T10:33:23Z</time>
      </trkpt>
      <trkpt lat="43.66482" lon="3.62294">
        <ele>288</ele>
        <time>2020-12-13T10:33:25Z</time>
      </trkpt>
      <trkpt lat="43.66479" lon="3.62288">
        <ele>287</ele>
        <time>2020-12-13T10:33:27Z</time>
      </trkpt>
      <trkpt lat="43.66477" lon="3.62283">
        <ele>284</ele>
        <time>2020-12-13T10:33:29Z</time>
      </trkpt>
      <trkpt lat="43.6648" lon="3.62272">
        <ele>285</ele>
        <time>2020-12-13T10:33:32Z</time>
      </trkpt>
      <trkpt lat="43.66485" lon="3.62266">
        <ele>283</ele>
        <time>2020-12-13T10:33:34Z</time>
      </trkpt>
      <trkpt lat="43.66488" lon="3.62264">
        <ele>283</ele>
        <time>2020-12-13T10:33:35Z</time>
      </trkpt>
      <trkpt lat="43.6649" lon="3.6226">
        <ele>282</ele>
        <time>2020-12-13T10:33:37Z</time>
      </trkpt>
      <trkpt lat="43.66489" lon="3.62249">
        <ele>280</ele>
        <time>2020-12-13T10:33:40Z</time>
      </trkpt>
      <trkpt lat="43.66488" lon="3.62246">
        <ele>280</ele>
        <time>2020-12-13T10:33:41Z</time>
      </trkpt>
      <trkpt lat="43.66491" lon="3.6224">
        <ele>281</ele>
        <time>2020-12-13T10:33:43Z</time>
      </trkpt>
      <trkpt lat="43.66496" lon="3.62237">
        <ele>280</ele>
        <time>2020-12-13T10:33:45Z</time>
      </trkpt>
      <trkpt lat="43.66502" lon="3.62224">
        <ele>278</ele>
        <time>2020-12-13T10:33:49Z</time>
      </trkpt>
      <trkpt lat="43.66505" lon="3.62218">
        <ele>278</ele>
        <time>2020-12-13T10:33:51Z</time>
      </trkpt>
      <trkpt lat="43.66508" lon="3.62213">
        <ele>279</ele>
        <time>2020-12-13T10:33:53Z</time>
      </trkpt>
      <trkpt lat="43.66511" lon="3.62211">
        <ele>279</ele>
        <time>2020-12-13T10:33:55Z</time>
      </trkpt>
      <trkpt lat="43.66515" lon="3.62211">
        <ele>278</ele>
        <time>2020-12-13T10:33:57Z</time>
      </trkpt>
      <trkpt lat="43.66523" lon="3.6221">
        <ele>278</ele>
        <time>2020-12-13T10:34:00Z</time>
      </trkpt>
      <trkpt lat="43.66529" lon="3.62211">
        <ele>278</ele>
        <time>2020-12-13T10:34:02Z</time>
      </trkpt>
      <trkpt lat="43.66532" lon="3.62212">
        <ele>278</ele>
        <time>2020-12-13T10:34:03Z</time>
      </trkpt>
      <trkpt lat="43.66536" lon="3.62212">
        <ele>279</ele>
        <time>2020-12-13T10:34:05Z</time>
      </trkpt>
      <trkpt lat="43.66538" lon="3.62206">
        <ele>280</ele>
        <time>2020-12-13T10:34:07Z</time>
      </trkpt>
      <trkpt lat="43.66537" lon="3.62182">
        <ele>279</ele>
        <time>2020-12-13T10:34:12Z</time>
      </trkpt>
      <trkpt lat="43.66538" lon="3.62177">
        <ele>279</ele>
        <time>2020-12-13T10:34:13Z</time>
      </trkpt>
      <trkpt lat="43.66542" lon="3.62168">
        <ele>278</ele>
        <time>2020-12-13T10:34:15Z</time>
      </trkpt>
      <trkpt lat="43.66544" lon="3.62163">
        <ele>277</ele>
        <time>2020-12-13T10:34:16Z</time>
      </trkpt>
      <trkpt lat="43.66547" lon="3.62137">
        <ele>273</ele>
        <time>2020-12-13T10:34:21Z</time>
      </trkpt>
      <trkpt lat="43.6655" lon="3.62127">
        <ele>224</ele>
        <time>2020-12-13T10:34:23Z</time>
      </trkpt>
      <trkpt lat="43.66552" lon="3.62123">
        <ele>216</ele>
        <time>2020-12-13T10:34:24Z</time>
      </trkpt>
      <trkpt lat="43.66554" lon="3.6212">
        <ele>215</ele>
        <time>2020-12-13T10:34:25Z</time>
      </trkpt>
      <trkpt lat="43.66554" lon="3.62113">
        <ele>223</ele>
        <time>2020-12-13T10:34:27Z</time>
      </trkpt>
      <trkpt lat="43.66556" lon="3.62106">
        <ele>232</ele>
        <time>2020-12-13T10:34:29Z</time>
      </trkpt>
      <trkpt lat="43.66563" lon="3.62095">
        <ele>243</ele>
        <time>2020-12-13T10:34:32Z</time>
      </trkpt>
      <trkpt lat="43.66571" lon="3.62074">
        <ele>251</ele>
        <time>2020-12-13T10:34:37Z</time>
      </trkpt>
      <trkpt lat="43.66586" lon="3.62005">
        <ele>252</ele>
        <time>2020-12-13T10:34:51Z</time>
      </trkpt>
      <trkpt lat="43.66596" lon="3.61979">
        <ele>250</ele>
        <time>2020-12-13T10:34:57Z</time>
      </trkpt>
      <trkpt lat="43.666" lon="3.61973">
        <ele>250</ele>
        <time>2020-12-13T10:34:59Z</time>
      </trkpt>
      <trkpt lat="43.66606" lon="3.61958">
        <ele>249</ele>
        <time>2020-12-13T10:35:02Z</time>
      </trkpt>
      <trkpt lat="43.66618" lon="3.6194">
        <ele>244</ele>
        <time>2020-12-13T10:35:08Z</time>
      </trkpt>
      <trkpt lat="43.66623" lon="3.61926">
        <ele>244</ele>
        <time>2020-12-13T10:35:11Z</time>
      </trkpt>
      <trkpt lat="43.66625" lon="3.61917">
        <ele>245</ele>
        <time>2020-12-13T10:35:13Z</time>
      </trkpt>
      <trkpt lat="43.66625" lon="3.61908">
        <ele>244</ele>
        <time>2020-12-13T10:35:16Z</time>
      </trkpt>
      <trkpt lat="43.66627" lon="3.61902">
        <ele>243</ele>
        <time>2020-12-13T10:35:18Z</time>
      </trkpt>
      <trkpt lat="43.66629" lon="3.61895">
        <ele>239</ele>
        <time>2020-12-13T10:35:20Z</time>
      </trkpt>
      <trkpt lat="43.66628" lon="3.61867">
        <ele>235</ele>
        <time>2020-12-13T10:35:25Z</time>
      </trkpt>
      <trkpt lat="43.66621" lon="3.61844">
        <ele>226</ele>
        <time>2020-12-13T10:35:30Z</time>
      </trkpt>
      <trkpt lat="43.66622" lon="3.61809">
        <ele>221</ele>
        <time>2020-12-13T10:35:36Z</time>
      </trkpt>
      <trkpt lat="43.66622" lon="3.61796">
        <ele>219</ele>
        <time>2020-12-13T10:35:39Z</time>
      </trkpt>
      <trkpt lat="43.66625" lon="3.61765">
        <ele>216</ele>
        <time>2020-12-13T10:35:45Z</time>
      </trkpt>
      <trkpt lat="43.66626" lon="3.61761">
        <ele>216</ele>
        <time>2020-12-13T10:35:46Z</time>
      </trkpt>
      <trkpt lat="43.66631" lon="3.61747">
        <ele>215</ele>
        <time>2020-12-13T10:35:49Z</time>
      </trkpt>
      <trkpt lat="43.66636" lon="3.61732">
        <ele>212</ele>
        <time>2020-12-13T10:35:52Z</time>
      </trkpt>
      <trkpt lat="43.66646" lon="3.6171">
        <ele>212</ele>
        <time>2020-12-13T10:35:57Z</time>
      </trkpt>
      <trkpt lat="43.66673" lon="3.61673">
        <ele>212</ele>
        <time>2020-12-13T10:36:08Z</time>
      </trkpt>
      <trkpt lat="43.66676" lon="3.61667">
        <ele>212</ele>
        <time>2020-12-13T10:36:10Z</time>
      </trkpt>
      <trkpt lat="43.66678" lon="3.61661">
        <ele>212</ele>
        <time>2020-12-13T10:36:12Z</time>
      </trkpt>
      <trkpt lat="43.66681" lon="3.61658">
        <ele>211</ele>
        <time>2020-12-13T10:36:14Z</time>
      </trkpt>
      <trkpt lat="43.66686" lon="3.61656">
        <ele>209</ele>
        <time>2020-12-13T10:36:16Z</time>
      </trkpt>
      <trkpt lat="43.66696" lon="3.6164">
        <ele>205</ele>
        <time>2020-12-13T10:36:24Z</time>
      </trkpt>
      <trkpt lat="43.66705" lon="3.61627">
        <ele>202</ele>
        <time>2020-12-13T10:36:30Z</time>
      </trkpt>
      <trkpt lat="43.66708" lon="3.6162">
        <ele>200</ele>
        <time>2020-12-13T10:36:32Z</time>
      </trkpt>
      <trkpt lat="43.66708" lon="3.61616">
        <ele>199</ele>
        <time>2020-12-13T10:36:33Z</time>
      </trkpt>
      <trkpt lat="43.66707" lon="3.61606">
        <ele>197</ele>
        <time>2020-12-13T10:36:36Z</time>
      </trkpt>
      <trkpt lat="43.66707" lon="3.61601">
        <ele>197</ele>
        <time>2020-12-13T10:36:38Z</time>
      </trkpt>
      <trkpt lat="43.66709" lon="3.61593">
        <ele>196</ele>
        <time>2020-12-13T10:36:42Z</time>
      </trkpt>
      <trkpt lat="43.6671" lon="3.61587">
        <ele>194</ele>
        <time>2020-12-13T10:36:45Z</time>
      </trkpt>
      <trkpt lat="43.6671" lon="3.6158">
        <ele>193</ele>
        <time>2020-12-13T10:36:47Z</time>
      </trkpt>
      <trkpt lat="43.66713" lon="3.61567">
        <ele>190</ele>
        <time>2020-12-13T10:36:51Z</time>
      </trkpt>
      <trkpt lat="43.66713" lon="3.61561">
        <ele>189</ele>
        <time>2020-12-13T10:36:53Z</time>
      </trkpt>
      <trkpt lat="43.66713" lon="3.61556">
        <ele>186</ele>
        <time>2020-12-13T10:36:55Z</time>
      </trkpt>
      <trkpt lat="43.66714" lon="3.61551">
        <ele>185</ele>
        <time>2020-12-13T10:36:57Z</time>
      </trkpt>
      <trkpt lat="43.66712" lon="3.61546">
        <ele>184</ele>
        <time>2020-12-13T10:36:59Z</time>
      </trkpt>
      <trkpt lat="43.6671" lon="3.61541">
        <ele>184</ele>
        <time>2020-12-13T10:37:01Z</time>
      </trkpt>
      <trkpt lat="43.66711" lon="3.61536">
        <ele>184</ele>
        <time>2020-12-13T10:37:03Z</time>
      </trkpt>
      <trkpt lat="43.66739" lon="3.61539">
        <ele>175</ele>
        <time>2020-12-13T10:37:24Z</time>
      </trkpt>
      <trkpt lat="43.66742" lon="3.61549">
        <ele>174</ele>
        <time>2020-12-13T10:37:54Z</time>
      </trkpt>
      <trkpt lat="43.66744" lon="3.61554">
        <ele>173</ele>
        <time>2020-12-13T10:37:56Z</time>
      </trkpt>
      <trkpt lat="43.6675" lon="3.61585">
        <ele>172</ele>
        <time>2020-12-13T10:38:06Z</time>
      </trkpt>
      <trkpt lat="43.6675" lon="3.616">
        <ele>175</ele>
        <time>2020-12-13T10:38:12Z</time>
      </trkpt>
      <trkpt lat="43.66754" lon="3.61637">
        <ele>181</ele>
        <time>2020-12-13T10:38:26Z</time>
      </trkpt>
      <trkpt lat="43.66755" lon="3.61642">
        <ele>182</ele>
        <time>2020-12-13T10:38:28Z</time>
      </trkpt>
      <trkpt lat="43.66765" lon="3.6172">
        <ele>181</ele>
        <time>2020-12-13T10:38:58Z</time>
      </trkpt>
      <trkpt lat="43.66773" lon="3.61747">
        <ele>182</ele>
        <time>2020-12-13T10:39:10Z</time>
      </trkpt>
      <trkpt lat="43.66777" lon="3.61803">
        <ele>188</ele>
        <time>2020-12-13T10:39:34Z</time>
      </trkpt>
      <trkpt lat="43.66777" lon="3.61808">
        <ele>188</ele>
        <time>2020-12-13T10:39:36Z</time>
      </trkpt>
      <trkpt lat="43.66781" lon="3.61851">
        <ele>194</ele>
        <time>2020-12-13T10:39:54Z</time>
      </trkpt>
      <trkpt lat="43.6678" lon="3.61892">
        <ele>195</ele>
        <time>2020-12-13T10:40:10Z</time>
      </trkpt>
      <trkpt lat="43.66778" lon="3.61907">
        <ele>193</ele>
        <time>2020-12-13T10:40:16Z</time>
      </trkpt>
      <trkpt lat="43.66778" lon="3.61937">
        <ele>197</ele>
        <time>2020-12-13T10:40:28Z</time>
      </trkpt>
      <trkpt lat="43.66778" lon="3.61943">
        <ele>198</ele>
        <time>2020-12-13T10:40:30Z</time>
      </trkpt>
      <trkpt lat="43.66778" lon="3.61969">
        <ele>198</ele>
        <time>2020-12-13T10:40:40Z</time>
      </trkpt>
      <trkpt lat="43.66775" lon="3.62">
        <ele>202</ele>
        <time>2020-12-13T10:40:54Z</time>
      </trkpt>
      <trkpt lat="43.66771" lon="3.6205">
        <ele>210</ele>
        <time>2020-12-13T10:41:16Z</time>
      </trkpt>
      <trkpt lat="43.66759" lon="3.62126">
        <ele>217</ele>
        <time>2020-12-13T10:41:46Z</time>
      </trkpt>
      <trkpt lat="43.66759" lon="3.62131">
        <ele>217</ele>
        <time>2020-12-13T10:41:48Z</time>
      </trkpt>
      <trkpt lat="43.66758" lon="3.62135">
        <ele>218</ele>
        <time>2020-12-13T10:41:50Z</time>
      </trkpt>
      <trkpt lat="43.66748" lon="3.62167">
        <ele>225</ele>
        <time>2020-12-13T10:42:06Z</time>
      </trkpt>
      <trkpt lat="43.66742" lon="3.62215">
        <ele>228</ele>
        <time>2020-12-13T10:42:27Z</time>
      </trkpt>
      <trkpt lat="43.6674" lon="3.62227">
        <ele>229</ele>
        <time>2020-12-13T10:42:33Z</time>
      </trkpt>
      <trkpt lat="43.66741" lon="3.62245">
        <ele>230</ele>
        <time>2020-12-13T10:42:41Z</time>
      </trkpt>
      <trkpt lat="43.66739" lon="3.62268">
        <ele>230</ele>
        <time>2020-12-13T10:42:49Z</time>
      </trkpt>
      <trkpt lat="43.66738" lon="3.62278">
        <ele>229</ele>
        <time>2020-12-13T10:42:53Z</time>
      </trkpt>
      <trkpt lat="43.6674" lon="3.62295">
        <ele>228</ele>
        <time>2020-12-13T10:42:59Z</time>
      </trkpt>
      <trkpt lat="43.66742" lon="3.62322">
        <ele>231</ele>
        <time>2020-12-13T10:43:09Z</time>
      </trkpt>
      <trkpt lat="43.66742" lon="3.62334">
        <ele>232</ele>
        <time>2020-12-13T10:43:13Z</time>
      </trkpt>
      <trkpt lat="43.66741" lon="3.62356">
        <ele>234</ele>
        <time>2020-12-13T10:43:21Z</time>
      </trkpt>
      <trkpt lat="43.66741" lon="3.62362">
        <ele>235</ele>
        <time>2020-12-13T10:43:23Z</time>
      </trkpt>
      <trkpt lat="43.66739" lon="3.62388">
        <ele>235</ele>
        <time>2020-12-13T10:43:31Z</time>
      </trkpt>
      <trkpt lat="43.66738" lon="3.62414">
        <ele>234</ele>
        <time>2020-12-13T10:43:41Z</time>
      </trkpt>
      <trkpt lat="43.66738" lon="3.62419">
        <ele>235</ele>
        <time>2020-12-13T10:43:43Z</time>
      </trkpt>
      <trkpt lat="43.66738" lon="3.62424">
        <ele>236</ele>
        <time>2020-12-13T10:43:45Z</time>
      </trkpt>
      <trkpt lat="43.66737" lon="3.62435">
        <ele>237</ele>
        <time>2020-12-13T10:43:49Z</time>
      </trkpt>
      <trkpt lat="43.66718" lon="3.62534">
        <ele>239</ele>
        <time>2020-12-13T10:44:20Z</time>
      </trkpt>
      <trkpt lat="43.66715" lon="3.62552">
        <ele>241</ele>
        <time>2020-12-13T10:44:25Z</time>
      </trkpt>
      <trkpt lat="43.66713" lon="3.62576">
        <ele>241</ele>
        <time>2020-12-13T10:44:31Z</time>
      </trkpt>
      <trkpt lat="43.66716" lon="3.62648">
        <ele>234</ele>
        <time>2020-12-13T10:44:45Z</time>
      </trkpt>
      <trkpt lat="43.66709" lon="3.62699">
        <ele>233</ele>
        <time>2020-12-13T10:44:52Z</time>
      </trkpt>
      <trkpt lat="43.66686" lon="3.62798">
        <ele>232</ele>
        <time>2020-12-13T10:45:14Z</time>
      </trkpt>
      <trkpt lat="43.66685" lon="3.62802">
        <ele>232</ele>
        <time>2020-12-13T10:45:16Z</time>
      </trkpt>
      <trkpt lat="43.66682" lon="3.62804">
        <ele>233</ele>
        <time>2020-12-13T10:45:18Z</time>
      </trkpt>
      <trkpt lat="43.66679" lon="3.62804">
        <ele>233</ele>
        <time>2020-12-13T10:45:21Z</time>
      </trkpt>
      <trkpt lat="43.66676" lon="3.62801">
        <ele>237</ele>
        <time>2020-12-13T10:45:58Z</time>
      </trkpt>
      <trkpt lat="43.66672" lon="3.62779">
        <ele>240</ele>
        <time>2020-12-13T10:46:06Z</time>
      </trkpt>
      <trkpt lat="43.66671" lon="3.62774">
        <ele>240</ele>
        <time>2020-12-13T10:46:08Z</time>
      </trkpt>
      <trkpt lat="43.6667" lon="3.62768">
        <ele>240</ele>
        <time>2020-12-13T10:46:10Z</time>
      </trkpt>
      <trkpt lat="43.66657" lon="3.62742">
        <ele>246</ele>
        <time>2020-12-13T10:46:23Z</time>
      </trkpt>
      <trkpt lat="43.66651" lon="3.62717">
        <ele>248</ele>
        <time>2020-12-13T10:46:35Z</time>
      </trkpt>
      <trkpt lat="43.6665" lon="3.62712">
        <ele>250</ele>
        <time>2020-12-13T10:46:37Z</time>
      </trkpt>
      <trkpt lat="43.6665" lon="3.62702">
        <ele>252</ele>
        <time>2020-12-13T10:46:41Z</time>
      </trkpt>
      <trkpt lat="43.6665" lon="3.62694">
        <ele>252</ele>
        <time>2020-12-13T10:46:45Z</time>
      </trkpt>
      <trkpt lat="43.66654" lon="3.6267">
        <ele>256</ele>
        <time>2020-12-13T10:46:58Z</time>
      </trkpt>
      <trkpt lat="43.66659" lon="3.62661">
        <ele>259</ele>
        <time>2020-12-13T10:47:04Z</time>
      </trkpt>
      <trkpt lat="43.66662" lon="3.62658">
        <ele>258</ele>
        <time>2020-12-13T10:47:06Z</time>
      </trkpt>
      <trkpt lat="43.66664" lon="3.62656">
        <ele>258</ele>
        <time>2020-12-13T10:47:08Z</time>
      </trkpt>
      <trkpt lat="43.66667" lon="3.62654">
        <ele>259</ele>
        <time>2020-12-13T10:47:10Z</time>
      </trkpt>
      <trkpt lat="43.66668" lon="3.6265">
        <ele>260</ele>
        <time>2020-12-13T10:47:12Z</time>
      </trkpt>
      <trkpt lat="43.66668" lon="3.62645">
        <ele>260</ele>
        <time>2020-12-13T10:47:14Z</time>
      </trkpt>
      <trkpt lat="43.66665" lon="3.62642">
        <ele>261</ele>
        <time>2020-12-13T10:47:16Z</time>
      </trkpt>
      <trkpt lat="43.66661" lon="3.62642">
        <ele>262</ele>
        <time>2020-12-13T10:47:18Z</time>
      </trkpt>
      <trkpt lat="43.66654" lon="3.62646">
        <ele>262</ele>
        <time>2020-12-13T10:47:22Z</time>
      </trkpt>
      <trkpt lat="43.66645" lon="3.62656">
        <ele>265</ele>
        <time>2020-12-13T10:47:28Z</time>
      </trkpt>
      <trkpt lat="43.66643" lon="3.6266">
        <ele>265</ele>
        <time>2020-12-13T10:47:30Z</time>
      </trkpt>
      <trkpt lat="43.66626" lon="3.62689">
        <ele>266</ele>
        <time>2020-12-13T10:47:47Z</time>
      </trkpt>
      <trkpt lat="43.66624" lon="3.62693">
        <ele>268</ele>
        <time>2020-12-13T10:47:50Z</time>
      </trkpt>
      <trkpt lat="43.66622" lon="3.62696">
        <ele>267</ele>
        <time>2020-12-13T10:47:52Z</time>
      </trkpt>
      <trkpt lat="43.6662" lon="3.627">
        <ele>267</ele>
        <time>2020-12-13T10:47:54Z</time>
      </trkpt>
      <trkpt lat="43.66615" lon="3.62711">
        <ele>267</ele>
        <time>2020-12-13T10:48:00Z</time>
      </trkpt>
      <trkpt lat="43.66614" lon="3.62715">
        <ele>266</ele>
        <time>2020-12-13T10:48:02Z</time>
      </trkpt>
      <trkpt lat="43.66608" lon="3.62726">
        <ele>267</ele>
        <time>2020-12-13T10:48:09Z</time>
      </trkpt>
      <trkpt lat="43.66595" lon="3.62761">
        <ele>270</ele>
        <time>2020-12-13T10:48:28Z</time>
      </trkpt>
      <trkpt lat="43.6659" lon="3.62772">
        <ele>273</ele>
        <time>2020-12-13T10:48:34Z</time>
      </trkpt>
      <trkpt lat="43.66588" lon="3.62775">
        <ele>273</ele>
        <time>2020-12-13T10:48:36Z</time>
      </trkpt>
      <trkpt lat="43.66565" lon="3.62825">
        <ele>277</ele>
        <time>2020-12-13T10:49:06Z</time>
      </trkpt>
      <trkpt lat="43.66563" lon="3.62829">
        <ele>278</ele>
        <time>2020-12-13T10:49:09Z</time>
      </trkpt>
      <trkpt lat="43.6656" lon="3.62833">
        <ele>280</ele>
        <time>2020-12-13T10:49:12Z</time>
      </trkpt>
      <trkpt lat="43.66558" lon="3.62837">
        <ele>281</ele>
        <time>2020-12-13T10:49:15Z</time>
      </trkpt>
      <trkpt lat="43.66554" lon="3.62844">
        <ele>283</ele>
        <time>2020-12-13T10:49:19Z</time>
      </trkpt>
      <trkpt lat="43.66524" lon="3.6289">
        <ele>288</ele>
        <time>2020-12-13T10:49:50Z</time>
      </trkpt>
      <trkpt lat="43.66514" lon="3.62904">
        <ele>289</ele>
        <time>2020-12-13T10:49:59Z</time>
      </trkpt>
      <trkpt lat="43.665" lon="3.62923">
        <ele>290</ele>
        <time>2020-12-13T10:50:11Z</time>
      </trkpt>
      <trkpt lat="43.66495" lon="3.62929">
        <ele>289</ele>
        <time>2020-12-13T10:50:15Z</time>
      </trkpt>
      <trkpt lat="43.6647" lon="3.62958">
        <ele>291</ele>
        <time>2020-12-13T10:50:36Z</time>
      </trkpt>
      <trkpt lat="43.66459" lon="3.6297">
        <ele>291</ele>
        <time>2020-12-13T10:50:48Z</time>
      </trkpt>
      <trkpt lat="43.6643" lon="3.63006">
        <ele>301</ele>
        <time>2020-12-13T10:51:11Z</time>
      </trkpt>
      <trkpt lat="43.66424" lon="3.63012">
        <ele>300</ele>
        <time>2020-12-13T10:51:15Z</time>
      </trkpt>
      <trkpt lat="43.66421" lon="3.63014">
        <ele>301</ele>
        <time>2020-12-13T10:51:17Z</time>
      </trkpt>
      <trkpt lat="43.66419" lon="3.63016">
        <ele>301</ele>
        <time>2020-12-13T10:51:19Z</time>
      </trkpt>
      <trkpt lat="43.66402" lon="3.63032">
        <ele>302</ele>
        <time>2020-12-13T10:51:32Z</time>
      </trkpt>
      <trkpt lat="43.66382" lon="3.63043">
        <ele>299</ele>
        <time>2020-12-13T10:51:44Z</time>
      </trkpt>
      <trkpt lat="43.66352" lon="3.63047">
        <ele>303</ele>
        <time>2020-12-13T10:52:00Z</time>
      </trkpt>
      <trkpt lat="43.6634" lon="3.63053">
        <ele>305</ele>
        <time>2020-12-13T10:52:06Z</time>
      </trkpt>
      <trkpt lat="43.66323" lon="3.63065">
        <ele>306</ele>
        <time>2020-12-13T10:52:16Z</time>
      </trkpt>
      <trkpt lat="43.66307" lon="3.63073">
        <ele>305</ele>
        <time>2020-12-13T10:52:24Z</time>
      </trkpt>
      <trkpt lat="43.66231" lon="3.63114">
        <ele>310</ele>
        <time>2020-12-13T10:52:49Z</time>
      </trkpt>
      <trkpt lat="43.6619" lon="3.63127">
        <ele>307</ele>
        <time>2020-12-13T10:53:00Z</time>
      </trkpt>
      <trkpt lat="43.66114" lon="3.63179">
        <ele>307</ele>
        <time>2020-12-13T10:53:25Z</time>
      </trkpt>
      <trkpt lat="43.66103" lon="3.63185">
        <ele>307</ele>
        <time>2020-12-13T10:54:02Z</time>
      </trkpt>
      <trkpt lat="43.661" lon="3.63188">
        <ele>307</ele>
        <time>2020-12-13T10:54:04Z</time>
      </trkpt>
      <trkpt lat="43.66088" lon="3.63199">
        <ele>307</ele>
        <time>2020-12-13T10:54:09Z</time>
      </trkpt>
      <trkpt lat="43.66015" lon="3.63247">
        <ele>302</ele>
        <time>2020-12-13T10:54:30Z</time>
      </trkpt>
      <trkpt lat="43.66012" lon="3.6325">
        <ele>302</ele>
        <time>2020-12-13T10:54:31Z</time>
      </trkpt>
      <trkpt lat="43.66006" lon="3.63265">
        <ele>301</ele>
        <time>2020-12-13T10:54:33Z</time>
      </trkpt>
      <trkpt lat="43.65971" lon="3.63316">
        <ele>296</ele>
        <time>2020-12-13T10:54:41Z</time>
      </trkpt>
      <trkpt lat="43.65944" lon="3.63331">
        <ele>297</ele>
        <time>2020-12-13T10:54:46Z</time>
      </trkpt>
      <trkpt lat="43.65929" lon="3.63347">
        <ele>298</ele>
        <time>2020-12-13T10:54:50Z</time>
      </trkpt>
      <trkpt lat="43.65917" lon="3.63368">
        <ele>297</ele>
        <time>2020-12-13T10:54:54Z</time>
      </trkpt>
      <trkpt lat="43.65906" lon="3.63381">
        <ele>296</ele>
        <time>2020-12-13T10:54:58Z</time>
      </trkpt>
      <trkpt lat="43.6589" lon="3.63389">
        <ele>299</ele>
        <time>2020-12-13T10:55:06Z</time>
      </trkpt>
      <trkpt lat="43.65887" lon="3.63388">
        <ele>300</ele>
        <time>2020-12-13T10:55:09Z</time>
      </trkpt>
      <trkpt lat="43.65885" lon="3.63383">
        <ele>300</ele>
        <time>2020-12-13T10:55:12Z</time>
      </trkpt>
      <trkpt lat="43.65885" lon="3.63379">
        <ele>301</ele>
        <time>2020-12-13T10:55:14Z</time>
      </trkpt>
      <trkpt lat="43.65884" lon="3.63373">
        <ele>302</ele>
        <time>2020-12-13T10:55:16Z</time>
      </trkpt>
      <trkpt lat="43.6588" lon="3.6331">
        <ele>314</ele>
        <time>2020-12-13T10:55:47Z</time>
      </trkpt>
      <trkpt lat="43.65876" lon="3.6327">
        <ele>320</ele>
        <time>2020-12-13T10:56:12Z</time>
      </trkpt>
      <trkpt lat="43.65874" lon="3.63265">
        <ele>320</ele>
        <time>2020-12-13T10:56:15Z</time>
      </trkpt>
      <trkpt lat="43.65861" lon="3.63243">
        <ele>323</ele>
        <time>2020-12-13T10:56:30Z</time>
      </trkpt>
      <trkpt lat="43.65856" lon="3.63237">
        <ele>325</ele>
        <time>2020-12-13T10:56:34Z</time>
      </trkpt>
      <trkpt lat="43.65853" lon="3.63235">
        <ele>325</ele>
        <time>2020-12-13T10:56:36Z</time>
      </trkpt>
      <trkpt lat="43.65845" lon="3.63227">
        <ele>327</ele>
        <time>2020-12-13T10:56:42Z</time>
      </trkpt>
      <trkpt lat="43.65841" lon="3.6322">
        <ele>329</ele>
        <time>2020-12-13T10:56:46Z</time>
      </trkpt>
      <trkpt lat="43.65834" lon="3.63212">
        <ele>330</ele>
        <time>2020-12-13T10:56:52Z</time>
      </trkpt>
      <trkpt lat="43.65832" lon="3.63211">
        <ele>332</ele>
        <time>2020-12-13T10:56:54Z</time>
      </trkpt>
      <trkpt lat="43.65821" lon="3.6321">
        <ele>333</ele>
        <time>2020-12-13T10:57:02Z</time>
      </trkpt>
      <trkpt lat="43.65799" lon="3.63214">
        <ele>336</ele>
        <time>2020-12-13T10:57:18Z</time>
      </trkpt>
      <trkpt lat="43.65796" lon="3.63215">
        <ele>337</ele>
        <time>2020-12-13T10:57:20Z</time>
      </trkpt>
      <trkpt lat="43.65784" lon="3.6322">
        <ele>340</ele>
        <time>2020-12-13T10:57:28Z</time>
      </trkpt>
      <trkpt lat="43.65767" lon="3.63227">
        <ele>341</ele>
        <time>2020-12-13T10:57:38Z</time>
      </trkpt>
      <trkpt lat="43.65764" lon="3.6323">
        <ele>342</ele>
        <time>2020-12-13T10:57:40Z</time>
      </trkpt>
      <trkpt lat="43.65762" lon="3.63234">
        <ele>342</ele>
        <time>2020-12-13T10:57:42Z</time>
      </trkpt>
      <trkpt lat="43.6576" lon="3.63238">
        <ele>342</ele>
        <time>2020-12-13T10:57:44Z</time>
      </trkpt>
      <trkpt lat="43.65761" lon="3.63242">
        <ele>342</ele>
        <time>2020-12-13T10:57:46Z</time>
      </trkpt>
      <trkpt lat="43.65764" lon="3.63249">
        <ele>341</ele>
        <time>2020-12-13T10:57:50Z</time>
      </trkpt>
      <trkpt lat="43.65777" lon="3.63263">
        <ele>345</ele>
        <time>2020-12-13T10:58:00Z</time>
      </trkpt>
      <trkpt lat="43.6578" lon="3.63265">
        <ele>346</ele>
        <time>2020-12-13T10:58:02Z</time>
      </trkpt>
      <trkpt lat="43.65783" lon="3.63267">
        <ele>346</ele>
        <time>2020-12-13T10:58:04Z</time>
      </trkpt>
      <trkpt lat="43.65787" lon="3.63274">
        <ele>347</ele>
        <time>2020-12-13T10:58:08Z</time>
      </trkpt>
      <trkpt lat="43.6579" lon="3.63286">
        <ele>349</ele>
        <time>2020-12-13T10:58:14Z</time>
      </trkpt>
      <trkpt lat="43.65787" lon="3.63297">
        <ele>350</ele>
        <time>2020-12-13T10:58:20Z</time>
      </trkpt>
      <trkpt lat="43.65785" lon="3.63302">
        <ele>350</ele>
        <time>2020-12-13T10:58:23Z</time>
      </trkpt>
      <trkpt lat="43.65783" lon="3.63306">
        <ele>350</ele>
        <time>2020-12-13T10:58:26Z</time>
      </trkpt>
      <trkpt lat="43.65779" lon="3.63313">
        <ele>352</ele>
        <time>2020-12-13T10:58:30Z</time>
      </trkpt>
      <trkpt lat="43.65776" lon="3.6332">
        <ele>352</ele>
        <time>2020-12-13T10:58:34Z</time>
      </trkpt>
      <trkpt lat="43.65769" lon="3.6333">
        <ele>354</ele>
        <time>2020-12-13T10:58:40Z</time>
      </trkpt>
      <trkpt lat="43.65768" lon="3.63334">
        <ele>354</ele>
        <time>2020-12-13T10:58:42Z</time>
      </trkpt>
      <trkpt lat="43.65766" lon="3.63343">
        <ele>355</ele>
        <time>2020-12-13T10:58:46Z</time>
      </trkpt>
      <trkpt lat="43.65766" lon="3.63353">
        <ele>356</ele>
        <time>2020-12-13T10:58:50Z</time>
      </trkpt>
      <trkpt lat="43.65763" lon="3.63363">
        <ele>356</ele>
        <time>2020-12-13T10:58:54Z</time>
      </trkpt>
      <trkpt lat="43.65752" lon="3.63376">
        <ele>355</ele>
        <time>2020-12-13T10:59:02Z</time>
      </trkpt>
      <trkpt lat="43.65733" lon="3.63391">
        <ele>355</ele>
        <time>2020-12-13T10:59:14Z</time>
      </trkpt>
      <trkpt lat="43.65721" lon="3.63408">
        <ele>356</ele>
        <time>2020-12-13T10:59:24Z</time>
      </trkpt>
      <trkpt lat="43.65688" lon="3.63435">
        <ele>362</ele>
        <time>2020-12-13T10:59:44Z</time>
      </trkpt>
      <trkpt lat="43.65685" lon="3.63436">
        <ele>363</ele>
        <time>2020-12-13T10:59:46Z</time>
      </trkpt>
      <trkpt lat="43.65681" lon="3.63437">
        <ele>364</ele>
        <time>2020-12-13T10:59:49Z</time>
      </trkpt>
      <trkpt lat="43.65676" lon="3.63445">
        <ele>364</ele>
        <time>2020-12-13T10:59:54Z</time>
      </trkpt>
      <trkpt lat="43.65672" lon="3.63451">
        <ele>363</ele>
        <time>2020-12-13T10:59:58Z</time>
      </trkpt>
      <trkpt lat="43.65675" lon="3.63451">
        <ele>365</ele>
        <time>2020-12-13T11:07:25Z</time>
      </trkpt>
      <trkpt lat="43.65695" lon="3.63428">
        <ele>365</ele>
        <time>2020-12-13T11:07:36Z</time>
      </trkpt>
      <trkpt lat="43.65696" lon="3.63424">
        <ele>365</ele>
        <time>2020-12-13T11:07:37Z</time>
      </trkpt>
      <trkpt lat="43.65697" lon="3.6342">
        <ele>364</ele>
        <time>2020-12-13T11:07:38Z</time>
      </trkpt>
      <trkpt lat="43.65691" lon="3.63393">
        <ele>362</ele>
        <time>2020-12-13T11:07:43Z</time>
      </trkpt>
      <trkpt lat="43.65693" lon="3.63382">
        <ele>359</ele>
        <time>2020-12-13T11:07:45Z</time>
      </trkpt>
      <trkpt lat="43.65692" lon="3.63371">
        <ele>358</ele>
        <time>2020-12-13T11:07:47Z</time>
      </trkpt>
      <trkpt lat="43.65672" lon="3.63351">
        <ele>355</ele>
        <time>2020-12-13T11:07:53Z</time>
      </trkpt>
      <trkpt lat="43.65671" lon="3.63346">
        <ele>355</ele>
        <time>2020-12-13T11:07:54Z</time>
      </trkpt>
      <trkpt lat="43.65671" lon="3.63331">
        <ele>354</ele>
        <time>2020-12-13T11:07:57Z</time>
      </trkpt>
      <trkpt lat="43.6567" lon="3.63327">
        <ele>353</ele>
        <time>2020-12-13T11:07:58Z</time>
      </trkpt>
      <trkpt lat="43.65668" lon="3.63324">
        <ele>353</ele>
        <time>2020-12-13T11:07:59Z</time>
      </trkpt>
      <trkpt lat="43.65653" lon="3.63317">
        <ele>352</ele>
        <time>2020-12-13T11:08:03Z</time>
      </trkpt>
      <trkpt lat="43.65651" lon="3.63313">
        <ele>351</ele>
        <time>2020-12-13T11:08:04Z</time>
      </trkpt>
      <trkpt lat="43.6565" lon="3.63299">
        <ele>349</ele>
        <time>2020-12-13T11:08:07Z</time>
      </trkpt>
      <trkpt lat="43.65649" lon="3.63293">
        <ele>349</ele>
        <time>2020-12-13T11:08:08Z</time>
      </trkpt>
      <trkpt lat="43.65644" lon="3.63284">
        <ele>347</ele>
        <time>2020-12-13T11:08:10Z</time>
      </trkpt>
      <trkpt lat="43.65636" lon="3.63279">
        <ele>347</ele>
        <time>2020-12-13T11:08:12Z</time>
      </trkpt>
      <trkpt lat="43.6563" lon="3.6328">
        <ele>347</ele>
        <time>2020-12-13T11:08:13Z</time>
      </trkpt>
      <trkpt lat="43.65626" lon="3.63278">
        <ele>347</ele>
        <time>2020-12-13T11:08:14Z</time>
      </trkpt>
      <trkpt lat="43.65624" lon="3.63275">
        <ele>346</ele>
        <time>2020-12-13T11:08:15Z</time>
      </trkpt>
      <trkpt lat="43.6562" lon="3.63261">
        <ele>346</ele>
        <time>2020-12-13T11:08:18Z</time>
      </trkpt>
      <trkpt lat="43.65621" lon="3.63257">
        <ele>345</ele>
        <time>2020-12-13T11:08:19Z</time>
      </trkpt>
      <trkpt lat="43.65623" lon="3.63254">
        <ele>345</ele>
        <time>2020-12-13T11:08:20Z</time>
      </trkpt>
      <trkpt lat="43.65622" lon="3.63248">
        <ele>344</ele>
        <time>2020-12-13T11:08:22Z</time>
      </trkpt>
      <trkpt lat="43.65608" lon="3.63227">
        <ele>340</ele>
        <time>2020-12-13T11:08:27Z</time>
      </trkpt>
      <trkpt lat="43.65604" lon="3.63216">
        <ele>339</ele>
        <time>2020-12-13T11:08:29Z</time>
      </trkpt>
      <trkpt lat="43.65598" lon="3.63205">
        <ele>338</ele>
        <time>2020-12-13T11:08:31Z</time>
      </trkpt>
      <trkpt lat="43.65595" lon="3.632">
        <ele>338</ele>
        <time>2020-12-13T11:08:32Z</time>
      </trkpt>
      <trkpt lat="43.65594" lon="3.63195">
        <ele>338</ele>
        <time>2020-12-13T11:08:33Z</time>
      </trkpt>
      <trkpt lat="43.65592" lon="3.6319">
        <ele>337</ele>
        <time>2020-12-13T11:08:34Z</time>
      </trkpt>
      <trkpt lat="43.65585" lon="3.63181">
        <ele>335</ele>
        <time>2020-12-13T11:08:37Z</time>
      </trkpt>
      <trkpt lat="43.65582" lon="3.63162">
        <ele>331</ele>
        <time>2020-12-13T11:08:42Z</time>
      </trkpt>
      <trkpt lat="43.65581" lon="3.63158">
        <ele>331</ele>
        <time>2020-12-13T11:08:43Z</time>
      </trkpt>
      <trkpt lat="43.65579" lon="3.63155">
        <ele>331</ele>
        <time>2020-12-13T11:08:44Z</time>
      </trkpt>
      <trkpt lat="43.65567" lon="3.63146">
        <ele>330</ele>
        <time>2020-12-13T11:08:48Z</time>
      </trkpt>
      <trkpt lat="43.65564" lon="3.63143">
        <ele>330</ele>
        <time>2020-12-13T11:08:49Z</time>
      </trkpt>
      <trkpt lat="43.65553" lon="3.63136">
        <ele>328</ele>
        <time>2020-12-13T11:08:53Z</time>
      </trkpt>
      <trkpt lat="43.65551" lon="3.63134">
        <ele>327</ele>
        <time>2020-12-13T11:08:54Z</time>
      </trkpt>
      <trkpt lat="43.65551" lon="3.6313">
        <ele>327</ele>
        <time>2020-12-13T11:08:55Z</time>
      </trkpt>
      <trkpt lat="43.65555" lon="3.63113">
        <ele>325</ele>
        <time>2020-12-13T11:08:59Z</time>
      </trkpt>
      <trkpt lat="43.6556" lon="3.63105">
        <ele>325</ele>
        <time>2020-12-13T11:09:01Z</time>
      </trkpt>
      <trkpt lat="43.65562" lon="3.631">
        <ele>325</ele>
        <time>2020-12-13T11:09:02Z</time>
      </trkpt>
      <trkpt lat="43.65563" lon="3.63097">
        <ele>324</ele>
        <time>2020-12-13T11:09:03Z</time>
      </trkpt>
      <trkpt lat="43.65561" lon="3.63093">
        <ele>324</ele>
        <time>2020-12-13T11:09:04Z</time>
      </trkpt>
      <trkpt lat="43.65554" lon="3.63089">
        <ele>321</ele>
        <time>2020-12-13T11:09:06Z</time>
      </trkpt>
      <trkpt lat="43.65542" lon="3.63073">
        <ele>319</ele>
        <time>2020-12-13T11:09:11Z</time>
      </trkpt>
      <trkpt lat="43.65538" lon="3.63072">
        <ele>319</ele>
        <time>2020-12-13T11:09:13Z</time>
      </trkpt>
      <trkpt lat="43.6553" lon="3.63077">
        <ele>318</ele>
        <time>2020-12-13T11:09:16Z</time>
      </trkpt>
      <trkpt lat="43.65523" lon="3.63074">
        <ele>317</ele>
        <time>2020-12-13T11:09:18Z</time>
      </trkpt>
      <trkpt lat="43.65517" lon="3.63069">
        <ele>317</ele>
        <time>2020-12-13T11:09:20Z</time>
      </trkpt>
      <trkpt lat="43.65509" lon="3.63054">
        <ele>317</ele>
        <time>2020-12-13T11:09:24Z</time>
      </trkpt>
      <trkpt lat="43.65481" lon="3.63035">
        <ele>312</ele>
        <time>2020-12-13T11:09:32Z</time>
      </trkpt>
      <trkpt lat="43.65474" lon="3.63034">
        <ele>312</ele>
        <time>2020-12-13T11:09:34Z</time>
      </trkpt>
      <trkpt lat="43.65463" lon="3.63036">
        <ele>310</ele>
        <time>2020-12-13T11:09:37Z</time>
      </trkpt>
      <trkpt lat="43.6546" lon="3.63038">
        <ele>309</ele>
        <time>2020-12-13T11:09:38Z</time>
      </trkpt>
      <trkpt lat="43.65455" lon="3.63039">
        <ele>309</ele>
        <time>2020-12-13T11:09:40Z</time>
      </trkpt>
      <trkpt lat="43.65452" lon="3.63038">
        <ele>310</ele>
        <time>2020-12-13T11:09:41Z</time>
      </trkpt>
      <trkpt lat="43.65437" lon="3.63024">
        <ele>310</ele>
        <time>2020-12-13T11:09:45Z</time>
      </trkpt>
      <trkpt lat="43.65431" lon="3.63016">
        <ele>308</ele>
        <time>2020-12-13T11:09:47Z</time>
      </trkpt>
      <trkpt lat="43.65421" lon="3.63005">
        <ele>306</ele>
        <time>2020-12-13T11:09:50Z</time>
      </trkpt>
      <trkpt lat="43.6541" lon="3.62985">
        <ele>307</ele>
        <time>2020-12-13T11:09:54Z</time>
      </trkpt>
      <trkpt lat="43.65399" lon="3.62974">
        <ele>307</ele>
        <time>2020-12-13T11:09:57Z</time>
      </trkpt>
      <trkpt lat="43.65398" lon="3.62969">
        <ele>306</ele>
        <time>2020-12-13T11:09:58Z</time>
      </trkpt>
      <trkpt lat="43.65399" lon="3.62962">
        <ele>306</ele>
        <time>2020-12-13T11:10:00Z</time>
      </trkpt>
      <trkpt lat="43.65402" lon="3.62953">
        <ele>306</ele>
        <time>2020-12-13T11:10:04Z</time>
      </trkpt>
      <trkpt lat="43.65402" lon="3.62949">
        <ele>305</ele>
        <time>2020-12-13T11:10:22Z</time>
      </trkpt>
      <trkpt lat="43.65405" lon="3.62947">
        <ele>304</ele>
        <time>2020-12-13T11:10:25Z</time>
      </trkpt>
      <trkpt lat="43.65413" lon="3.62942">
        <ele>303</ele>
        <time>2020-12-13T11:10:29Z</time>
      </trkpt>
      <trkpt lat="43.65422" lon="3.62932">
        <ele>303</ele>
        <time>2020-12-13T11:10:33Z</time>
      </trkpt>
      <trkpt lat="43.65428" lon="3.62917">
        <ele>303</ele>
        <time>2020-12-13T11:10:37Z</time>
      </trkpt>
      <trkpt lat="43.6544" lon="3.62884">
        <ele>302</ele>
        <time>2020-12-13T11:10:44Z</time>
      </trkpt>
      <trkpt lat="43.65463" lon="3.62849">
        <ele>300</ele>
        <time>2020-12-13T11:10:52Z</time>
      </trkpt>
      <trkpt lat="43.65464" lon="3.62844">
        <ele>301</ele>
        <time>2020-12-13T11:10:53Z</time>
      </trkpt>
      <trkpt lat="43.65465" lon="3.62839">
        <ele>301</ele>
        <time>2020-12-13T11:10:54Z</time>
      </trkpt>
      <trkpt lat="43.65464" lon="3.62833">
        <ele>300</ele>
        <time>2020-12-13T11:10:56Z</time>
      </trkpt>
      <trkpt lat="43.65461" lon="3.62831">
        <ele>300</ele>
        <time>2020-12-13T11:10:58Z</time>
      </trkpt>
      <trkpt lat="43.65452" lon="3.62827">
        <ele>299</ele>
        <time>2020-12-13T11:11:01Z</time>
      </trkpt>
      <trkpt lat="43.65448" lon="3.62823">
        <ele>299</ele>
        <time>2020-12-13T11:11:02Z</time>
      </trkpt>
      <trkpt lat="43.65443" lon="3.62813">
        <ele>299</ele>
        <time>2020-12-13T11:11:04Z</time>
      </trkpt>
      <trkpt lat="43.65439" lon="3.62802">
        <ele>299</ele>
        <time>2020-12-13T11:11:06Z</time>
      </trkpt>
      <trkpt lat="43.65439" lon="3.62774">
        <ele>297</ele>
        <time>2020-12-13T11:11:11Z</time>
      </trkpt>
      <trkpt lat="43.65436" lon="3.62768">
        <ele>298</ele>
        <time>2020-12-13T11:11:12Z</time>
      </trkpt>
      <trkpt lat="43.65433" lon="3.62763">
        <ele>297</ele>
        <time>2020-12-13T11:11:13Z</time>
      </trkpt>
      <trkpt lat="43.65424" lon="3.62757">
        <ele>296</ele>
        <time>2020-12-13T11:11:15Z</time>
      </trkpt>
      <trkpt lat="43.65408" lon="3.62752">
        <ele>295</ele>
        <time>2020-12-13T11:11:18Z</time>
      </trkpt>
      <trkpt lat="43.65392" lon="3.62743">
        <ele>293</ele>
        <time>2020-12-13T11:11:21Z</time>
      </trkpt>
      <trkpt lat="43.65347" lon="3.62738">
        <ele>290</ele>
        <time>2020-12-13T11:11:29Z</time>
      </trkpt>
      <trkpt lat="43.65341" lon="3.62739">
        <ele>289</ele>
        <time>2020-12-13T11:11:30Z</time>
      </trkpt>
      <trkpt lat="43.65336" lon="3.62741">
        <ele>289</ele>
        <time>2020-12-13T11:11:31Z</time>
      </trkpt>
      <trkpt lat="43.65332" lon="3.62744">
        <ele>289</ele>
        <time>2020-12-13T11:11:32Z</time>
      </trkpt>
      <trkpt lat="43.65321" lon="3.62761">
        <ele>288</ele>
        <time>2020-12-13T11:11:35Z</time>
      </trkpt>
      <trkpt lat="43.65317" lon="3.62765">
        <ele>287</ele>
        <time>2020-12-13T11:11:36Z</time>
      </trkpt>
      <trkpt lat="43.65301" lon="3.62772">
        <ele>287</ele>
        <time>2020-12-13T11:11:39Z</time>
      </trkpt>
      <trkpt lat="43.65226" lon="3.62762">
        <ele>278</ele>
        <time>2020-12-13T11:11:51Z</time>
      </trkpt>
      <trkpt lat="43.65162" lon="3.62739">
        <ele>275</ele>
        <time>2020-12-13T11:12:02Z</time>
      </trkpt>
      <trkpt lat="43.65138" lon="3.62719">
        <ele>277</ele>
        <time>2020-12-13T11:12:07Z</time>
      </trkpt>
      <trkpt lat="43.65095" lon="3.62682">
        <ele>275</ele>
        <time>2020-12-13T11:12:15Z</time>
      </trkpt>
      <trkpt lat="43.65053" lon="3.6265">
        <ele>272</ele>
        <time>2020-12-13T11:12:23Z</time>
      </trkpt>
      <trkpt lat="43.64946" lon="3.62563">
        <ele>275</ele>
        <time>2020-12-13T11:12:43Z</time>
      </trkpt>
      <trkpt lat="43.64882" lon="3.62532">
        <ele>275</ele>
        <time>2020-12-13T11:12:55Z</time>
      </trkpt>
      <trkpt lat="43.64821" lon="3.62489">
        <ele>274</ele>
        <time>2020-12-13T11:13:10Z</time>
      </trkpt>
      <trkpt lat="43.64801" lon="3.62479">
        <ele>272</ele>
        <time>2020-12-13T11:13:14Z</time>
      </trkpt>
      <trkpt lat="43.64702" lon="3.62394">
        <ele>266</ele>
        <time>2020-12-13T11:13:35Z</time>
      </trkpt>
      <trkpt lat="43.64699" lon="3.6239">
        <ele>267</ele>
        <time>2020-12-13T11:13:36Z</time>
      </trkpt>
      <trkpt lat="43.64697" lon="3.62384">
        <ele>266</ele>
        <time>2020-12-13T11:13:37Z</time>
      </trkpt>
      <trkpt lat="43.64699" lon="3.62373">
        <ele>264</ele>
        <time>2020-12-13T11:13:39Z</time>
      </trkpt>
      <trkpt lat="43.64718" lon="3.62345">
        <ele>260</ele>
        <time>2020-12-13T11:13:44Z</time>
      </trkpt>
      <trkpt lat="43.6472" lon="3.62338">
        <ele>259</ele>
        <time>2020-12-13T11:13:45Z</time>
      </trkpt>
      <trkpt lat="43.64726" lon="3.62327">
        <ele>256</ele>
        <time>2020-12-13T11:13:47Z</time>
      </trkpt>
      <trkpt lat="43.64728" lon="3.62317">
        <ele>254</ele>
        <time>2020-12-13T11:13:49Z</time>
      </trkpt>
      <trkpt lat="43.64726" lon="3.623">
        <ele>252</ele>
        <time>2020-12-13T11:13:52Z</time>
      </trkpt>
      <trkpt lat="43.64716" lon="3.62279">
        <ele>250</ele>
        <time>2020-12-13T11:13:55Z</time>
      </trkpt>
      <trkpt lat="43.64713" lon="3.62271">
        <ele>249</ele>
        <time>2020-12-13T11:13:56Z</time>
      </trkpt>
      <trkpt lat="43.64709" lon="3.62264">
        <ele>249</ele>
        <time>2020-12-13T11:13:57Z</time>
      </trkpt>
      <trkpt lat="43.64703" lon="3.62243">
        <ele>250</ele>
        <time>2020-12-13T11:14:00Z</time>
      </trkpt>
      <trkpt lat="43.64701" lon="3.62219">
        <ele>252</ele>
        <time>2020-12-13T11:14:03Z</time>
      </trkpt>
      <trkpt lat="43.64714" lon="3.62091">
        <ele>257</ele>
        <time>2020-12-13T11:14:20Z</time>
      </trkpt>
      <trkpt lat="43.64717" lon="3.62069">
        <ele>257</ele>
        <time>2020-12-13T11:14:23Z</time>
      </trkpt>
      <trkpt lat="43.64719" lon="3.6202">
        <ele>256</ele>
        <time>2020-12-13T11:14:31Z</time>
      </trkpt>
      <trkpt lat="43.64732" lon="3.6197">
        <ele>258</ele>
        <time>2020-12-13T11:14:42Z</time>
      </trkpt>
      <trkpt lat="43.64731" lon="3.61945">
        <ele>257</ele>
        <time>2020-12-13T11:14:48Z</time>
      </trkpt>
      <trkpt lat="43.64733" lon="3.61937">
        <ele>258</ele>
        <time>2020-12-13T11:14:50Z</time>
      </trkpt>
      <trkpt lat="43.64741" lon="3.61919">
        <ele>260</ele>
        <time>2020-12-13T11:14:55Z</time>
      </trkpt>
      <trkpt lat="43.6475" lon="3.61878">
        <ele>262</ele>
        <time>2020-12-13T11:15:06Z</time>
      </trkpt>
      <trkpt lat="43.64751" lon="3.61874">
        <ele>263</ele>
        <time>2020-12-13T11:15:07Z</time>
      </trkpt>
      <trkpt lat="43.64751" lon="3.61871">
        <ele>264</ele>
        <time>2020-12-13T11:15:08Z</time>
      </trkpt>
      <trkpt lat="43.6475" lon="3.61867">
        <ele>264</ele>
        <time>2020-12-13T11:15:09Z</time>
      </trkpt>
      <trkpt lat="43.64748" lon="3.61864">
        <ele>266</ele>
        <time>2020-12-13T11:15:10Z</time>
      </trkpt>
      <trkpt lat="43.6474" lon="3.61858">
        <ele>267</ele>
        <time>2020-12-13T11:15:13Z</time>
      </trkpt>
      <trkpt lat="43.64737" lon="3.61857">
        <ele>267</ele>
        <time>2020-12-13T11:15:14Z</time>
      </trkpt>
      <trkpt lat="43.64726" lon="3.61857">
        <ele>265</ele>
        <time>2020-12-13T11:15:18Z</time>
      </trkpt>
      <trkpt lat="43.64709" lon="3.61867">
        <ele>265</ele>
        <time>2020-12-13T11:15:25Z</time>
      </trkpt>
      <trkpt lat="43.64692" lon="3.61881">
        <ele>264</ele>
        <time>2020-12-13T11:15:33Z</time>
      </trkpt>
      <trkpt lat="43.64656" lon="3.61892">
        <ele>268</ele>
        <time>2020-12-13T11:15:48Z</time>
      </trkpt>
      <trkpt lat="43.64653" lon="3.61894">
        <ele>268</ele>
        <time>2020-12-13T11:15:49Z</time>
      </trkpt>
      <trkpt lat="43.64643" lon="3.61904">
        <ele>268</ele>
        <time>2020-12-13T11:15:53Z</time>
      </trkpt>
      <trkpt lat="43.64603" lon="3.61941">
        <ele>265</ele>
        <time>2020-12-13T11:16:11Z</time>
      </trkpt>
      <trkpt lat="43.64546" lon="3.61972">
        <ele>267</ele>
        <time>2020-12-13T11:16:33Z</time>
      </trkpt>
      <trkpt lat="43.64519" lon="3.61995">
        <ele>266</ele>
        <time>2020-12-13T11:16:43Z</time>
      </trkpt>
      <trkpt lat="43.64427" lon="3.6205">
        <ele>272</ele>
        <time>2020-12-13T11:17:13Z</time>
      </trkpt>
      <trkpt lat="43.644" lon="3.62072">
        <ele>271</ele>
        <time>2020-12-13T11:17:22Z</time>
      </trkpt>
      <trkpt lat="43.64389" lon="3.62083">
        <ele>270</ele>
        <time>2020-12-13T11:17:26Z</time>
      </trkpt>
      <trkpt lat="43.64308" lon="3.62146">
        <ele>272</ele>
        <time>2020-12-13T11:17:56Z</time>
      </trkpt>
      <trkpt lat="43.64285" lon="3.62155">
        <ele>272</ele>
        <time>2020-12-13T11:18:03Z</time>
      </trkpt>
      <trkpt lat="43.64282" lon="3.62156">
        <ele>272</ele>
        <time>2020-12-13T11:18:04Z</time>
      </trkpt>
      <trkpt lat="43.64279" lon="3.62158">
        <ele>272</ele>
        <time>2020-12-13T11:18:05Z</time>
      </trkpt>
      <trkpt lat="43.64271" lon="3.62161">
        <ele>271</ele>
        <time>2020-12-13T11:18:08Z</time>
      </trkpt>
      <trkpt lat="43.64265" lon="3.62165">
        <ele>271</ele>
        <time>2020-12-13T11:18:11Z</time>
      </trkpt>
      <trkpt lat="43.64259" lon="3.62177">
        <ele>272</ele>
        <time>2020-12-13T11:18:15Z</time>
      </trkpt>
      <trkpt lat="43.64256" lon="3.62185">
        <ele>273</ele>
        <time>2020-12-13T11:18:27Z</time>
      </trkpt>
      <trkpt lat="43.64253" lon="3.62182">
        <ele>275</ele>
        <time>2020-12-13T11:19:04Z</time>
      </trkpt>
      <trkpt lat="43.6425" lon="3.62179">
        <ele>278</ele>
        <time>2020-12-13T11:19:06Z</time>
      </trkpt>
      <trkpt lat="43.64247" lon="3.62174">
        <ele>279</ele>
        <time>2020-12-13T11:19:08Z</time>
      </trkpt>
      <trkpt lat="43.64245" lon="3.6217">
        <ele>279</ele>
        <time>2020-12-13T11:19:10Z</time>
      </trkpt>
      <trkpt lat="43.64241" lon="3.62165">
        <ele>278</ele>
        <time>2020-12-13T11:19:12Z</time>
      </trkpt>
      <trkpt lat="43.64217" lon="3.62151">
        <ele>275</ele>
        <time>2020-12-13T11:19:19Z</time>
      </trkpt>
      <trkpt lat="43.64193" lon="3.62145">
        <ele>270</ele>
        <time>2020-12-13T11:19:25Z</time>
      </trkpt>
      <trkpt lat="43.64186" lon="3.62141">
        <ele>269</ele>
        <time>2020-12-13T11:19:27Z</time>
      </trkpt>
      <trkpt lat="43.6418" lon="3.62135">
        <ele>267</ele>
        <time>2020-12-13T11:19:29Z</time>
      </trkpt>
      <trkpt lat="43.64154" lon="3.62126">
        <ele>264</ele>
        <time>2020-12-13T11:19:37Z</time>
      </trkpt>
      <trkpt lat="43.64146" lon="3.62122">
        <ele>263</ele>
        <time>2020-12-13T11:19:39Z</time>
      </trkpt>
      <trkpt lat="43.64123" lon="3.62109">
        <ele>266</ele>
        <time>2020-12-13T11:19:47Z</time>
      </trkpt>
      <trkpt lat="43.6412" lon="3.62108">
        <ele>265</ele>
        <time>2020-12-13T11:19:48Z</time>
      </trkpt>
      <trkpt lat="43.64109" lon="3.62115">
        <ele>263</ele>
        <time>2020-12-13T11:19:53Z</time>
      </trkpt>
      <trkpt lat="43.64101" lon="3.6212">
        <ele>263</ele>
        <time>2020-12-13T11:19:56Z</time>
      </trkpt>
      <trkpt lat="43.64092" lon="3.62128">
        <ele>262</ele>
        <time>2020-12-13T11:19:59Z</time>
      </trkpt>
      <trkpt lat="43.64078" lon="3.62151">
        <ele>260</ele>
        <time>2020-12-13T11:20:04Z</time>
      </trkpt>
      <trkpt lat="43.64068" lon="3.62167">
        <ele>261</ele>
        <time>2020-12-13T11:20:07Z</time>
      </trkpt>
      <trkpt lat="43.64062" lon="3.62176">
        <ele>260</ele>
        <time>2020-12-13T11:20:09Z</time>
      </trkpt>
      <trkpt lat="43.64018" lon="3.6221">
        <ele>257</ele>
        <time>2020-12-13T11:20:19Z</time>
      </trkpt>
      <trkpt lat="43.64015" lon="3.62213">
        <ele>257</ele>
        <time>2020-12-13T11:20:21Z</time>
      </trkpt>
      <trkpt lat="43.64012" lon="3.62214">
        <ele>256</ele>
        <time>2020-12-13T11:20:27Z</time>
      </trkpt>
      <trkpt lat="43.64008" lon="3.6222">
        <ele>256</ele>
        <time>2020-12-13T11:20:35Z</time>
      </trkpt>
      <trkpt lat="43.64005" lon="3.62222">
        <ele>255</ele>
        <time>2020-12-13T11:20:38Z</time>
      </trkpt>
      <trkpt lat="43.64002" lon="3.62224">
        <ele>254</ele>
        <time>2020-12-13T11:20:40Z</time>
      </trkpt>
      <trkpt lat="43.63999" lon="3.62227">
        <ele>254</ele>
        <time>2020-12-13T11:20:45Z</time>
      </trkpt>
      <trkpt lat="43.63995" lon="3.62228">
        <ele>253</ele>
        <time>2020-12-13T11:20:48Z</time>
      </trkpt>
      <trkpt lat="43.63992" lon="3.62229">
        <ele>253</ele>
        <time>2020-12-13T11:20:51Z</time>
      </trkpt>
      <trkpt lat="43.63988" lon="3.62229">
        <ele>252</ele>
        <time>2020-12-13T11:20:54Z</time>
      </trkpt>
      <trkpt lat="43.63984" lon="3.6223">
        <ele>252</ele>
        <time>2020-12-13T11:20:57Z</time>
      </trkpt>
      <trkpt lat="43.6398" lon="3.62233">
        <ele>251</ele>
        <time>2020-12-13T11:21:00Z</time>
      </trkpt>
      <trkpt lat="43.63975" lon="3.62234">
        <ele>250</ele>
        <time>2020-12-13T11:21:02Z</time>
      </trkpt>
      <trkpt lat="43.63972" lon="3.62235">
        <ele>251</ele>
        <time>2020-12-13T11:21:04Z</time>
      </trkpt>
      <trkpt lat="43.63969" lon="3.62236">
        <ele>250</ele>
        <time>2020-12-13T11:21:06Z</time>
      </trkpt>
      <trkpt lat="43.63963" lon="3.62245">
        <ele>250</ele>
        <time>2020-12-13T11:21:11Z</time>
      </trkpt>
      <trkpt lat="43.63964" lon="3.62257">
        <ele>248</ele>
        <time>2020-12-13T11:21:16Z</time>
      </trkpt>
      <trkpt lat="43.63962" lon="3.62263">
        <ele>248</ele>
        <time>2020-12-13T11:21:19Z</time>
      </trkpt>
      <trkpt lat="43.6396" lon="3.62269">
        <ele>248</ele>
        <time>2020-12-13T11:21:22Z</time>
      </trkpt>
      <trkpt lat="43.63956" lon="3.62274">
        <ele>247</ele>
        <time>2020-12-13T11:21:25Z</time>
      </trkpt>
      <trkpt lat="43.63945" lon="3.62293">
        <ele>248</ele>
        <time>2020-12-13T11:21:36Z</time>
      </trkpt>
      <trkpt lat="43.63943" lon="3.62298">
        <ele>247</ele>
        <time>2020-12-13T11:21:38Z</time>
      </trkpt>
      <trkpt lat="43.63942" lon="3.62304">
        <ele>245</ele>
        <time>2020-12-13T11:21:41Z</time>
      </trkpt>
      <trkpt lat="43.63941" lon="3.62311">
        <ele>243</ele>
        <time>2020-12-13T11:21:44Z</time>
      </trkpt>
      <trkpt lat="43.63925" lon="3.62339">
        <ele>243</ele>
        <time>2020-12-13T11:21:58Z</time>
      </trkpt>
      <trkpt lat="43.6392" lon="3.6235">
        <ele>244</ele>
        <time>2020-12-13T11:22:03Z</time>
      </trkpt>
      <trkpt lat="43.63918" lon="3.62355">
        <ele>244</ele>
        <time>2020-12-13T11:22:06Z</time>
      </trkpt>
      <trkpt lat="43.63916" lon="3.6236">
        <ele>242</ele>
        <time>2020-12-13T11:22:08Z</time>
      </trkpt>
      <trkpt lat="43.63913" lon="3.62363">
        <ele>241</ele>
        <time>2020-12-13T11:22:10Z</time>
      </trkpt>
      <trkpt lat="43.63902" lon="3.62375">
        <ele>238</ele>
        <time>2020-12-13T11:22:16Z</time>
      </trkpt>
      <trkpt lat="43.6389" lon="3.62385">
        <ele>237</ele>
        <time>2020-12-13T11:22:22Z</time>
      </trkpt>
      <trkpt lat="43.63886" lon="3.62389">
        <ele>237</ele>
        <time>2020-12-13T11:22:24Z</time>
      </trkpt>
      <trkpt lat="43.63885" lon="3.62395">
        <ele>237</ele>
        <time>2020-12-13T11:22:27Z</time>
      </trkpt>
      <trkpt lat="43.63884" lon="3.624">
        <ele>237</ele>
        <time>2020-12-13T11:22:31Z</time>
      </trkpt>
      <trkpt lat="43.63876" lon="3.62413">
        <ele>234</ele>
        <time>2020-12-13T11:22:38Z</time>
      </trkpt>
      <trkpt lat="43.63871" lon="3.62426">
        <ele>232</ele>
        <time>2020-12-13T11:22:43Z</time>
      </trkpt>
      <trkpt lat="43.6387" lon="3.62434">
        <ele>231</ele>
        <time>2020-12-13T11:22:47Z</time>
      </trkpt>
      <trkpt lat="43.63869" lon="3.62443">
        <ele>229</ele>
        <time>2020-12-13T11:22:51Z</time>
      </trkpt>
      <trkpt lat="43.63866" lon="3.62451">
        <ele>230</ele>
        <time>2020-12-13T11:22:54Z</time>
      </trkpt>
      <trkpt lat="43.63863" lon="3.62457">
        <ele>229</ele>
        <time>2020-12-13T11:22:57Z</time>
      </trkpt>
      <trkpt lat="43.63862" lon="3.62465">
        <ele>227</ele>
        <time>2020-12-13T11:23:02Z</time>
      </trkpt>
      <trkpt lat="43.63862" lon="3.62476">
        <ele>225</ele>
        <time>2020-12-13T11:23:06Z</time>
      </trkpt>
      <trkpt lat="43.63861" lon="3.62485">
        <ele>227</ele>
        <time>2020-12-13T11:23:10Z</time>
      </trkpt>
      <trkpt lat="43.63855" lon="3.62496">
        <ele>230</ele>
        <time>2020-12-13T11:23:14Z</time>
      </trkpt>
      <trkpt lat="43.63852" lon="3.62501">
        <ele>231</ele>
        <time>2020-12-13T11:23:16Z</time>
      </trkpt>
      <trkpt lat="43.63849" lon="3.62505">
        <ele>231</ele>
        <time>2020-12-13T11:23:18Z</time>
      </trkpt>
      <trkpt lat="43.63847" lon="3.62511">
        <ele>230</ele>
        <time>2020-12-13T11:23:21Z</time>
      </trkpt>
      <trkpt lat="43.63845" lon="3.62516">
        <ele>229</ele>
        <time>2020-12-13T11:23:23Z</time>
      </trkpt>
      <trkpt lat="43.63844" lon="3.62522">
        <ele>227</ele>
        <time>2020-12-13T11:23:26Z</time>
      </trkpt>
      <trkpt lat="43.63843" lon="3.6253">
        <ele>226</ele>
        <time>2020-12-13T11:23:30Z</time>
      </trkpt>
      <trkpt lat="43.63842" lon="3.62539">
        <ele>227</ele>
        <time>2020-12-13T11:23:33Z</time>
      </trkpt>
      <trkpt lat="43.63836" lon="3.62552">
        <ele>226</ele>
        <time>2020-12-13T11:23:38Z</time>
      </trkpt>
      <trkpt lat="43.63835" lon="3.62558">
        <ele>226</ele>
        <time>2020-12-13T11:23:41Z</time>
      </trkpt>
      <trkpt lat="43.63816" lon="3.62583">
        <ele>227</ele>
        <time>2020-12-13T11:23:50Z</time>
      </trkpt>
      <trkpt lat="43.6381" lon="3.626">
        <ele>225</ele>
        <time>2020-12-13T11:23:58Z</time>
      </trkpt>
      <trkpt lat="43.63799" lon="3.62618">
        <ele>224</ele>
        <time>2020-12-13T11:24:09Z</time>
      </trkpt>
      <trkpt lat="43.63796" lon="3.62622">
        <ele>223</ele>
        <time>2020-12-13T11:24:12Z</time>
      </trkpt>
      <trkpt lat="43.6379" lon="3.62634">
        <ele>221</ele>
        <time>2020-12-13T11:24:18Z</time>
      </trkpt>
      <trkpt lat="43.63788" lon="3.62638">
        <ele>220</ele>
        <time>2020-12-13T11:24:21Z</time>
      </trkpt>
      <trkpt lat="43.63785" lon="3.62643">
        <ele>218</ele>
        <time>2020-12-13T11:24:24Z</time>
      </trkpt>
      <trkpt lat="43.63777" lon="3.62654">
        <ele>217</ele>
        <time>2020-12-13T11:24:32Z</time>
      </trkpt>
      <trkpt lat="43.63774" lon="3.62656">
        <ele>217</ele>
        <time>2020-12-13T11:24:35Z</time>
      </trkpt>
      <trkpt lat="43.63771" lon="3.62659">
        <ele>219</ele>
        <time>2020-12-13T11:26:32Z</time>
      </trkpt>
      <trkpt lat="43.63767" lon="3.6266">
        <ele>219</ele>
        <time>2020-12-13T11:28:13Z</time>
      </trkpt>
      <trkpt lat="43.63765" lon="3.62658">
        <ele>219</ele>
        <time>2020-12-13T11:35:54Z</time>
      </trkpt>
      <trkpt lat="43.63766" lon="3.6266">
        <ele>221</ele>
        <time>2020-12-13T11:38:30Z</time>
      </trkpt>
      <trkpt lat="43.63766" lon="3.62666">
        <ele>220</ele>
        <time>2020-12-13T11:39:01Z</time>
      </trkpt>
      <trkpt lat="43.63758" lon="3.62674">
        <ele>218</ele>
        <time>2020-12-13T11:39:05Z</time>
      </trkpt>
      <trkpt lat="43.6373" lon="3.62712">
        <ele>221</ele>
        <time>2020-12-13T11:39:19Z</time>
      </trkpt>
      <trkpt lat="43.6371" lon="3.62731">
        <ele>224</ele>
        <time>2020-12-13T11:39:27Z</time>
      </trkpt>
      <trkpt lat="43.63696" lon="3.62737">
        <ele>224</ele>
        <time>2020-12-13T11:39:32Z</time>
      </trkpt>
      <trkpt lat="43.6369" lon="3.62737">
        <ele>224</ele>
        <time>2020-12-13T11:39:34Z</time>
      </trkpt>
      <trkpt lat="43.63668" lon="3.62733">
        <ele>223</ele>
        <time>2020-12-13T11:39:41Z</time>
      </trkpt>
      <trkpt lat="43.6366" lon="3.62728">
        <ele>224</ele>
        <time>2020-12-13T11:39:44Z</time>
      </trkpt>
      <trkpt lat="43.63644" lon="3.62714">
        <ele>229</ele>
        <time>2020-12-13T11:39:51Z</time>
      </trkpt>
      <trkpt lat="43.63568" lon="3.6266">
        <ele>229</ele>
        <time>2020-12-13T11:40:21Z</time>
      </trkpt>
      <trkpt lat="43.63546" lon="3.62646">
        <ele>229</ele>
        <time>2020-12-13T11:40:29Z</time>
      </trkpt>
      <trkpt lat="43.63514" lon="3.62612">
        <ele>235</ele>
        <time>2020-12-13T11:40:46Z</time>
      </trkpt>
      <trkpt lat="43.63471" lon="3.62579">
        <ele>239</ele>
        <time>2020-12-13T11:41:03Z</time>
      </trkpt>
      <trkpt lat="43.6346" lon="3.62567">
        <ele>238</ele>
        <time>2020-12-13T11:41:08Z</time>
      </trkpt>
      <trkpt lat="43.63432" lon="3.62544">
        <ele>237</ele>
        <time>2020-12-13T11:41:18Z</time>
      </trkpt>
      <trkpt lat="43.63426" lon="3.62538">
        <ele>236</ele>
        <time>2020-12-13T11:41:20Z</time>
      </trkpt>
      <trkpt lat="43.63413" lon="3.6253">
        <ele>236</ele>
        <time>2020-12-13T11:41:23Z</time>
      </trkpt>
      <trkpt lat="43.63397" lon="3.62512">
        <ele>236</ele>
        <time>2020-12-13T11:41:28Z</time>
      </trkpt>
      <trkpt lat="43.63377" lon="3.62464">
        <ele>239</ele>
        <time>2020-12-13T11:41:40Z</time>
      </trkpt>
      <trkpt lat="43.63376" lon="3.62459">
        <ele>239</ele>
        <time>2020-12-13T11:41:42Z</time>
      </trkpt>
      <trkpt lat="43.63375" lon="3.62456">
        <ele>238</ele>
        <time>2020-12-13T11:41:48Z</time>
      </trkpt>
      <trkpt lat="43.63374" lon="3.62452">
        <ele>239</ele>
        <time>2020-12-13T11:42:33Z</time>
      </trkpt>
      <trkpt lat="43.63372" lon="3.62448">
        <ele>238</ele>
        <time>2020-12-13T11:42:35Z</time>
      </trkpt>
      <trkpt lat="43.63371" lon="3.62443">
        <ele>238</ele>
        <time>2020-12-13T11:42:37Z</time>
      </trkpt>
      <trkpt lat="43.63369" lon="3.62437">
        <ele>238</ele>
        <time>2020-12-13T11:42:39Z</time>
      </trkpt>
      <trkpt lat="43.63368" lon="3.62434">
        <ele>238</ele>
        <time>2020-12-13T11:42:40Z</time>
      </trkpt>
      <trkpt lat="43.63366" lon="3.62429">
        <ele>237</ele>
        <time>2020-12-13T11:42:42Z</time>
      </trkpt>
      <trkpt lat="43.63366" lon="3.62423">
        <ele>238</ele>
        <time>2020-12-13T11:42:44Z</time>
      </trkpt>
      <trkpt lat="43.63364" lon="3.62409">
        <ele>237</ele>
        <time>2020-12-13T11:42:47Z</time>
      </trkpt>
      <trkpt lat="43.63364" lon="3.6239">
        <ele>238</ele>
        <time>2020-12-13T11:42:51Z</time>
      </trkpt>
      <trkpt lat="43.63362" lon="3.62375">
        <ele>237</ele>
        <time>2020-12-13T11:42:54Z</time>
      </trkpt>
      <trkpt lat="43.63366" lon="3.6235">
        <ele>236</ele>
        <time>2020-12-13T11:42:58Z</time>
      </trkpt>
      <trkpt lat="43.63366" lon="3.62327">
        <ele>236</ele>
        <time>2020-12-13T11:43:02Z</time>
      </trkpt>
      <trkpt lat="43.63365" lon="3.62321">
        <ele>236</ele>
        <time>2020-12-13T11:43:03Z</time>
      </trkpt>
      <trkpt lat="43.6336" lon="3.62312">
        <ele>237</ele>
        <time>2020-12-13T11:43:05Z</time>
      </trkpt>
      <trkpt lat="43.63341" lon="3.62291">
        <ele>244</ele>
        <time>2020-12-13T11:43:12Z</time>
      </trkpt>
      <trkpt lat="43.63337" lon="3.62283">
        <ele>245</ele>
        <time>2020-12-13T11:43:14Z</time>
      </trkpt>
      <trkpt lat="43.63331" lon="3.62267">
        <ele>246</ele>
        <time>2020-12-13T11:43:18Z</time>
      </trkpt>
      <trkpt lat="43.63328" lon="3.62252">
        <ele>249</ele>
        <time>2020-12-13T11:43:22Z</time>
      </trkpt>
      <trkpt lat="43.63327" lon="3.62232">
        <ele>249</ele>
        <time>2020-12-13T11:43:27Z</time>
      </trkpt>
      <trkpt lat="43.63295" lon="3.6209">
        <ele>237</ele>
        <time>2020-12-13T11:43:57Z</time>
      </trkpt>
      <trkpt lat="43.63295" lon="3.62084">
        <ele>237</ele>
        <time>2020-12-13T11:43:58Z</time>
      </trkpt>
      <trkpt lat="43.63292" lon="3.62073">
        <ele>239</ele>
        <time>2020-12-13T11:44:00Z</time>
      </trkpt>
      <trkpt lat="43.63288" lon="3.62062">
        <ele>242</ele>
        <time>2020-12-13T11:44:02Z</time>
      </trkpt>
      <trkpt lat="43.63282" lon="3.62023">
        <ele>246</ele>
        <time>2020-12-13T11:44:10Z</time>
      </trkpt>
      <trkpt lat="43.63284" lon="3.62004">
        <ele>248</ele>
        <time>2020-12-13T11:44:14Z</time>
      </trkpt>
      <trkpt lat="43.63282" lon="3.61994">
        <ele>248</ele>
        <time>2020-12-13T11:44:16Z</time>
      </trkpt>
      <trkpt lat="43.63284" lon="3.61939">
        <ele>253</ele>
        <time>2020-12-13T11:44:28Z</time>
      </trkpt>
      <trkpt lat="43.63296" lon="3.61895">
        <ele>257</ele>
        <time>2020-12-13T11:44:40Z</time>
      </trkpt>
      <trkpt lat="43.63297" lon="3.61889">
        <ele>257</ele>
        <time>2020-12-13T11:44:42Z</time>
      </trkpt>
      <trkpt lat="43.63296" lon="3.61885">
        <ele>258</ele>
        <time>2020-12-13T11:44:44Z</time>
      </trkpt>
      <trkpt lat="43.63287" lon="3.6188">
        <ele>259</ele>
        <time>2020-12-13T11:44:50Z</time>
      </trkpt>
      <trkpt lat="43.63274" lon="3.61878">
        <ele>258</ele>
        <time>2020-12-13T11:44:56Z</time>
      </trkpt>
      <trkpt lat="43.6327" lon="3.61879">
        <ele>258</ele>
        <time>2020-12-13T11:44:58Z</time>
      </trkpt>
      <trkpt lat="43.63253" lon="3.61892">
        <ele>258</ele>
        <time>2020-12-13T11:45:08Z</time>
      </trkpt>
      <trkpt lat="43.63236" lon="3.61918">
        <ele>258</ele>
        <time>2020-12-13T11:45:22Z</time>
      </trkpt>
      <trkpt lat="43.63233" lon="3.61922">
        <ele>258</ele>
        <time>2020-12-13T11:45:24Z</time>
      </trkpt>
      <trkpt lat="43.6323" lon="3.61924">
        <ele>258</ele>
        <time>2020-12-13T11:45:26Z</time>
      </trkpt>
      <trkpt lat="43.63227" lon="3.61925">
        <ele>258</ele>
        <time>2020-12-13T11:45:28Z</time>
      </trkpt>
      <trkpt lat="43.63223" lon="3.61923">
        <ele>259</ele>
        <time>2020-12-13T11:45:30Z</time>
      </trkpt>
      <trkpt lat="43.6322" lon="3.61919">
        <ele>259</ele>
        <time>2020-12-13T11:45:32Z</time>
      </trkpt>
      <trkpt lat="43.63218" lon="3.61909">
        <ele>259</ele>
        <time>2020-12-13T11:45:36Z</time>
      </trkpt>
      <trkpt lat="43.63215" lon="3.61886">
        <ele>261</ele>
        <time>2020-12-13T11:45:44Z</time>
      </trkpt>
      <trkpt lat="43.63205" lon="3.61854">
        <ele>262</ele>
        <time>2020-12-13T11:45:58Z</time>
      </trkpt>
      <trkpt lat="43.63197" lon="3.61843">
        <ele>265</ele>
        <time>2020-12-13T11:46:04Z</time>
      </trkpt>
      <trkpt lat="43.63147" lon="3.61787">
        <ele>269</ele>
        <time>2020-12-13T11:46:34Z</time>
      </trkpt>
      <trkpt lat="43.63136" lon="3.6177">
        <ele>269</ele>
        <time>2020-12-13T11:46:40Z</time>
      </trkpt>
      <trkpt lat="43.63114" lon="3.6174">
        <ele>265</ele>
        <time>2020-12-13T11:46:52Z</time>
      </trkpt>
      <trkpt lat="43.63098" lon="3.61731">
        <ele>267</ele>
        <time>2020-12-13T11:46:58Z</time>
      </trkpt>
      <trkpt lat="43.63079" lon="3.61727">
        <ele>271</ele>
        <time>2020-12-13T11:47:04Z</time>
      </trkpt>
      <trkpt lat="43.62982" lon="3.6173">
        <ele>274</ele>
        <time>2020-12-13T11:47:34Z</time>
      </trkpt>
      <trkpt lat="43.62933" lon="3.6172">
        <ele>270</ele>
        <time>2020-12-13T11:47:42Z</time>
      </trkpt>
      <trkpt lat="43.62863" lon="3.61737">
        <ele>263</ele>
        <time>2020-12-13T11:47:52Z</time>
      </trkpt>
      <trkpt lat="43.62841" lon="3.61745">
        <ele>260</ele>
        <time>2020-12-13T11:47:57Z</time>
      </trkpt>
      <trkpt lat="43.62837" lon="3.61746">
        <ele>260</ele>
        <time>2020-12-13T11:47:58Z</time>
      </trkpt>
      <trkpt lat="43.62833" lon="3.61745">
        <ele>259</ele>
        <time>2020-12-13T11:47:59Z</time>
      </trkpt>
      <trkpt lat="43.6283" lon="3.61743">
        <ele>259</ele>
        <time>2020-12-13T11:48:00Z</time>
      </trkpt>
      <trkpt lat="43.62828" lon="3.6174">
        <ele>259</ele>
        <time>2020-12-13T11:48:01Z</time>
      </trkpt>
      <trkpt lat="43.62824" lon="3.61733">
        <ele>259</ele>
        <time>2020-12-13T11:48:03Z</time>
      </trkpt>
      <trkpt lat="43.62819" lon="3.61705">
        <ele>259</ele>
        <time>2020-12-13T11:48:08Z</time>
      </trkpt>
      <trkpt lat="43.62826" lon="3.61676">
        <ele>262</ele>
        <time>2020-12-13T11:48:14Z</time>
      </trkpt>
      <trkpt lat="43.6283" lon="3.61664">
        <ele>263</ele>
        <time>2020-12-13T11:48:17Z</time>
      </trkpt>
      <trkpt lat="43.62827" lon="3.61665">
        <ele>264</ele>
        <time>2020-12-13T11:50:05Z</time>
      </trkpt>
      <trkpt lat="43.62823" lon="3.61667">
        <ele>264</ele>
        <time>2020-12-13T11:50:08Z</time>
      </trkpt>
      <trkpt lat="43.62804" lon="3.61645">
        <ele>261</ele>
        <time>2020-12-13T11:50:20Z</time>
      </trkpt>
      <trkpt lat="43.62802" lon="3.6164">
        <ele>260</ele>
        <time>2020-12-13T11:50:22Z</time>
      </trkpt>
      <trkpt lat="43.628" lon="3.61628">
        <ele>259</ele>
        <time>2020-12-13T11:50:26Z</time>
      </trkpt>
      <trkpt lat="43.62798" lon="3.61625">
        <ele>260</ele>
        <time>2020-12-13T11:50:27Z</time>
      </trkpt>
      <trkpt lat="43.62796" lon="3.61622">
        <ele>260</ele>
        <time>2020-12-13T11:50:28Z</time>
      </trkpt>
      <trkpt lat="43.62793" lon="3.61621">
        <ele>259</ele>
        <time>2020-12-13T11:50:30Z</time>
      </trkpt>
      <trkpt lat="43.62791" lon="3.61618">
        <ele>258</ele>
        <time>2020-12-13T11:50:32Z</time>
      </trkpt>
      <trkpt lat="43.62787" lon="3.61607">
        <ele>255</ele>
        <time>2020-12-13T11:50:36Z</time>
      </trkpt>
      <trkpt lat="43.62785" lon="3.61602">
        <ele>255</ele>
        <time>2020-12-13T11:50:38Z</time>
      </trkpt>
      <trkpt lat="43.62785" lon="3.61596">
        <ele>253</ele>
        <time>2020-12-13T11:50:40Z</time>
      </trkpt>
      <trkpt lat="43.62784" lon="3.61591">
        <ele>250</ele>
        <time>2020-12-13T11:50:42Z</time>
      </trkpt>
      <trkpt lat="43.62786" lon="3.61585">
        <ele>249</ele>
        <time>2020-12-13T11:50:44Z</time>
      </trkpt>
      <trkpt lat="43.62785" lon="3.61579">
        <ele>248</ele>
        <time>2020-12-13T11:50:46Z</time>
      </trkpt>
      <trkpt lat="43.62783" lon="3.61575">
        <ele>247</ele>
        <time>2020-12-13T11:50:47Z</time>
      </trkpt>
      <trkpt lat="43.6278" lon="3.61572">
        <ele>247</ele>
        <time>2020-12-13T11:50:49Z</time>
      </trkpt>
      <trkpt lat="43.62778" lon="3.61568">
        <ele>249</ele>
        <time>2020-12-13T11:50:51Z</time>
      </trkpt>
      <trkpt lat="43.62777" lon="3.61555">
        <ele>245</ele>
        <time>2020-12-13T11:50:55Z</time>
      </trkpt>
      <trkpt lat="43.62776" lon="3.61549">
        <ele>243</ele>
        <time>2020-12-13T11:50:57Z</time>
      </trkpt>
      <trkpt lat="43.62776" lon="3.61542">
        <ele>242</ele>
        <time>2020-12-13T11:50:59Z</time>
      </trkpt>
      <trkpt lat="43.62775" lon="3.61536">
        <ele>240</ele>
        <time>2020-12-13T11:51:01Z</time>
      </trkpt>
      <trkpt lat="43.62773" lon="3.61531">
        <ele>242</ele>
        <time>2020-12-13T11:51:03Z</time>
      </trkpt>
      <trkpt lat="43.62772" lon="3.61527">
        <ele>240</ele>
        <time>2020-12-13T11:51:06Z</time>
      </trkpt>
      <trkpt lat="43.62769" lon="3.61524">
        <ele>239</ele>
        <time>2020-12-13T11:51:13Z</time>
      </trkpt>
      <trkpt lat="43.62768" lon="3.61521">
        <ele>238</ele>
        <time>2020-12-13T11:51:17Z</time>
      </trkpt>
      <trkpt lat="43.62766" lon="3.61518">
        <ele>238</ele>
        <time>2020-12-13T11:51:22Z</time>
      </trkpt>
      <trkpt lat="43.62759" lon="3.61517">
        <ele>236</ele>
        <time>2020-12-13T11:51:27Z</time>
      </trkpt>
      <trkpt lat="43.62756" lon="3.61516">
        <ele>236</ele>
        <time>2020-12-13T11:51:29Z</time>
      </trkpt>
      <trkpt lat="43.62752" lon="3.61509">
        <ele>234</ele>
        <time>2020-12-13T11:51:33Z</time>
      </trkpt>
      <trkpt lat="43.62749" lon="3.61506">
        <ele>234</ele>
        <time>2020-12-13T11:51:35Z</time>
      </trkpt>
      <trkpt lat="43.62734" lon="3.61503">
        <ele>233</ele>
        <time>2020-12-13T11:51:42Z</time>
      </trkpt>
      <trkpt lat="43.62724" lon="3.61503">
        <ele>231</ele>
        <time>2020-12-13T11:51:45Z</time>
      </trkpt>
      <trkpt lat="43.62721" lon="3.61502">
        <ele>230</ele>
        <time>2020-12-13T11:51:46Z</time>
      </trkpt>
      <trkpt lat="43.62716" lon="3.61499">
        <ele>229</ele>
        <time>2020-12-13T11:51:48Z</time>
      </trkpt>
      <trkpt lat="43.62713" lon="3.61495">
        <ele>229</ele>
        <time>2020-12-13T11:51:50Z</time>
      </trkpt>
      <trkpt lat="43.62711" lon="3.6149">
        <ele>228</ele>
        <time>2020-12-13T11:51:52Z</time>
      </trkpt>
      <trkpt lat="43.62702" lon="3.61488">
        <ele>225</ele>
        <time>2020-12-13T11:51:56Z</time>
      </trkpt>
      <trkpt lat="43.62699" lon="3.61487">
        <ele>225</ele>
        <time>2020-12-13T11:51:57Z</time>
      </trkpt>
      <trkpt lat="43.62677" lon="3.6144">
        <ele>222</ele>
        <time>2020-12-13T11:52:08Z</time>
      </trkpt>
      <trkpt lat="43.62646" lon="3.61407">
        <ele>219</ele>
        <time>2020-12-13T11:52:17Z</time>
      </trkpt>
      <trkpt lat="43.62624" lon="3.61378">
        <ele>216</ele>
        <time>2020-12-13T11:52:26Z</time>
      </trkpt>
      <trkpt lat="43.62614" lon="3.61365">
        <ele>213</ele>
        <time>2020-12-13T11:52:30Z</time>
      </trkpt>
      <trkpt lat="43.62611" lon="3.61361">
        <ele>214</ele>
        <time>2020-12-13T11:52:31Z</time>
      </trkpt>
      <trkpt lat="43.62609" lon="3.61358">
        <ele>213</ele>
        <time>2020-12-13T11:52:32Z</time>
      </trkpt>
      <trkpt lat="43.62605" lon="3.61352">
        <ele>214</ele>
        <time>2020-12-13T11:52:34Z</time>
      </trkpt>
      <trkpt lat="43.62598" lon="3.61346">
        <ele>214</ele>
        <time>2020-12-13T11:52:37Z</time>
      </trkpt>
      <trkpt lat="43.6259" lon="3.61341">
        <ele>213</ele>
        <time>2020-12-13T11:52:41Z</time>
      </trkpt>
      <trkpt lat="43.62588" lon="3.61339">
        <ele>214</ele>
        <time>2020-12-13T11:52:46Z</time>
      </trkpt>
      <trkpt lat="43.62586" lon="3.61326">
        <ele>214</ele>
        <time>2020-12-13T11:52:56Z</time>
      </trkpt>
      <trkpt lat="43.62579" lon="3.61309">
        <ele>212</ele>
        <time>2020-12-13T11:53:12Z</time>
      </trkpt>
      <trkpt lat="43.62576" lon="3.61301">
        <ele>214</ele>
        <time>2020-12-13T11:53:21Z</time>
      </trkpt>
      <trkpt lat="43.62565" lon="3.61301">
        <ele>215</ele>
        <time>2020-12-13T11:53:40Z</time>
      </trkpt>
      <trkpt lat="43.62547" lon="3.61298">
        <ele>213</ele>
        <time>2020-12-13T11:54:00Z</time>
      </trkpt>
      <trkpt lat="43.62542" lon="3.61296">
        <ele>218</ele>
        <time>2020-12-13T11:55:12Z</time>
      </trkpt>
      <trkpt lat="43.62532" lon="3.61291">
        <ele>220</ele>
        <time>2020-12-13T11:55:33Z</time>
      </trkpt>
      <trkpt lat="43.6253" lon="3.61288">
        <ele>219</ele>
        <time>2020-12-13T11:55:35Z</time>
      </trkpt>
      <trkpt lat="43.62523" lon="3.61273">
        <ele>219</ele>
        <time>2020-12-13T11:55:41Z</time>
      </trkpt>
      <trkpt lat="43.62512" lon="3.61218">
        <ele>212</ele>
        <time>2020-12-13T11:55:52Z</time>
      </trkpt>
      <trkpt lat="43.62509" lon="3.61211">
        <ele>212</ele>
        <time>2020-12-13T11:55:54Z</time>
      </trkpt>
      <trkpt lat="43.62504" lon="3.61209">
        <ele>210</ele>
        <time>2020-12-13T11:55:56Z</time>
      </trkpt>
      <trkpt lat="43.62499" lon="3.6121">
        <ele>207</ele>
        <time>2020-12-13T11:55:58Z</time>
      </trkpt>
      <trkpt lat="43.62497" lon="3.61213">
        <ele>207</ele>
        <time>2020-12-13T11:55:59Z</time>
      </trkpt>
      <trkpt lat="43.62495" lon="3.61217">
        <ele>206</ele>
        <time>2020-12-13T11:56:00Z</time>
      </trkpt>
      <trkpt lat="43.62497" lon="3.61239">
        <ele>204</ele>
        <time>2020-12-13T11:56:04Z</time>
      </trkpt>
      <trkpt lat="43.62498" lon="3.61376">
        <ele>204</ele>
        <time>2020-12-13T11:56:34Z</time>
      </trkpt>
      <trkpt lat="43.62486" lon="3.61439">
        <ele>207</ele>
        <time>2020-12-13T11:56:49Z</time>
      </trkpt>
      <trkpt lat="43.62466" lon="3.61497">
        <ele>214</ele>
        <time>2020-12-13T11:57:02Z</time>
      </trkpt>
      <trkpt lat="43.62436" lon="3.61549">
        <ele>216</ele>
        <time>2020-12-13T11:57:17Z</time>
      </trkpt>
      <trkpt lat="43.62397" lon="3.616">
        <ele>221</ele>
        <time>2020-12-13T11:57:34Z</time>
      </trkpt>
      <trkpt lat="43.62328" lon="3.61681">
        <ele>228</ele>
        <time>2020-12-13T11:58:05Z</time>
      </trkpt>
      <trkpt lat="43.6227" lon="3.61758">
        <ele>230</ele>
        <time>2020-12-13T11:58:35Z</time>
      </trkpt>
      <trkpt lat="43.62225" lon="3.61843">
        <ele>231</ele>
        <time>2020-12-13T11:58:56Z</time>
      </trkpt>
      <trkpt lat="43.62196" lon="3.6193">
        <ele>234</ele>
        <time>2020-12-13T11:59:12Z</time>
      </trkpt>
      <trkpt lat="43.62175" lon="3.62029">
        <ele>232</ele>
        <time>2020-12-13T11:59:28Z</time>
      </trkpt>
      <trkpt lat="43.6217" lon="3.62042">
        <ele>232</ele>
        <time>2020-12-13T11:59:30Z</time>
      </trkpt>
      <trkpt lat="43.62167" lon="3.62045">
        <ele>233</ele>
        <time>2020-12-13T11:59:31Z</time>
      </trkpt>
      <trkpt lat="43.6216" lon="3.62049">
        <ele>232</ele>
        <time>2020-12-13T11:59:33Z</time>
      </trkpt>
      <trkpt lat="43.62138" lon="3.62054">
        <ele>233</ele>
        <time>2020-12-13T11:59:38Z</time>
      </trkpt>
      <trkpt lat="43.62124" lon="3.62048">
        <ele>233</ele>
        <time>2020-12-13T11:59:43Z</time>
      </trkpt>
      <trkpt lat="43.62108" lon="3.62036">
        <ele>232</ele>
        <time>2020-12-13T11:59:53Z</time>
      </trkpt>
      <trkpt lat="43.62106" lon="3.62035">
        <ele>233</ele>
        <time>2020-12-13T11:59:55Z</time>
      </trkpt>
      <trkpt lat="43.62096" lon="3.62036">
        <ele>234</ele>
        <time>2020-12-13T11:59:59Z</time>
      </trkpt>
      <trkpt lat="43.62084" lon="3.62031">
        <ele>233</ele>
        <time>2020-12-13T12:00:05Z</time>
      </trkpt>
      <trkpt lat="43.62076" lon="3.62023">
        <ele>233</ele>
        <time>2020-12-13T12:00:09Z</time>
      </trkpt>
      <trkpt lat="43.62066" lon="3.62016">
        <ele>232</ele>
        <time>2020-12-13T12:00:16Z</time>
      </trkpt>
      <trkpt lat="43.62062" lon="3.62015">
        <ele>233</ele>
        <time>2020-12-13T12:00:18Z</time>
      </trkpt>
      <trkpt lat="43.62058" lon="3.62015">
        <ele>233</ele>
        <time>2020-12-13T12:00:20Z</time>
      </trkpt>
      <trkpt lat="43.62042" lon="3.62014">
        <ele>235</ele>
        <time>2020-12-13T12:00:26Z</time>
      </trkpt>
      <trkpt lat="43.62032" lon="3.62016">
        <ele>236</ele>
        <time>2020-12-13T12:00:30Z</time>
      </trkpt>
      <trkpt lat="43.62028" lon="3.62017">
        <ele>236</ele>
        <time>2020-12-13T12:00:32Z</time>
      </trkpt>
      <trkpt lat="43.62015" lon="3.62018">
        <ele>237</ele>
        <time>2020-12-13T12:00:38Z</time>
      </trkpt>
      <trkpt lat="43.62006" lon="3.62023">
        <ele>238</ele>
        <time>2020-12-13T12:00:42Z</time>
      </trkpt>
      <trkpt lat="43.61974" lon="3.62028">
        <ele>236</ele>
        <time>2020-12-13T12:00:54Z</time>
      </trkpt>
      <trkpt lat="43.6195" lon="3.62024">
        <ele>237</ele>
        <time>2020-12-13T12:01:03Z</time>
      </trkpt>
      <trkpt lat="43.61919" lon="3.62007">
        <ele>240</ele>
        <time>2020-12-13T12:01:16Z</time>
      </trkpt>
      <trkpt lat="43.61907" lon="3.62006">
        <ele>241</ele>
        <time>2020-12-13T12:01:20Z</time>
      </trkpt>
      <trkpt lat="43.61888" lon="3.62009">
        <ele>243</ele>
        <time>2020-12-13T12:01:27Z</time>
      </trkpt>
      <trkpt lat="43.61856" lon="3.62031">
        <ele>244</ele>
        <time>2020-12-13T12:01:40Z</time>
      </trkpt>
      <trkpt lat="43.61851" lon="3.62032">
        <ele>244</ele>
        <time>2020-12-13T12:01:42Z</time>
      </trkpt>
      <trkpt lat="43.61816" lon="3.62032">
        <ele>245</ele>
        <time>2020-12-13T12:01:53Z</time>
      </trkpt>
      <trkpt lat="43.61812" lon="3.62033">
        <ele>244</ele>
        <time>2020-12-13T12:01:54Z</time>
      </trkpt>
      <trkpt lat="43.61805" lon="3.62038">
        <ele>243</ele>
        <time>2020-12-13T12:01:56Z</time>
      </trkpt>
      <trkpt lat="43.6178" lon="3.6208">
        <ele>234</ele>
        <time>2020-12-13T12:02:03Z</time>
      </trkpt>
      <trkpt lat="43.61762" lon="3.62117">
        <ele>234</ele>
        <time>2020-12-13T12:02:08Z</time>
      </trkpt>
      <trkpt lat="43.61758" lon="3.62124">
        <ele>233</ele>
        <time>2020-12-13T12:02:09Z</time>
      </trkpt>
      <trkpt lat="43.61754" lon="3.62129">
        <ele>232</ele>
        <time>2020-12-13T12:02:10Z</time>
      </trkpt>
      <trkpt lat="43.6175" lon="3.62132">
        <ele>233</ele>
        <time>2020-12-13T12:02:11Z</time>
      </trkpt>
      <trkpt lat="43.6174" lon="3.62132">
        <ele>233</ele>
        <time>2020-12-13T12:02:13Z</time>
      </trkpt>
      <trkpt lat="43.61733" lon="3.62128">
        <ele>232</ele>
        <time>2020-12-13T12:02:15Z</time>
      </trkpt>
      <trkpt lat="43.6173" lon="3.62127">
        <ele>233</ele>
        <time>2020-12-13T12:02:16Z</time>
      </trkpt>
      <trkpt lat="43.61727" lon="3.62125">
        <ele>231</ele>
        <time>2020-12-13T12:02:18Z</time>
      </trkpt>
      <trkpt lat="43.61724" lon="3.62126">
        <ele>230</ele>
        <time>2020-12-13T12:02:20Z</time>
      </trkpt>
      <trkpt lat="43.61708" lon="3.62129">
        <ele>230</ele>
        <time>2020-12-13T12:02:26Z</time>
      </trkpt>
      <trkpt lat="43.61705" lon="3.62129">
        <ele>230</ele>
        <time>2020-12-13T12:02:27Z</time>
      </trkpt>
      <trkpt lat="43.61692" lon="3.62121">
        <ele>230</ele>
        <time>2020-12-13T12:02:32Z</time>
      </trkpt>
      <trkpt lat="43.61609" lon="3.62062">
        <ele>233</ele>
        <time>2020-12-13T12:03:02Z</time>
      </trkpt>
      <trkpt lat="43.61516" lon="3.6199">
        <ele>236</ele>
        <time>2020-12-13T12:03:29Z</time>
      </trkpt>
      <trkpt lat="43.61485" lon="3.6196">
        <ele>237</ele>
        <time>2020-12-13T12:03:38Z</time>
      </trkpt>
      <trkpt lat="43.61414" lon="3.61913">
        <ele>238</ele>
        <time>2020-12-13T12:03:59Z</time>
      </trkpt>
      <trkpt lat="43.61386" lon="3.61904">
        <ele>236</ele>
        <time>2020-12-13T12:04:07Z</time>
      </trkpt>
      <trkpt lat="43.61379" lon="3.61903">
        <ele>236</ele>
        <time>2020-12-13T12:04:09Z</time>
      </trkpt>
      <trkpt lat="43.61373" lon="3.61906">
        <ele>236</ele>
        <time>2020-12-13T12:04:11Z</time>
      </trkpt>
      <trkpt lat="43.6137" lon="3.61908">
        <ele>236</ele>
        <time>2020-12-13T12:04:12Z</time>
      </trkpt>
      <trkpt lat="43.61368" lon="3.61911">
        <ele>237</ele>
        <time>2020-12-13T12:04:13Z</time>
      </trkpt>
      <trkpt lat="43.61362" lon="3.61924">
        <ele>237</ele>
        <time>2020-12-13T12:04:19Z</time>
      </trkpt>
      <trkpt lat="43.6136" lon="3.61927">
        <ele>237</ele>
        <time>2020-12-13T12:04:21Z</time>
      </trkpt>
      <trkpt lat="43.61357" lon="3.61927">
        <ele>237</ele>
        <time>2020-12-13T12:04:23Z</time>
      </trkpt>
      <trkpt lat="43.61355" lon="3.61923">
        <ele>238</ele>
        <time>2020-12-13T12:04:25Z</time>
      </trkpt>
      <trkpt lat="43.61355" lon="3.61919">
        <ele>238</ele>
        <time>2020-12-13T12:04:26Z</time>
      </trkpt>
      <trkpt lat="43.61363" lon="3.61894">
        <ele>235</ele>
        <time>2020-12-13T12:04:31Z</time>
      </trkpt>
      <trkpt lat="43.61367" lon="3.6186">
        <ele>235</ele>
        <time>2020-12-13T12:04:39Z</time>
      </trkpt>
      <trkpt lat="43.61377" lon="3.61829">
        <ele>236</ele>
        <time>2020-12-13T12:04:49Z</time>
      </trkpt>
      <trkpt lat="43.61379" lon="3.61825">
        <ele>240</ele>
        <time>2020-12-13T12:04:56Z</time>
      </trkpt>
      <trkpt lat="43.61388" lon="3.61818">
        <ele>239</ele>
        <time>2020-12-13T12:05:05Z</time>
      </trkpt>
      <trkpt lat="43.61404" lon="3.61793">
        <ele>244</ele>
        <time>2020-12-13T12:05:22Z</time>
      </trkpt>
      <trkpt lat="43.6141" lon="3.61779">
        <ele>243</ele>
        <time>2020-12-13T12:05:27Z</time>
      </trkpt>
      <trkpt lat="43.6142" lon="3.61762">
        <ele>245</ele>
        <time>2020-12-13T12:05:33Z</time>
      </trkpt>
      <trkpt lat="43.61422" lon="3.61758">
        <ele>244</ele>
        <time>2020-12-13T12:05:35Z</time>
      </trkpt>
      <trkpt lat="43.61425" lon="3.61738">
        <ele>242</ele>
        <time>2020-12-13T12:05:55Z</time>
      </trkpt>
      <trkpt lat="43.61431" lon="3.61726">
        <ele>242</ele>
        <time>2020-12-13T12:05:58Z</time>
      </trkpt>
      <trkpt lat="43.61445" lon="3.61714">
        <ele>241</ele>
        <time>2020-12-13T12:06:02Z</time>
      </trkpt>
      <trkpt lat="43.61447" lon="3.61711">
        <ele>241</ele>
        <time>2020-12-13T12:06:03Z</time>
      </trkpt>
      <trkpt lat="43.61452" lon="3.61678">
        <ele>239</ele>
        <time>2020-12-13T12:06:08Z</time>
      </trkpt>
      <trkpt lat="43.61452" lon="3.61652">
        <ele>238</ele>
        <time>2020-12-13T12:06:12Z</time>
      </trkpt>
      <trkpt lat="43.61449" lon="3.61641">
        <ele>237</ele>
        <time>2020-12-13T12:06:14Z</time>
      </trkpt>
      <trkpt lat="43.61446" lon="3.61631">
        <ele>235</ele>
        <time>2020-12-13T12:06:16Z</time>
      </trkpt>
      <trkpt lat="43.61442" lon="3.61627">
        <ele>234</ele>
        <time>2020-12-13T12:06:17Z</time>
      </trkpt>
      <trkpt lat="43.61438" lon="3.61624">
        <ele>234</ele>
        <time>2020-12-13T12:06:18Z</time>
      </trkpt>
      <trkpt lat="43.61428" lon="3.61621">
        <ele>234</ele>
        <time>2020-12-13T12:06:20Z</time>
      </trkpt>
      <trkpt lat="43.61414" lon="3.61621">
        <ele>232</ele>
        <time>2020-12-13T12:06:23Z</time>
      </trkpt>
      <trkpt lat="43.61405" lon="3.61618">
        <ele>231</ele>
        <time>2020-12-13T12:06:25Z</time>
      </trkpt>
      <trkpt lat="43.61382" lon="3.61596">
        <ele>229</ele>
        <time>2020-12-13T12:06:31Z</time>
      </trkpt>
      <trkpt lat="43.61378" lon="3.61594">
        <ele>229</ele>
        <time>2020-12-13T12:06:32Z</time>
      </trkpt>
      <trkpt lat="43.61353" lon="3.61595">
        <ele>224</ele>
        <time>2020-12-13T12:06:39Z</time>
      </trkpt>
      <trkpt lat="43.61328" lon="3.6159">
        <ele>220</ele>
        <time>2020-12-13T12:06:46Z</time>
      </trkpt>
      <trkpt lat="43.6132" lon="3.61584">
        <ele>218</ele>
        <time>2020-12-13T12:06:48Z</time>
      </trkpt>
      <trkpt lat="43.61317" lon="3.6158">
        <ele>218</ele>
        <time>2020-12-13T12:06:49Z</time>
      </trkpt>
      <trkpt lat="43.61315" lon="3.61575">
        <ele>218</ele>
        <time>2020-12-13T12:06:50Z</time>
      </trkpt>
      <trkpt lat="43.61315" lon="3.61563">
        <ele>217</ele>
        <time>2020-12-13T12:06:52Z</time>
      </trkpt>
      <trkpt lat="43.61317" lon="3.61554">
        <ele>217</ele>
        <time>2020-12-13T12:06:54Z</time>
      </trkpt>
      <trkpt lat="43.61325" lon="3.61538">
        <ele>218</ele>
        <time>2020-12-13T12:06:58Z</time>
      </trkpt>
      <trkpt lat="43.61327" lon="3.61533">
        <ele>218</ele>
        <time>2020-12-13T12:07:00Z</time>
      </trkpt>
      <trkpt lat="43.61326" lon="3.61528">
        <ele>219</ele>
        <time>2020-12-13T12:07:02Z</time>
      </trkpt>
      <trkpt lat="43.61324" lon="3.61525">
        <ele>219</ele>
        <time>2020-12-13T12:07:03Z</time>
      </trkpt>
      <trkpt lat="43.61321" lon="3.61521">
        <ele>219</ele>
        <time>2020-12-13T12:07:04Z</time>
      </trkpt>
      <trkpt lat="43.61292" lon="3.61507">
        <ele>221</ele>
        <time>2020-12-13T12:07:10Z</time>
      </trkpt>
      <trkpt lat="43.61268" lon="3.61477">
        <ele>219</ele>
        <time>2020-12-13T12:07:15Z</time>
      </trkpt>
      <trkpt lat="43.61223" lon="3.61414">
        <ele>215</ele>
        <time>2020-12-13T12:07:24Z</time>
      </trkpt>
      <trkpt lat="43.61059" lon="3.61252">
        <ele>205</ele>
        <time>2020-12-13T12:07:54Z</time>
      </trkpt>
      <trkpt lat="43.60917" lon="3.61103">
        <ele>201</ele>
        <time>2020-12-13T12:08:24Z</time>
      </trkpt>
      <trkpt lat="43.60869" lon="3.61028">
        <ele>199</ele>
        <time>2020-12-13T12:08:36Z</time>
      </trkpt>
      <trkpt lat="43.60811" lon="3.60933">
        <ele>195</ele>
        <time>2020-12-13T12:08:51Z</time>
      </trkpt>
      <trkpt lat="43.6075" lon="3.60847">
        <ele>192</ele>
        <time>2020-12-13T12:09:04Z</time>
      </trkpt>
      <trkpt lat="43.6072" lon="3.60786">
        <ele>191</ele>
        <time>2020-12-13T12:09:12Z</time>
      </trkpt>
      <trkpt lat="43.60662" lon="3.60717">
        <ele>192</ele>
        <time>2020-12-13T12:09:25Z</time>
      </trkpt>
      <trkpt lat="43.6065" lon="3.60686">
        <ele>193</ele>
        <time>2020-12-13T12:09:29Z</time>
      </trkpt>
      <trkpt lat="43.60644" lon="3.60637">
        <ele>193</ele>
        <time>2020-12-13T12:09:35Z</time>
      </trkpt>
      <trkpt lat="43.60621" lon="3.60375">
        <ele>184</ele>
        <time>2020-12-13T12:10:05Z</time>
      </trkpt>
      <trkpt lat="43.6061" lon="3.60314">
        <ele>186</ele>
        <time>2020-12-13T12:10:13Z</time>
      </trkpt>
      <trkpt lat="43.60602" lon="3.60293">
        <ele>185</ele>
        <time>2020-12-13T12:10:16Z</time>
      </trkpt>
      <trkpt lat="43.6055" lon="3.6021">
        <ele>181</ele>
        <time>2020-12-13T12:10:29Z</time>
      </trkpt>
      <trkpt lat="43.60432" lon="3.60087">
        <ele>179</ele>
        <time>2020-12-13T12:10:52Z</time>
      </trkpt>
      <trkpt lat="43.60279" lon="3.59982">
        <ele>172</ele>
        <time>2020-12-13T12:11:22Z</time>
      </trkpt>
      <trkpt lat="43.60253" lon="3.59962">
        <ele>171</ele>
        <time>2020-12-13T12:11:28Z</time>
      </trkpt>
      <trkpt lat="43.60248" lon="3.5996">
        <ele>171</ele>
        <time>2020-12-13T12:11:29Z</time>
      </trkpt>
      <trkpt lat="43.60244" lon="3.59961">
        <ele>171</ele>
        <time>2020-12-13T12:11:30Z</time>
      </trkpt>
      <trkpt lat="43.60241" lon="3.59964">
        <ele>171</ele>
        <time>2020-12-13T12:11:31Z</time>
      </trkpt>
      <trkpt lat="43.60236" lon="3.59977">
        <ele>171</ele>
        <time>2020-12-13T12:11:34Z</time>
      </trkpt>
      <trkpt lat="43.60231" lon="3.59984">
        <ele>170</ele>
        <time>2020-12-13T12:11:36Z</time>
      </trkpt>
      <trkpt lat="43.60228" lon="3.59986">
        <ele>171</ele>
        <time>2020-12-13T12:11:37Z</time>
      </trkpt>
      <trkpt lat="43.60225" lon="3.59988">
        <ele>171</ele>
        <time>2020-12-13T12:11:38Z</time>
      </trkpt>
      <trkpt lat="43.60221" lon="3.59987">
        <ele>171</ele>
        <time>2020-12-13T12:11:39Z</time>
      </trkpt>
      <trkpt lat="43.60218" lon="3.59985">
        <ele>172</ele>
        <time>2020-12-13T12:11:40Z</time>
      </trkpt>
      <trkpt lat="43.60196" lon="3.59957">
        <ele>171</ele>
        <time>2020-12-13T12:11:49Z</time>
      </trkpt>
      <trkpt lat="43.60167" lon="3.59931">
        <ele>172</ele>
        <time>2020-12-13T12:12:02Z</time>
      </trkpt>
      <trkpt lat="43.60145" lon="3.59907">
        <ele>176</ele>
        <time>2020-12-13T12:12:11Z</time>
      </trkpt>
      <trkpt lat="43.60123" lon="3.59889">
        <ele>179</ele>
        <time>2020-12-13T12:12:20Z</time>
      </trkpt>
      <trkpt lat="43.6012" lon="3.59885">
        <ele>179</ele>
        <time>2020-12-13T12:12:23Z</time>
      </trkpt>
      <trkpt lat="43.60118" lon="3.59883">
        <ele>178</ele>
        <time>2020-12-13T12:12:27Z</time>
      </trkpt>
      <trkpt lat="43.6011" lon="3.59877">
        <ele>182</ele>
        <time>2020-12-13T12:12:51Z</time>
      </trkpt>
      <trkpt lat="43.60099" lon="3.59869">
        <ele>184</ele>
        <time>2020-12-13T12:12:57Z</time>
      </trkpt>
      <trkpt lat="43.60093" lon="3.59862">
        <ele>184</ele>
        <time>2020-12-13T12:13:01Z</time>
      </trkpt>
      <trkpt lat="43.60078" lon="3.59844">
        <ele>184</ele>
        <time>2020-12-13T12:13:10Z</time>
      </trkpt>
      <trkpt lat="43.60072" lon="3.59835">
        <ele>186</ele>
        <time>2020-12-13T12:13:14Z</time>
      </trkpt>
      <trkpt lat="43.6007" lon="3.5983">
        <ele>186</ele>
        <time>2020-12-13T12:13:16Z</time>
      </trkpt>
      <trkpt lat="43.60066" lon="3.59821">
        <ele>185</ele>
        <time>2020-12-13T12:13:20Z</time>
      </trkpt>
      <trkpt lat="43.60065" lon="3.59816">
        <ele>184</ele>
        <time>2020-12-13T12:13:25Z</time>
      </trkpt>
      <trkpt lat="43.60063" lon="3.59811">
        <ele>183</ele>
        <time>2020-12-13T12:13:29Z</time>
      </trkpt>
      <trkpt lat="43.6006" lon="3.59804">
        <ele>182</ele>
        <time>2020-12-13T12:13:54Z</time>
      </trkpt>
      <trkpt lat="43.60059" lon="3.59801">
        <ele>183</ele>
        <time>2020-12-13T12:14:22Z</time>
      </trkpt>
    </trkseg>
  </trk>
</gpx>